     2              OBSERVATION DATA                        RINEX VERSION / TYPE
DAT2RIN 1.01d Dan Johnson 12SEP96 4:34:16 GMT               PGM / RUN BY / DATE
Mojave '96 team Central Washington U                        OBSERVER / AGENCY
15927 TRIMBLE 4000SSI Nav 7.09 Sig 3.03                     REC # / TYPE / VERS
63791 TRIMBLE CHOKE                                         ANT # / TYPE
WMTN WHITE MOUNTAIN                                         MARKER NAME
 -2396039.0000 -4461802.0000  3870176.0000                  APPROX POSITION XYZ
        0.0814        0.0000        0.0000                  ANTENNA: DELTA H/E/N
     1     1     0                                          WAVELENGTH FACT L1/2
     5    L1    C1    P1    L2    P2                        # / TYPES OF OBSERV
    30                                                      INTERVAL
                                                            COMMENT
PANGA GPS Data Analysis Center                              COMMENT
Department of Geology                                       COMMENT
Central Washington University                               COMMENT
Ellensburg, WA 98926                                        COMMENT
                                                            COMMENT
http://www.panga.cwu.edu                                    COMMENT
ftp://panga.cwu.edu                                         COMMENT
                                                            COMMENT
  1996     9     4     1     0   30.000000                  TIME OF FIRST OBS
  1996     9     5     0    59    0.000000                  TIME OF LAST OBS
    25                                                      # OF SATELLITES
           1   737   737     0   735   735                  PRN / # OF OBS
           2   835   836     0   830   830                  PRN / # OF OBS
           3   909   911     0   894   894                  PRN / # OF OBS
           4   807   810     0   745   745                  PRN / # OF OBS
           5   708   709     0   701   701                  PRN / # OF OBS
           6   768   768     0   759   759                  PRN / # OF OBS
           7   733   733     0   730   730                  PRN / # OF OBS
           9   873   875     0   862   862                  PRN / # OF OBS
          10   894   894     0   876   876                  PRN / # OF OBS
          14   707   707     0   691   691                  PRN / # OF OBS
          15   883   884     0   867   867                  PRN / # OF OBS
          16   893   895     0   864   864                  PRN / # OF OBS
          17   842   842     0   839   839                  PRN / # OF OBS
          18   756   756     0   735   735                  PRN / # OF OBS
          19   839   840     0   837   837                  PRN / # OF OBS
          21   837   837     0   835   835                  PRN / # OF OBS
          22   903   903     0   893   893                  PRN / # OF OBS
          23   786   786     0   784   784                  PRN / # OF OBS
          24   694   694     0   690   690                  PRN / # OF OBS
          25   652   652     0   650   650                  PRN / # OF OBS
          26   937   937     0   929   929                  PRN / # OF OBS
          27   808   808     0   793   793                  PRN / # OF OBS
          28   728     0   729   729   729                  PRN / # OF OBS
          29   837   837     0   835   835                  PRN / # OF OBS
          31   931   931     0   922   922                  PRN / # OF OBS
                                                            END OF HEADER
 96  9  4  1  0 30.0000000  0  6  1 14 15 22 25 29
  11468861.79210  23726002.43800                   9063531.34750  23726008.20340
    -55639.04010  21595036.93000
 -10233371.10810  21004139.78900                  -7360961.48850  21004145.55540
   -587509.63110  24289550.28100                   -334955.36750  24289555.95340
 -12391730.30310  20817788.84400                  -9516497.03250  20817792.98040
  -9483417.15810  22149148.69500                  -7260563.90750  22149153.45340
 96  9  4  1  1  0.0000000  0  6  1 14 15 22 25 29
  11561358.39100  23743604.50000                   9135606.57140  23743610.78140
   -113101.89500  21584102.27300                     -7456.67250  21584107.25440
 -10174544.13200  21015334.11700                  -7315122.30440  21015339.89540
   -670171.39300  24273818.76600                   -399367.05240  24273828.15640
 -12347843.31400  20826140.04700                  -9482299.38040  20826144.27740
  -9523886.48000  22141447.88300                  -7292098.41640  22141452.89840
 96  9  4  1  1 30.0000000  0  6  1 14 15 22 25 29
  11653775.47000  23761191.68800                   9207619.87740  23761197.60540
   -170466.97800  21573186.07800                    -52156.73740  21573191.59840
 -10115267.40800  21026614.10900                  -7268932.66740  21026619.95740
   -753002.24100  24258059.84400                   -463910.44440  24258066.32440
 -12303549.85900  20834569.07000                  -9447785.00140  20834573.23040
  -9564297.31500  22133757.89800                  -7323587.35940  22133763.07840
 96  9  4  1  2  0.0000000  0  6  1 14 15 22 25 29
  11746098.20400  23778759.78100                   9279559.61140  23778766.27340
   -227720.16300  21562291.04700                    -96769.59340  21562296.28540
 -10055542.54600  21037979.39100                  -7222393.83640  21037985.12140
   -835991.11400  24242264.05500                   -528577.05940  24242269.27040
 -12258866.58300  20843071.80500                  -9412966.86540  20843076.08240
  -9604668.50400  22126075.53100                  -7355045.40840  22126080.31340
 96  9  4  1  2 30.0000000  0  6  1 14 15 22 25 29
  11838313.95400  23796307.33600                   9351416.02240  23796313.16040
   -284866.98400  21551416.31300                   -141299.56740  21551421.59840
  -9995362.68100  21049431.21900                  -7175500.45740  21049437.12540
   -919126.71100  24226446.25800                   -593357.91740  24226451.01640
 -12213817.50300  20851644.32800                  -9377863.68640  20851648.46540
  -9645000.85100  22118400.34400                  -7386473.18740  22118405.05540
 96  9  4  1  3  0.0000000  0  6  1 14 15 22 25 29
  11930414.32600  23813834.39100                   9423182.51140  23813840.54340
   -341916.91300  21540560.03900                   -185754.04240  21540565.41840
  -9934723.12700  21060970.71900                  -7128248.87240  21060976.50840
  -1002388.79100  24210601.56300                   -658237.39240  24210610.28540
 -12168423.67100  20860282.59400                  -9342491.87040  20860286.87140
  -9685302.68900  22110731.25800                  -7417877.19140  22110735.96940
 96  9  4  1  3 30.0000000  0  6  1 14 15 22 25 29
  12022401.12800  23831338.33600                   9494860.49940  23831344.28940
   -398874.37800  21529721.38300                   -230136.46640  21529726.63340
  -9873625.27200  21072597.36700                  -7080640.17540  21072603.08640
  -1085768.92500  24194735.13300                   -723208.88740  24194742.69540
 -12122709.38000  20868981.74200                  -9306870.34440  20868985.98440
  -9725564.79200  22103069.42200                  -7449250.22940  22103074.22740
 96  9  4  1  4  0.0000000  0  6  1 14 15 22 25 29
  12114260.29300  23848818.54700                   9566439.01940  23848824.64140
   -455749.62400  21518898.40600                   -274454.81940  21518903.75040
  -9812086.62000  21084307.60200                  -7032687.99540  21084313.52040
  -1169277.13900  24178842.46900                   -788280.09040  24178851.63740
 -12076700.29600  20877736.90600                  -9271019.10840  20877741.13740
  -9765782.31000  22095416.35900                  -7480588.52740  22095421.04740
 96  9  4  1  4 30.0000000  0  5  1 15 22 25 29
  12206020.06100  23866280.18000                   9637940.13240  23866285.98040
  -9750094.50800  21096104.41400                  -6984382.47040  21096110.20340
  -1252904.55000  24162929.43000                   -853444.27740  24162934.56340
 -12030360.76200  20886555.14100                  -9234910.38240  20886559.33640
  -9805916.96800  22087778.95300                  -7511862.26340  22087783.91040
 96  9  4  1  5  0.0000000  0  6  1 14 15 22 25 29
  12297689.53200  23883724.82800                   9709370.82840  23883729.27040
    -43454.24310  21497304.12500
  -9687653.11800  21107986.65600                  -6935726.85440  21107992.44540
  -1336666.33700  24146990.38300                   -918713.13240  24146998.07440
 -11983660.22500  20895442.03100                  -9198520.35440  20895446.19140
  -9845964.36300  22080158.24200                  -7543068.00140  22080163.09440
 96  9  4  1  5 30.0000000  0  6  1 14 15 22 25 29
  12389283.66500  23901153.49200                   9780742.86840  23901158.94140
   -100017.98600  21486540.43800                    -33780.31450  21486545.62940
  -9624753.84900  21119955.85900                  -6886714.45240  21119961.76640
  -1420549.92900  24131027.35900                   -984076.94040  24131032.96140
 -11936578.76800  20904401.14100                  -9161833.50740  20904405.30140
  -9885906.26600  22072557.46900                  -7574191.53440  22072562.10940
 96  9  4  1  6  0.0000000  0  6  1 14 15 22 25 29
  12480803.93100  23918569.96100                   9852057.33540  23918576.69940
   -156435.45900  21475804.35200                    -77741.96840  21475809.62540
  -9561392.48600  21132013.24200                  -6837341.97540  21132019.18440
  -1504538.25400  24115043.84400                  -1049522.28440  24115051.37140
 -11889094.47700  20913437.14800                  -9124832.76140  20913441.36740
  -9925748.30300  22064975.82000                  -7605237.25240  22064980.54340
 96  9  4  1  6 30.0000000  0  6  1 14 15 22 25 29
  12572252.63300  23935973.04700                   9923316.02840  23935979.50440
   -212692.89900  21465098.97700                   -121578.91840  21465104.46140
  -9497568.61400  21144158.40600                  -6787609.10140  21144164.30140
  -1588629.82000  24099043.64800                  -1115048.07640  24099050.10540
 -11841190.50700  20922553.14100                  -9087504.99340  20922557.20740
  -9965505.38300  22057410.38300                  -7636216.76840  22057415.04740
 96  9  4  1  7  0.0000000  0  6  1 14 15 22 25 29
  12663625.01800  23953359.46100                   9994515.25340  23953364.30140
   -268772.22300  21454427.43000                   -165277.08340  21454432.85540
  -9433279.66700  21156392.34400                  -6737513.83140  21156398.28540
  -1672804.67200  24083023.57000                  -1180638.84740  24083029.37140
 -11792885.25100  20931745.26600                  -9049864.53840  20931749.46140
 -10005184.13700  22049859.61700                  -7667135.25440  22049864.41040
 96  9  4  1  7 30.0000000  0  6  1 14 15 22 25 29
  12754916.64200  23970731.73400                  10065651.57440  23970738.19140
   -324671.35000  21443790.06300                   -208834.82840  21443795.37140
  -9368523.53800  21168714.97700                  -6687054.52340  21168720.87140
  -1757043.99900  24066992.83600                  -1246279.80240  24066999.65640
 -11744195.74400  20941010.43000                  -9011924.66340  20941014.66040
 -10044788.88800  22042322.83600                  -7697996.07140  22042327.54740
 96  9  4  1  8  0.0000000  0  6  1 14 15 22 25 29
  12846125.13600  23988088.09400                  10136723.10540  23988093.78940
   -380425.89400  21433180.25000                   -252279.91840  21433185.66440
  -9303312.99200  21181124.32000                  -6636241.12240  21181130.25040
  -1841374.55200  24050945.79700                  -1311991.85540  24050952.82040
 -11695122.32800  20950348.84400                  -8973685.64240  20950353.01640
 -10084342.31700  22034796.41400                  -7728816.89040  22034801.47740
 96  9  4  1  8 30.0000000  0  6  1 14 15 22 25 29
  12937264.10500  24005431.41400                  10207740.43840  24005437.30940
   -436048.56200  21422595.80500                   -295622.24140  21422601.24240
  -9237646.86600  21193620.18800                  -6585072.72840  21193626.03540
  -1925802.35400  24034879.43800                  -1377779.67940  24034885.09840
 -11645671.14100  20959759.13300                  -8935152.25740  20959763.31640
 -10123836.80200  22027280.63300                  -7759591.78140  22027285.46140
 96  9  4  1  9  0.0000000  0  6  1 14 15 22 25 29
  13028316.01600  24022757.91400                  10278689.95140  24022763.66840
   -491562.00400  21412032.01600                   -338879.45740  21412037.28940
  -9171541.23900  21206199.34400                  -6533561.86640  21206205.28540
  -2010336.04700  24018794.80500                  -1443650.02140  24018801.54340
 -11595870.19000  20969235.66400                  -8896346.32340  20969239.89540
 -10163274.32200  22019775.57000                  -7790322.29140  22019780.28140
 96  9  4  1  9 30.0000000  0  6  1 14 15 22 25 29
  13119292.16600  24040070.07800                  10349580.39340  24040076.03140
   -546959.67300  21401489.92200                   -382046.45740  21401495.33640
  -9104987.53200  21218864.36700                  -6481701.84840  21218870.35540
  -2094963.12400  24002691.57000                  -1509593.11740  24002697.28940
 -11545698.22000  20978783.32000                  -8857251.28440  20978787.69140
 -10202640.33200  22012284.75000                  -7820997.06740  22012289.16840
 96  9  4  1 10  0.0000000  0  6  1 14 15 22 25 29
  13210181.72100  24057365.81300                  10420403.40140  24057371.52040
   -602246.18500  21390969.39100                   -425126.84540  21390974.80540
  -9038005.17100  21231610.66400                  -6429507.81640  21231616.51240
  -2179689.66700  23986566.35900                  -1575613.73840  23986573.09840
 -11495174.51000  20988397.67200                  -8817882.16440  20988401.94940
 -10241936.49800  22004806.87500                  -7851617.42540  22004811.71540
 96  9  4  1 10 30.0000000  0  6  1 14 15 22 25 29
  13300972.19500  24074643.85900                  10491149.21240  24074649.88340
   -657404.27500  21380473.19500                   -468107.15940  21380478.44540
  -8970601.14300  21244437.14100                  -6376985.21540  21244442.96540
  -2264496.82700  23970429.51600                  -1641697.17040  23970437.38340
 -11444324.38000  20998074.13300                  -8778258.68840  20998078.49240
 -10281157.26100  21997343.65600                  -7882179.02740  21997348.29740
 96  9  4  1 11  0.0000000  0  6  1 14 15 22 25 29
  13391663.93000  24091900.68000                  10561818.06540  24091906.85540
   -712399.63400  21370007.87500                   -510960.67640  21370013.32440
  -8902769.17300  21257345.36700                  -6324129.14840  21257351.40240
  -2349368.69300  23954277.28900                  -1707830.97440  23954285.50840
 -11393135.55200  21007815.07800                  -8738371.28840  21007819.42640
 -10320297.85000  21989895.38300                  -7912678.15340  21989900.27040
 96  9  4  1 11 30.0000000  0  6  1 14 15 22 25 29
  13482261.59300  24109141.00000                  10632413.62940  24109146.20340
   -767232.93500  21359573.34400                   -553687.91540  21359578.64140
  -8834518.78800  21270332.86700                  -6270947.04740  21270338.65640
  -2434313.16200  23938115.14100                  -1774021.42440  23938121.69140
 -11341609.84500  21017620.19500                  -8698221.39240  21017624.44940
 -10359373.99800  21982459.19500                  -7943127.07540  21982463.93040
 96  9  4  1 12  0.0000000  0  6  1 14 15 22 25 29
  13572770.66600  24126364.13300                  10702940.11640  24126369.05540
   -821896.94800  21349171.17200                   -596283.23240  21349176.56340
  -8765854.25900  21283399.27300                  -6217442.23540  21283405.21540
  -2519340.31800  23921932.75000                  -1840276.31740  23921939.98440
 -11289755.53400  21027487.54700                  -8657815.43440  21027491.84840
 -10398384.90500  21975035.66400                  -7973525.16040  21975040.34040
 96  9  4  1 12 30.0000000  0  6  1 14 15 22 25 29
  13663200.84900  24143572.06300                  10773405.19440  24143577.77040
   -876378.29100  21338803.73400                   -638736.22540  21338809.03140
  -8696762.16000  21296547.01600                  -6163604.25840  21296552.92240
  -2604443.98200  23905738.67200                  -1906590.78340  23905744.70740
 -11237552.63900  21037421.44500                  -8617137.85640  21037425.73440
 -10437324.86400  21967625.82000                  -8003867.96440  21967630.57840
 96  9  4  1 13  0.0000000  0  6  1 14 15 22 25 29
  13753538.04500  24160762.87500                  10843797.78540  24160768.11340
   -930700.26400  21328466.82800                   -681065.02940  21328472.12540
  -8627261.81500  21309772.39800                  -6109448.16340  21309778.34040
  -2689644.17100  23889525.32000                  -1972980.47040  23889532.10540
 -11185001.44500  21047421.69500                  -8576188.87240  21047426.07840
 -10476212.18600  21960225.76600                  -8034169.75540  21960230.43040
 96  9  4  1 13 30.0000000  0  6  1 14 15 22 25 29
  13843787.49000  24177936.64800                  10914122.01340  24177942.97740
   -984871.25000  21318158.35900                   -723276.18240  21318163.75040
  -8557348.62100  21323076.43800                  -6054970.36940  21323082.40240
  -2774916.65200  23873299.80500                  -2039426.48140  23873306.87540
 -11132097.02000  21057489.07000                  -8534964.64640  21057493.46540
 -10515033.23600  21952838.26600                  -8064419.90540  21952843.01240
 96  9  4  1 14  0.0000000  0  6  1 14 15 22 25 29
  13933932.12500  24195090.52300                  10984364.54240  24195097.07440
  -1038905.08100  21307875.97700                   -765380.46140  21307881.14540
  -8487028.51200  21336458.05500                  -6000175.50040  21336463.86740
  -2860260.54400  23857058.70300                  -2105928.19440  23857065.07840
 -11078845.43700  21067622.35200                  -8493469.90640  21067626.67640
 -10553793.40000  21945462.52300                  -8094622.61540  21945467.03540
 96  9  4  1 14 30.0000000  0  6  1 14 15 22 25 29
  14023962.09700  24212222.86700                  11054517.73240  24212229.11340
  -1092806.22500  21297618.91400                   -807381.34840  21297624.15240
  -8416302.18300  21349916.85200                  -5945064.08940  21349922.78140
  -2945652.64800  23840808.03900                  -2172467.41540  23840814.23840
 -11025242.93400  21077822.43800                  -8451701.71940  21077826.79740
 -10592494.16800  21938097.89800                  -8124779.04240  21938102.50440
 96  9  4  1 15  0.0000000  0  6  1 14 15 22 25 29
  14113882.40900  24229334.82800                  11124585.47840  24229340.65240
  -1146570.95100  21287387.85200                   -849275.93740  21287393.04340
  -8345170.55800  21363452.61700                  -5889636.87340  21363458.51240
  -3031076.10600  23824554.43800                  -2239031.05440  23824560.22740
 -10971295.55300  21088088.47700                  -8409664.80140  21088092.73040
 -10631126.85100  21930746.45300                  -8154882.41540  21930751.05940
 96  9  4  1 15 30.0000000  0  6  1 14 15 22 25 29
  14203688.85700  24246423.58600                  11194564.51340  24246430.43040
  -1200181.51100  21277185.96900                   -891050.40040  21277191.24240
  -8273626.30500  21377067.13300                  -5833888.12740  21377072.80540
  -3116524.83500  23808293.40600                  -2305614.41840  23808299.09040
 -10917020.82700  21098416.68800                  -8367372.80940  21098421.00040
 -10669672.30600  21923411.49200                  -8184917.81540  21923415.89840
 96  9  4  1 16  0.0000000  0  6  1 14 15 22 25 29
  14293380.88300  24263492.02300                  11264454.37740  24263498.05940
  -1253630.22000  21267015.07800                   -932698.74440  21267020.23440
  -8201676.95600  21390758.69500                  -5777823.71940  21390764.67240
  -3202017.21400  23792025.72700                  -2372231.83340  23792031.91440
 -10862425.71200  21108805.54700                  -8324831.15740  21108809.84840
 -10708144.66300  21916090.32800                  -8214896.25740  21916095.06340
 96  9  4  1 16 30.0000000  0  6  1 14 15 22 25 29
  14382971.28300  24280540.24200                  11334265.02040  24280545.69140
  -1306895.38100  21256879.10900                   -974204.06840  21256884.44140
  -8129326.50900  21404526.46900                  -5721446.76640  21404532.36340
  -3287551.42400  23775748.03100                  -2438881.76640  23775753.84440
 -10807518.17300  21119254.19500                  -8282046.06040  21119258.61340
 -10746540.90000  21908783.87500                  -8244815.38540  21908788.60940
 96  9  4  1 17  0.0000000  0  6  1 14 15 22 25 29
  14472471.70100  24297572.28100                  11404005.58140  24297577.47340
  -1359975.30300  21246778.07800                  -1015565.05040  21246783.35240
  -8056575.26900  21418370.70300                  -5664757.51740  21418376.63340
  -3373138.08700  23759461.81300                  -2505572.59240  23759468.35240
 -10752302.72000  21129761.44500                  -8239021.03640  21129765.84040
 -10784874.18300  21901489.14800                  -8274685.46540  21901493.64840
 96  9  4  1 17 30.0000000  0  6  1 14 15 22 25 29
  14561875.83300  24314584.64100                  11473671.10940  24314589.44540
  -1412879.02900  21236710.94500                  -1056788.73240  21236716.34840
  -7983432.93700  21432289.31300                  -5607763.51740  21432295.34840
  -3458791.38700  23743162.36700                  -2572315.37340  23743168.90640
 -10696778.92600  21140327.28900                  -8195755.74540  21140331.69540
 -10823170.86000  21894201.68000                  -8304527.00840  21894206.39140
 96  9  4  1 18  0.0000000  0  6  1 14 15 22 25 29
  14651202.54900  24331582.69500                  11543276.34340  24331589.22340
  -1465604.61400  21226677.76600                  -1097873.60240  21226682.96940
  -7909899.09000  21446282.24200                  -5550464.43840  21446288.02040
  -3544501.54700  23726851.93000                  -2639102.42240  23726859.07040
 -10640919.85700  21150956.84400                  -8152229.19940  21150961.22740
 -10861442.71400  21886918.54700                  -8334349.21340  21886923.29340
 96  9  4  1 18 30.0000000  0  6  1 14 15 22 25 29
  14740457.63300  24348568.35200                  11612825.70340  24348574.45740
  -1518143.77100  21216679.84400                  -1138813.20640  21216685.00040
  -7835961.76600  21460352.16400                  -5492850.96740  21460358.11740
  -3630252.22500  23710533.36700                  -2705921.11540  23710540.04740
 -10584708.60900  21161653.37500                  -8108428.22640  21161657.93440
 -10899667.31300  21879644.84400                  -8364134.59740  21879649.44940
 96  9  4  1 19  0.0000000  0  6  1 14 15 22 25 29
  14829609.60300  24365532.85200                  11682294.77740  24365539.20340
  -1570518.34000  21206713.07000                  -1179624.55640  21206718.33240
  -7761640.21700  21474494.91400                  -5434938.09140  21474500.97340
  -3716065.62000  23694203.85200                  -2772788.61140  23694211.07440
 -10528157.05600  21172415.00800                  -8064362.08540  21172419.34440
 -10937852.52600  21872378.41400                  -8393889.29040  21872383.03140
 96  9  4  1 19 30.0000000  0  6  1 14 15 22 25 29
  14918666.10500  24382479.68000                  11751689.36940  24382486.13740
  -1622713.07900  21196780.93000                  -1220295.77540  21196786.30940
  -7686927.97600  21488712.20300                  -5376720.78740  21488718.14540
  -3801934.76600  23677863.82800                  -2839699.56140  23677870.34440
 -10471261.36800  21183241.85200                  -8020027.78340  21183246.15240
 -10975962.71000  21865126.32000                  -8423585.52140  21865131.05540
 96  9  4  1 20  0.0000000  0  6  1 14 15 22 25 29
  15007615.53600  24399406.44500                  11821000.63240  24399410.74640
  -1674727.67800  21186882.94500                  -1260826.62940  21186888.16040
  -7611829.43000  21503003.16400                  -5318202.46440  21503009.10540
  -3887850.81700  23661514.98400                  -2906647.05940  23661521.32440
 -10414040.61300  21194130.68000                  -7975440.18440  21194135.03940
 -11013977.04500  21857892.32800                  -8453207.05940  21857896.86340
 96  9  4  1 20 30.0000000  0  6  1 14 15 22 25 29
  15096459.52700  24416313.17200                  11890229.61540  24416319.78140
  -1726551.90800  21177020.90600                  -1301209.14140  21177026.18040
  -7536340.15600  21517368.41400                  -5259379.67940  21517374.20340
  -3973797.84300  23645159.91400                  -2973618.71440  23645166.99640
 -10356507.52400  21205078.70300                  -7930609.20840  21205083.13340
 -11051876.78300  21850680.28900                  -8482739.30340  21850684.81340
 96  9  4  1 21  0.0000000  0  6  1 14 15 22 25 29
  15185229.07400  24433204.94500                  11959400.69740  24433211.05140
  -1778154.26500  21167201.58600                  -1341418.76340  21167207.00040
  -7460443.15900  21531810.95300                  -5200239.18440  21531816.75440
  -4059738.65800  23628805.35900                  -3040585.51540  23628810.45740
 -10298654.74700  21216088.01600                  -7885529.12340  21216092.30540
 -11089648.32400  21843492.55500                  -8512171.66240  21843497.04340
 96  9  4  1 21 30.0000000  0  6  1 14 15 22 25 29
  15273910.92400  24450081.60900                  12028503.40540  24450086.56640
  -1829550.68100  21157420.88300                  -1381467.91040  21157426.20340
  -7384154.12600  21546328.35900                  -5140793.20640  21546334.39540
  -4145654.53500  23612455.05500                  -3107532.88240  23612462.48840
 -10240502.45200  21227153.98400                  -7840215.65240  21227158.25040
 -11127331.00800  21836321.64800                  -8541534.77040  21836326.26640
 96  9  4  1 22  0.0000000  0  6  1 14 15 22 25 29
  15362503.48400  24466939.48400                  12097536.54340  24466945.07440
  -1880733.44500  21147681.07000                  -1421350.57640  21147686.37940
  -7307475.31800  21560919.93800                  -5081043.51140  21560925.79740
  -4231520.94100  23596114.30500                  -3174441.71340  23596119.94140
 -10182034.77900  21238279.86700                  -7794656.43040  21238284.12140
 -11164947.32000  21829163.58600                  -8570846.17440  21829168.13340
 96  9  4  1 22 30.0000000  0  6  1 14 15 22 25 29
  15451034.80500  24483786.95300                  12166521.96740  24483792.64840
  -1931682.50900  21137986.14800                  -1461051.13640  21137991.42240
  -7230393.51600  21575588.07800                  -5020979.79440  21575593.89140
  -4317325.43700  23579787.53900                  -3241302.30640  23579794.57440
 -10123219.95800  21249471.94500                  -7748826.70340  21249476.08240
 -11202504.72700  21822016.61700                  -8600111.67440  21822021.31640
 96  9  4  1 23  0.0000000  0  6  1 14 15 22 25 29
  15539507.49400  24500621.72700                  12235461.67840  24500628.65640
  -1982400.75100  21128334.48400                  -1500571.82640  21128339.89840
  -7152910.20100  21590332.73400                  -4960603.20640  21590338.73440
  -4403063.31100  23563473.18000                  -3308110.95540  23563479.16840
 -10064054.84200  21260730.79700                  -7702724.01940  21260734.96940
 -11240010.31300  21814879.68000                  -8629336.79040  21814884.22740
 96  9  4  1 23 30.0000000  0  6  1 14 15 22 25 29
  15627905.94100  24517444.46900                  12304343.56140  24517449.96540
  -2032896.17500  21118725.66400                  -1539918.89240  21118730.73840
  -7075035.51900  21605151.76600                  -4899921.65640  21605157.83640
  -4488753.74600  23547166.27300                  -3374882.66040  23547171.94540
 -10004547.56300  21272054.79700                  -7656354.71240  21272059.07440
 -11277467.14300  21807751.64100                  -8658523.90740  21807756.10540
 96  9  4  1 24  0.0000000  0  6  1 14 15 22 25 29
  15716233.96700  24534251.71100                  12373170.57140  24534259.60240
  -2083152.42300  21109162.14800                  -1579079.58440  21109167.45740
  -6996765.39700  21620045.94500                  -4838931.97640  21620051.85240
  -4574410.79100  23530865.39100                  -3441628.32440  23530871.82440
  -9944690.40000  21283444.93800                  -7609712.76940  21283449.21540
 -11314832.73700  21800641.34400                  -8687639.94040  21800645.99640
 96  9  4  1 24 30.0000000  0  6  1 14 15 22 25 29
  15804478.11100  24551044.68000                  12441932.21440  24551050.66840
  -2133183.05700  21099641.60900                  -1618064.47740  21099646.95340
  -6918112.80200  21635013.36700                  -4777644.26640  21635019.30940
  -4660053.95500  23514569.32000                  -3508363.18140  23514575.41440
  -9884508.62200  21294897.29700                  -7562817.88140  21294901.44540
 -11352097.48200  21793550.01600                  -8716677.39140  21793554.43440
 96  9  4  1 25  0.0000000  0  6  1 14 15 22 25 29
  15892623.37600  24567818.70300                  12510616.81640  24567825.00840
  -2182996.81900  21090162.55500                  -1656880.37240  21090167.85240
  -6839091.00400  21650050.65600                  -4716068.85940  21650056.65640
  -4745683.37300  23498273.39800                  -3575087.34540  23498278.49640
  -9824027.45300  21306406.47700                  -7515689.70240  21306410.77740
 -11389258.58800  21786478.28900                  -8745634.08140  21786482.94140
 96  9  4  1 25 30.0000000  0  6  1 14 15 22 25 29
  15980664.21400  24584572.45300                  12579220.02440  24584577.63340
  -2232593.39700  21080724.44500                  -1695527.03940  21080729.60240
  -6759701.14700  21665157.87500                  -4654206.65540  21665163.80540
  -4831299.56800  23481981.02300                  -3641801.20640  23481987.36340
  -9763237.83500  21317974.48400                  -7468321.17040  21317978.83240
 -11426301.41900  21779429.25800                  -8774498.61240  21779433.68840
 96  9  4  1 26  0.0000000  0  6  1 14 15 22 25 29
  16068604.40600  24601306.02300                  12647744.81140  24601312.73840
  -2281979.68900  21071326.40600                  -1734009.84340  21071331.63340
  -6679945.86500  21680334.78900                  -4592059.70740  21680340.77740
  -4916897.71300  23465691.82800                  -3708500.96540  23465697.89840
  -9702130.46200  21329602.72700                  -7420705.03640  21329606.94540
 -11463226.61000  21772402.70300                  -8803271.47040  21772407.32040
 96  9  4  1 26 30.0000000  0  6  1 14 15 22 25 29
  16156463.28300  24618025.95300                  12716206.25540  24618031.98840
  -2331158.61100  21061968.18000                  -1772331.06440  21061973.43040
  -6599822.01900  21695581.90600                  -4529625.56340  21695587.78940
  -5002469.17600  23449408.75800                  -3775179.98240  23449414.41840
  -9640701.79000  21341292.34400                  -7372838.53940  21341296.62140
 -11500065.29300  21765392.53100                  -8831976.92140  21765397.04340
 96  9  4  1 27  0.0000000  0  6  1 14 15 22 25 29
  16244219.78100  24634724.21900                  12784587.89340  24634729.99640
  -2380136.87900  21052647.80500                  -1810495.93240  21052652.94940
  -6519350.62100  21710895.22700                  -4466920.60740  21710901.05140
  -5088030.78600  23433125.93000                  -3841851.27540  23433132.00040
  -9578963.13600  21353040.42200                  -7324730.50240  21353044.64140
 -11536849.75500  21758392.75800                  -8860640.11740  21758397.15240
 96  9  4  1 27 30.0000000  0  6  1 14 15 22 25 29
  16331873.10000  24651404.35900                  12852889.19640  24651411.10940
  -2428911.22300  21043366.27300                  -1848501.90240  21043371.44140
  -6438539.15300  21726273.35200                  -4403950.65340  21726279.31640
  -5173600.94700  23416843.46900                  -3908529.26540  23416850.26640
  -9516911.10100  21364848.67200                  -7276378.27040  21364852.86740
 -11573582.94900  21751402.60200                  -8889263.37040  21751407.17240
 96  9  4  1 28  0.0000000  0  6  1 14 15 22 25 29
  16419446.84100  24668068.94500                  12921128.40440  24668076.70740
  -2477441.67700  21034131.41400                  -1886317.82940  21034136.66440
  -6357373.50200  21741718.57000                  -4340704.71140  21741724.55940
  -5259157.44800  23400561.71900                  -3975196.60540  23400567.67240
  -9454544.53400  21376716.80500                  -7227780.94640  21376720.93040
 -11610270.05600  21744421.33600                  -8917850.70540  21744425.70740
 96  9  4  1 28 30.0000000  0  6  1 14 15 22 25 29
  16506925.91300  24684717.00800                  12989293.94240  24684721.47340
  -2525727.19900  21024942.83600                  -1923942.90340  21024948.12140
  -6275870.52500  21757228.12500                  -4277195.91240  21757234.00840
  -5344711.19300  23384280.85900                  -4041861.79440  23384287.31640
  -9391895.21200  21388638.42200                  -7178963.29740  21388642.62940
 -11646922.88500  21737446.62500                  -8946411.33440  21737451.06640
 96  9  4  1 29  0.0000000  0  6  1 14 15 22 25 29
  16594321.88400  24701346.71900                  13057394.63940  24701352.47340
  -2573748.11900  21015804.60200                  -1961361.79640  21015809.73440
  -6194017.31200  21772804.25800                  -4213414.21940  21772810.24640
  -5430236.40000  23368007.25800                  -4108504.74840  23368012.43840
  -9328955.45300  21400615.48400                  -7129919.33540  21400619.82040
 -11683498.56300  21730486.46900                  -8974911.85340  21730490.81640
 96  9  4  1 29 30.0000000  0  6  1 14 15 22 25 29
  16681640.06400  24717963.42200                  13125434.72740  24717969.48040
  -2621524.74400  21006713.00000                  -1998590.33340  21006718.21540
  -6111823.43600  21788445.11700                  -4149367.06340  21788451.11740
  -5515722.98400  23351738.57000                  -4175117.61340  23351744.32440
  -9265746.43200  21412643.88300                  -7080665.55940  21412648.27740
 -11719995.95300  21723541.10900                  -9003351.36340  21723545.55140
 96  9  4  1 30  0.0000000  0  6  1 14 15 22 25 29
  16768885.65300  24734564.68000                  13193418.28840  24734569.81340
  -2669054.12900  20997668.60900                  -2035626.21440  20997673.77740
  -6029276.70300  21804153.26600                  -4085044.95940  21804159.21940
  -5601132.86000  23335485.67200                  -4241670.70040  23335491.71940
  -9202248.52900  21424727.03900                  -7031186.67840  21424731.27040
 -11756400.43700  21716613.59400                  -9031718.47640  21716617.89540
 96  9  4  1 30 30.0000000  0  6  1 14 15 22 25 29
  16856062.52900  24751155.10900                  13261348.29240  24751160.61740
  -2716355.71700  20988667.46900                  -2072484.59340  20988672.67240
  -5946379.04000  21819928.16400                  -4020449.41340  21819934.22340
  -5686461.12800  23319249.15600                  -4308160.20240  23319255.80140
  -9138454.76600  21436866.60200                  -6981477.26540  21436870.80940
 -11792693.63800  21709707.31300                  -9059998.87740  21709711.71940
 96  9  4  1 31  0.0000000  0  6  1 14 15 22 25 29
  16943173.63300  24767731.18000                  13329227.04140  24767736.13740
  -2763427.86600  20979709.84400                  -2109164.18640  20979715.08240
  -5863133.08700  21835769.38300                  -3955582.45740  21835775.14840
  -5771691.00000  23303030.72700                  -4374573.05140  23303036.42240
  -9074356.76000  21449064.00000                  -6931530.76940  21449068.24240
 -11828876.94000  21702821.62500                  -9088193.63940  21702826.14840
 96  9  4  1 31 30.0000000  0  6  1 14 15 22 25 29
  17030223.40500  24784296.00000                  13397057.99640  24784302.38740
  -2810251.76800  20970799.75800                  -2145650.34140  20970804.93840
  -5779535.03700  21851677.52300                  -3890441.14440  21851683.47740
  -5856820.21600  23286830.58600                  -4440907.42340  23286836.73840
  -9009942.05800  21461321.78900                  -6881337.50240  21461326.03140
 -11864953.09800  21695956.49200                  -9116304.91940  21695960.92240
 96  9  4  1 32  0.0000000  0  6  1 14 15 22 25 29
  17117194.09900  24800846.50000                  13464827.34340  24800855.65640
  -2856824.59800  20961937.11700                  -2181940.85640  20961942.27340
  -5695604.83100  21867649.02300                  -3825041.00840  21867654.77740
  -5941872.24000  23270646.05500                  -4507181.67240  23270652.19540
  -8945238.54400  21473634.51600                  -6830919.18840  21473638.75840
 -11900945.63800  21689107.52300                  -9144351.04140  21689111.95340
 96  9  4  1 32 30.0000000  0  6  1 14 15 22 25 29
  17204100.22800  24817384.99200                  13532546.39540  24817390.13740
  -2903128.65300  20953125.71100                  -2218021.93640  20953130.99640
  -5611341.56300  21883683.83600                  -3759381.34640  21883689.89540
  -6026838.67300  23254476.28900                  -4573389.23640  23254482.47740
  -8880261.81500  21485999.28100                  -6780287.98040  21486003.55940
 -11936857.45200  21682273.77300                  -9172334.26140  21682278.19140
 96  9  4  1 33  0.0000000  0  6  1 14 15 22 25 29
  17290932.22500  24833908.11700                  13600207.75640  24833915.09440
  -2949151.26400  20944367.93800                  -2253883.70740  20944373.23440
  -5526746.93100  21899781.81300                  -3693463.47340  21899787.69540
  -6111704.45900  23238326.43800                  -4639518.35340  23238332.68440
  -8815011.47200  21498415.89100                  -6729443.56440  21498420.00440
 -11972694.12100  21675453.88300                  -9200258.92240  21675458.45340
 96  9  4  1 33 30.0000000  0  6  1 14 15 22 25 29
  17377680.38400  24850414.81300                  13667803.59440  24850421.46940
  -2994901.55100  20935661.93000                  -2289533.27440  20935667.16840
  -5441823.43300  21915942.03900                  -3627289.34140  21915948.00440
  -6196473.37300  23222197.63300                  -4705572.00540  23222203.34040
  -8749491.26000  21510883.89100                  -6678388.85740  21510888.16840
 -12008463.38300  21668647.77300                  -9228131.06340  21668652.29740
 96  9  4  1 34  0.0000000  0  5 14 15 22 25 29
  -3040387.23500  20927006.12500                  -2324976.66440  20927011.21140
  -5356570.92400  21932165.03100                  -3560858.84240  21932170.91440
  -6281126.32800  23206088.13300                  -4771535.28840  23206094.46140
  -8683698.18300  21523404.02300                  -6627121.53240  21523408.23040
 -12044162.38900  21661854.27300                  -9255948.46440  21661858.64540
 96  9  4  1 34 30.0000000  0  5 14 15 22 25 29
  -3085620.42200  20918398.76600                  -2360223.29340  20918403.98040
  -5270991.74100  21948450.23400                  -3494173.79140  21948456.28140
  -6365661.07900  23190001.18800                  -4837406.45540  23190007.05940
  -8617612.97800  21535979.59400                  -6575626.57540  21535983.75440
 -12079779.87900  21655076.43000                  -9283702.34440  21655080.78940
 96  9  4  1 35  0.0000000  0  5 14 15 22 25 29
  -3130600.54300  20909839.28900                  -2395272.72940  20909844.53940
  -5185091.97400  21964796.67200                  -3427238.92540  21964802.62540
  -6450099.06300  23173933.53100                  -4903202.24340  23173939.47340
  -8551227.62100  21548612.25800                  -6523897.73040  21548616.43040
 -12115317.99100  21648313.68000                  -9311394.36940  21648317.86340
 96  9  4  1 35 30.0000000  0  5 14 15 22 25 29
  -3175305.75000  20901332.19500                  -2430107.94640  20901337.42240
  -5098859.59600  21981205.82800                  -3360044.89040  21981211.91040
  -6534442.14800  23157882.93000                  -4968924.05840  23157889.00040
  -8484539.49500  21561302.64100                  -6471932.96140  21561306.88340
 -12150759.90500  21641569.41400                  -9339011.43840  21641573.79740
 96  9  4  1 36  0.0000000  0  5 14 15 22 25 29
  -3219717.97000  20892880.71900                  -2464714.85940  20892885.91040
  -5012292.30300  21997679.10200                  -3292589.88840  21997685.09040
  -6618691.72700  23141851.04700                  -5034573.02440  23141857.32840
  -8417549.07700  21574050.40600                  -6419732.63940  21574054.59040
 -12186086.39400  21634846.71100                  -9366538.57040  21634851.24640
 96  9  4  1 36 30.0000000  0  5 14 15 22 25 29
  -3263826.68300  20884487.14800                  -2499085.27240  20884492.35240
  -4925397.41700  22014214.81300                  -3224879.61540  22014220.67240
  -6702859.06400  23125833.71900                  -5100157.88640  23125840.18840
  -8350265.05100  21586854.20300                  -6367303.53240  21586858.30540
 -12221300.11900  21628145.80500                  -9393977.82040  21628150.30540
 96  9  4  1 37  0.0000000  0  5 14 15 22 25 29
  -3307629.38100  20876151.75000                  -2533217.23740  20876157.02340
  -4838185.06200  22030810.74200                  -3156921.95740  22030816.53140
  -6786939.67800  23109833.96100                  -5165675.19640  23109839.60940
  -8282699.72200  21599711.30500                  -6314655.23040  21599715.41840
 -12256416.77900  21621463.28900                  -9421341.44240  21621467.85940
 96  9  4  1 37 30.0000000  0  5 14 15 22 25 29
  -3351120.89500  20867875.68800                  -2567106.71640  20867880.89140
  -4750647.39700  22047468.49200                  -3088710.81340  22047474.44540
  -6870900.48500  23093856.61700                  -5231099.13940  23093862.24240
  -8214858.23600  21612621.37500                  -6261791.73440  21612625.59440
 -12291413.78200  21614803.84400                  -9448611.82640  21614808.22740
 96  9  4  1 38  0.0000000  0  5 14 15 22 25 29
  -3394315.99900  20859655.87500                  -2600765.22640  20859661.04340
  -4662795.96000  22064186.31300                  -3020255.17740  22064192.24240
  -6954732.48700  23077903.96100                  -5296422.70840  23077910.43040
  -8146737.88000  21625584.21100                  -6208710.94140  21625588.54740
 -12326301.58800  21608164.81300                  -9475797.12240  21608169.39540
 96  9  4  1 38 30.0000000  0  5 14 15 22 25 29
  -3437213.20400  20851492.75800                  -2634191.60840  20851497.87940
  -4574635.26100  22080962.74200                  -2951558.55140  22080968.70740
  -7038418.18800  23061978.83600                  -5361632.30040  23061984.78940
  -8078340.08200  21638600.00800                  -6155413.96340  21638604.23840
 -12361090.82500  21601544.39800                  -9502905.60740  21601548.79340
 96  9  4  1 39  0.0000000  0  5 14 15 22 25 29
  -3479824.18700  20843384.22700                  -2667394.95540  20843389.38340
  -4486181.17200  22097795.05500                  -2882633.30840  22097801.02040
  -7121973.69200  23046078.90600                  -5426740.42540  23046085.00040
  -8009689.29100  21651663.64800                  -6101919.83940  21651667.94940
 -12395800.51400  21594939.65600                  -9529952.09840  21594943.93440
 96  9  4  1 39 30.0000000  0  5 14 15 22 25 29
  -3522143.45800  20835331.31300                  -2700371.00240  20835336.51640
  -4397432.57200  22114683.39800                  -2813478.58040  22114689.31640
  -7205406.33800  23030202.36700                  -5491752.82140  23030208.10940
  -7940793.03200  21664774.20300                  -6048234.44240  21664778.43440
 -12430429.00600  21588349.89800                  -9556935.32540  21588354.24640
 96  9  4  1 40  0.0000000  0  5 14 15 22 25 29
  -3564160.91900  20827335.25000                  -2733111.87040  20827340.41840
  -4308393.31200  22131626.71100                  -2744097.35640  22131632.51240
  -7288719.97700  23014348.39100                  -5556672.49240  23014354.26240
  -7871641.15500  21677933.34400                  -5994349.86740  21677937.69140
 -12464991.64600  21581773.02300                  -9583867.23740  21581777.47740
 96  9  4  1 40 30.0000000  0  5 14 15 22 25 29
  -3605874.98300  20819397.51600                  -2765616.32540  20819402.64840
  -4219067.03600  22148624.76600                  -2674492.49240  22148630.73040
  -7371917.53400  22998516.32000                  -5621501.71140  22998522.19140
  -7802240.54800  21691139.67200                  -5940271.47140  21691143.99640
 -12499488.74400  21575208.25800                  -9610748.07540  21575212.71140
 96  9  4  1 41  0.0000000  0  5 14 15 22 25 29
  -3647301.82100  20811514.21900                  -2797896.96540  20811519.36340
  -4129462.63000  22165676.39100                  -2604670.90540  22165682.35540
  -7455014.21800  22982702.89800                  -5686252.32740  22982708.85240
  -7732600.45600  21704391.89100                  -5886006.46540  21704396.14540
 -12533932.42000  21568653.86700                  -9637587.28840  21568658.25040
 96  9  4  1 41 30.0000000  0  5 14 15 22 25 29
  -3688454.70100  20803683.09400                  -2829964.13340  20803688.27340
  -4039590.02400  22182778.12500                  -2534640.32040  22182784.07840
  -7537996.55600  22966912.12500                  -5750913.84240  22966918.50040
  -7662712.00200  21717691.00000                  -5831547.92940  21717695.38340
 -12568314.21300  21562111.08600                  -9664378.27940  21562115.41040
 96  9  4  1 42  0.0000000  0  5 14 15 22 25 29
  -3729346.39000  20795901.58600                  -2861827.77540  20795906.76640
  -3949459.23200  22199929.91400                  -2464408.56540  22199935.91440
  -7620859.78700  22951143.77300                  -5815482.52240  22951149.58640
  -7592569.82100  21731038.87500                  -5776891.68540  21731043.22340
 -12602631.35300  21555581.00800                  -9691118.89240  21555585.36740
 96  9  4  1 42 30.0000000  0  5 14 15 22 25 29
  -3769991.51000  20788167.14100                  -2893499.28740  20788172.37940
  -3859085.10500  22217127.33600                  -2393987.19340  22217133.26640
  -7703614.59500  22935395.95300                  -5879966.74640  22935401.50840
  -7522188.46800  21744431.71900                  -5722049.07040  21744435.96140
 -12636884.00600  21549062.81300                  -9717809.25940  21549067.21940
 96  9  4  1 43  0.0000000  0  5 14 15 22 25 29
  -3810372.24500  20780482.85900                  -2924964.78640  20780488.00440
  -3768461.53700  22234372.60900                  -2323371.45540  22234378.62140
  -7786249.62300  22919671.47700                  -5944357.61240  22919677.11340
  -7451563.87100  21757871.31300                  -5667016.91640  21757875.76640
 -12671056.31000  21542560.18800                  -9744437.01340  21542564.52340
 96  9  4  1 43 30.0000000  0  5 14 15 22 25 29
  -3850475.52900  20772851.60900                  -2956214.09440  20772856.75440
  -3677584.21500  22251665.89800                  -2252557.99440  22251671.78140
  -7868745.32700  22903972.39800                  -6008639.93840  22903978.22340
  -7380685.90100  21771358.89800                  -5611787.33740  21771363.08240
 -12705125.97900  21536076.89100                  -9770984.79340  21536081.27340
 96  9  4  1 44  0.0000000  0  5 14 15 22 25 29
  -3890302.59100  20765272.80500                  -2987248.16340  20765277.92640
  -3586462.80000  22269005.82000                  -2181554.31740  22269011.70340
  -7951109.74200  22888298.90600                  -6072819.95440  22888304.98840
  -7309568.73000  21784892.07800                  -5556371.36340  21784896.46140
 -12739115.69500  21529608.70300                  -9797470.27140  21529613.09840
 96  9  4  1 44 30.0000000  0  5 14 15 22 25 29
  -3929831.27700  20757750.63300                  -3018049.73140  20757755.69540
  -3495091.86200  22286393.08600                  -2110356.21540  22286399.03940
  -8033330.98300  22872652.87500                  -6136888.39040  22872658.93440
  -7238216.70400  21798470.03100                  -5500772.39040  21798474.43840
 -12773030.32100  21523154.88300                  -9823897.24340  21523159.20740
 96  9  4  1 45  0.0000000  0  5 14 15 22 25 29
  -3969052.68600  20750286.95300                  -3048611.86040  20750292.13340
  -3403468.56300  22303828.56300                  -2038961.46840  22303834.41040
  -8115392.23000  22857037.13300                  -6200832.17540  22857043.06340
  -7166637.12500  21812090.89800                  -5444996.09540  21812095.21140
 -12806861.95200  21516717.14100                  -9850259.53740  21516721.45340
 96  9  4  1 45 30.0000000  0  5 14 15 22 25 29
  -4007968.04000  20742881.60900                  -3078935.51140  20742886.71940
  -3311600.51400  22321310.71900                  -1967376.00440  22321316.55540
  -8197294.28700  22841451.32800                  -6264651.88740  22841457.21140
  -7094840.53500  21825753.36700                  -5389050.70440  21825757.69140
 -12840628.14000  21510291.49200                  -9876570.84040  21510295.92240
 96  9  4  1 46  0.0000000  0  5 14 15 22 25 29
  -4046580.85300  20735534.02300                  -3109023.41140  20735539.14540
  -3219507.89500  22338835.13300                  -1895615.56040  22338841.07440
  -8279057.58100  22825892.56300                  -6328363.49340  22825898.30540
  -7022856.03600  21839451.81300                  -5332958.89140  21839456.21940
 -12874359.06200  21503873.02300                  -9902854.65840  21503877.39540
 96  9  4  1 46 30.0000000  0  6 14 15 18 22 25 29
  -4084859.16400  20728249.82000                  -3138850.66440  20728255.04740
  -3127168.05400  22356406.81300                  -1823662.46840  22356412.78940
    -73642.36110  24794202.32000
  -8360660.59600  22810363.95300                  -6391950.20840  22810369.52040
  -6950667.29600  21853188.89100                  -5276707.93140  21853193.12140
 -12908020.58300  21497467.28900                  -9929084.40040  21497471.68440
 96  9  4  1 47  0.0000000  0  6 14 15 18 22 25 29
  -4122812.98600  20721027.24200                  -3168425.06640  20721032.44540
  -3034585.92200  22374024.39100                  -1751520.58840  22374030.42640
   -152582.97100  24779179.75000
  -8442099.97100  22794866.89100                  -6455409.39640  22794872.71540
  -6878284.01900  21866963.03100                  -5220305.38040  21866967.30940
 -12941597.56600  21491077.76600                  -9955248.27540  21491082.14840
 96  9  4  1 47 30.0000000  0  6 14 15 18 22 25 29
  -4160435.73500  20713867.93000                  -3197741.49540  20713873.10940
  -2941755.91800  22391689.88300                  -1679185.55940  22391696.01240
    -28943.84810  24764157.06300
  -8523366.37100  22779402.39100                  -6518733.82740  22779408.07440
  -6805685.95700  21880777.65600                  -5163735.47140  21880782.08640
 -12975098.40300  21484702.70300                  -9981352.81340  21484707.02740
 96  9  4  1 48  0.0000000  0  6 14 15 18 22 25 29
  -4197713.14500  20706774.26600                  -3226788.81940  20706779.49240
  -2848661.99400  22409404.77300                  -1606644.85740  22409410.64540
    -60511.28710  24749135.12500
  -8604431.88900  22763975.84400                  -6581901.70440  22763982.04340
  -6732837.64500  21894640.53900                  -5106970.55540  21894644.74640
 -13008485.69700  21478349.26600                 -10007368.86640  21478353.56640
 96  9  4  1 48 30.0000000  0  6 14 15 18 22 25 29
  -4234675.99700  20699740.40600                  -3255591.03940  20699745.53940
  -2755320.61000  22427167.51600                  -1533911.36740  22427173.35240
   -139457.36400  24734113.96100
  -8685302.01400  22748586.67200                  -6644917.34340  22748592.42640
  -6659748.83800  21908548.77300                  -5050018.24240  21908552.95740
 -13041753.94600  21472018.44500                 -10033292.16640  21472022.81640
 96  9  4  1 49  0.0000000  0  6 14 15 18 22 25 29
  -4271308.61000  20692769.62500                  -3284135.92440  20692774.82840
  -2661722.59100  22444978.38300                  -1460977.87940  22444984.20740
   -218426.90600  24719085.86700
  -8765948.40500  22733240.24200                  -6707758.62640  22733245.92640
  -6586399.67700  21922506.72700                  -4992863.05640  21922511.06340
 -13074894.35700  21465712.14100                 -10059115.84840  21465716.50040
 96  9  4  1 49 30.0000000  0  6 14 15 18 22 25 29
  -4307593.26700  20685864.81300                  -3312409.68640  20685870.00440
  -2567875.07500  22462837.19500                  -1387849.98240  22462842.97340
   -297446.43800  24704049.32800
  -8846377.69200  22717935.00800                  -6770430.75740  22717941.07840
  -6512769.94400  21936517.90600                  -4935489.24340  21936522.21940
 -13107920.37100  21459427.51600                 -10084850.38740  21459431.80540
 96  9  4  1 50  0.0000000  0  6 14 15 18 22 25 29
  -4343523.50000  20679027.40600                  -3340407.26140  20679032.56340
  -2473778.99300  22480742.78100                  -1314528.39440  22480748.82840
   -376536.96800  24688998.37500
  -8926592.51000  22702670.46900                  -6832935.76140  22702676.25840
  -6438874.45500  21950579.53900                  -4877908.34840  21950583.82840
 -13140822.43000  21453166.25000                 -10110488.34240  21453170.52740
 96  9  4  1 50 30.0000000  0  6 14 15 18 22 25 29
  -4379098.13200  20672257.87500                  -3368127.74840  20672262.98440
  -2379438.24700  22498695.82800                  -1241016.16940  22498701.85240
   -455702.68500  24673934.64800
  -9006590.03300  22687447.64800                  -6895271.43440  22687453.62540
  -6364738.38200  21964687.52300                  -4820139.98640  21964691.89540
 -13173622.25900  21446924.84400                 -10136046.63640  21446929.19140
 96  9  4  1 51  0.0000000  0  6 14 15 18 22 25 29
  -4414292.08100  20665560.65600                  -3395551.60040  20665565.77740
  -2284849.03500  22516695.07000                  -1167310.32440  22516701.07040
   -534913.93900  24658859.60900
  -9086359.48900  22672267.62500                  -6957429.41040  22672273.62540
  -6290356.12700  21978841.96900                  -4762179.79040  21978846.50440
 -13206337.61900  21440699.03100                 -10161539.11440  21440703.26240
 96  9  4  1 51 30.0000000  0  6 14 15 18 22 25 29
  -4449113.87100  20658934.39800                  -3422685.45640  20658939.60240
  -2190017.39500  22534741.08600                  -1093415.58240  22534747.42640
   -614158.46600  24643780.37500
  -9165911.33000  22657129.60900                  -7019417.80640  22657135.63340
  -6215742.70400  21993040.25000                  -4704039.46340  21993044.68040
 -13238975.46200  21434488.35200                 -10186971.18440  21434492.67640
 96  9  4  1 52  0.0000000  0  5 14 15 22 25 29
  -4483565.63200  20652378.39800                  -3449530.97940  20652383.48440
  -2094927.31500  22552835.44500                  -1019319.44540  22552841.43440
  -9245206.71300  22642040.04700                  -7081206.35640  22642045.93040
  -6140905.29100  22007281.37500                  -4645724.60340  22007285.68840
 -13271506.03400  21428298.10900                 -10212319.66940  21428302.41040
 96  9  4  1 52 30.0000000  0  5 14 15 22 25 29
  -4517620.30600  20645897.87500                  -3476067.08140  20645903.06640
  -1999567.67800  22570982.44500                   -945013.26840  22570988.39840
  -9324221.98800  22627003.96100                  -7142776.65840  22627009.89140
  -6065813.20900  22021571.05500                  -4587211.29740  22021575.69540
 -13303897.89900  21422134.03100                 -10237560.06940  21422138.37940
 96  9  4  1 53  0.0000000  0  6 14 15 18 22 25 29
  -4551280.76400  20639492.76600                  -3502296.00840  20639497.95740
  -1903963.26800  22589175.04700                   -870516.36940  22589181.24640
    -60712.47810  24598558.41400
  -9402990.48900  22612014.97700                  -7204154.66040  22612020.83640
  -5990465.32500  22035909.01600                  -4528498.66540  22035913.50440
 -13336147.44700  21415997.28900                 -10262689.57940  21416001.46140
 96  9  4  1 53 30.0000000  0  6 14 15 18 22 25 29
  -4584563.12300  20633159.28100                  -3528230.30640  20633164.49640
  -1808131.65500  22607411.38300                   -795842.41840  22607417.21940
   -139920.63200  24583485.18800
  -9481524.48400  22597070.44500                  -7265349.93340  22597076.22340
  -5914882.61100  22050291.76600                  -4469603.04640  22050296.12540
 -13368248.35400  21409888.57800                 -10287703.25840  21409892.92640
 96  9  4  1 54  0.0000000  0  6 14 15 18 22 25 29
  -4617449.80100  20626901.02300                  -3553856.28440  20626906.10940
  -1712068.76200  22625691.82000                   -720988.26140  22625697.85540
   -219133.06700  24568411.99200
  -9559813.37800  22582172.49200                  -7326354.22140  22582178.36340
  -5839055.72300  22064721.46900                  -4410517.16840  22064725.88740
 -13400188.24100  21403810.62500                 -10312591.47240  21403815.06640
 96  9  4  1 54 30.0000000  0  6 14 15 18 22 25 29
  -4649907.17600  20620724.39800                  -3579147.73840  20620729.61340
  -1615757.97400  22644018.75800                   -645940.93040  22644024.80540
   -298343.91100  24553337.63300
  -9637852.32500  22567321.88300                  -7387163.74340  22567327.76640
  -5762963.75000  22079201.40600                  -4351224.72540  22079205.80140
 -13431968.06400  21397763.06300                 -10337354.95740  21397767.29340
 96  9  4  1 55  0.0000000  0  6 14 15 18 22 25 29
  -4681938.93200  20614629.11700                  -3604107.54640  20614634.34440
  -1519193.40100  22662394.52300                   -570695.85840  22662399.94940
   -377557.61500  24538264.60900
  -9715616.35600  22552523.68800                  -7447759.04040  22552529.84040
  -5686624.84900  22093728.10200                  -4291739.87440  22093732.70740
 -13463607.77500  21391742.52300                 -10362009.27040  21391746.81340
 96  9  4  1 55 30.0000000  0  6 14 15 18 22 25 29
  -4713599.42500  20608604.28100                  -3628778.02840  20608609.27340
  -1422406.06700  22680812.25000                   -495277.20040  22680818.26240
   -456792.99100  24523186.53100
  -9793112.20400  22537777.18000                  -7508145.37240  22537783.12140
  -5610093.77300  22108291.64800                  -4232105.27540  22108295.82040
 -13495155.90600  21385738.75800                 -10386592.26440  21385743.35240
 96  9  4  1 56  0.0000000  0  6 14 15 18 22 25 29
  -4744898.45800  20602648.35200                  -3653166.91140  20602653.46140
  -1325398.94000  22699272.51600                   -419687.27340  22699278.35240
   -536044.91700  24508105.75000
  -9870334.91300  22523081.84400                  -7568318.87540  22523087.73840
  -5533370.33900  22122891.51600                  -4172320.78940  22122896.07440
 -13526619.67700  21379751.43800                 -10411109.43340  21379755.64540
 96  9  4  1 56 30.0000000  0  6 14 15 18 22 25 29
  -4775840.23700  20596760.52300                  -3677277.38840  20596765.71540
  -1228174.43000  22717773.64100                   -343927.96240  22717779.79340
   -615315.69500  24493020.22700                    -32941.84350  24493027.12140
  -9947269.35900  22508441.79700                  -7628267.74640  22508447.64540
  -5456456.03500  22137527.85200                  -4112387.56540  22137532.30540
 -13557996.63200  21373780.75000                 -10435558.99540  21373785.10940
 96  9  4  1 57  0.0000000  0  6 14 15 18 22 25 29
  -4806430.60100  20590939.15600                  -3701114.03040  20590944.31340
  -1130741.62900  22736315.50800                   -268006.33940  22736321.26240
   -694590.02300  24477935.21100
 -10023913.01900  22493856.82800                  -7687990.03940  22493862.75840
  -5379349.14600  22152200.91400                  -4052304.28340  22152205.32040
 -13589276.20200  21367828.27300                 -10459932.68040  21367832.50440
 96  9  4  1 57 30.0000000  0  6 14 15 18 22 25 29
  -4836651.60200  20585188.33600                  -3724662.85540  20585193.51640
  -1033095.38100  22754896.08600                   -191918.39540  22754901.92240
   -773858.81700  24462850.10900
 -10100272.94400  22479325.76600                  -7747491.23040  22479331.69540
  -5302018.96600  22166915.84400                  -3992047.00240  22166920.30940
 -13620426.42300  21361900.66400                 -10484205.56640  21361904.98840
 96  9  4  1 58  0.0000000  0  6 14 15 18 22 25 29
  -4866474.96800  20579513.12500                  -3747901.84040  20579518.31640
   -935237.46000  22773518.35900                   -115665.50640  22773524.02040
   -853125.07100  24447766.43800                    -22643.76750  24447771.62940
 -10176359.83000  22464847.27300                  -7806779.68440  22464852.81640
  -5224448.57100  22181677.42200                  -3931602.54940  22181681.54740
 -13651434.41900  21355999.99200                 -10508367.63540  21356004.31640
 96  9  4  1 58 30.0000000  0  6 14 15 18 22 25 29
  -4895867.04100  20573919.96100                  -3770804.75040  20573925.11740
   -837151.03500  22792183.31300                    -39234.56540  22792189.41840
   -932360.71100  24432687.72700                    -84385.77540  24432690.46940
 -10252151.53300  22450424.66400                  -7865838.10240  22450430.54740
  -5146613.77300  22196488.96100                  -3870952.06340  22196493.30940
 -13682282.16300  21350129.98400                 -10532404.82640  21350134.27340
 96  9  4  1 59  0.0000000  0  6 14 15 18 22 25 29
  -4924836.17200  20568407.35200                  -3793378.09340  20568412.47340
   -738854.86800  22810888.55500                     37359.81240  22810894.53140
  -1011579.88300  24417613.35900                   -146114.96540  24417624.54340
 -10327672.98600  22436053.08600                  -7924685.94840  22436058.93440
  -5068540.98600  22211345.70300                  -3810116.12940  22211350.09840
 -13712985.06700  21344287.25800                 -10556329.15840  21344291.59440
 96  9  4  1 59 30.0000000  0  6 14 15 18 22 25 29
  -4953380.49900  20562975.60200                  -3815620.42040  20562980.73440
   -640349.45500  22829633.46100                    114117.23740  22829639.44940
  -1090792.39200  24402540.07800                   -207838.93440  24402550.53540
 -10402922.81100  22421733.34400                  -7983322.13240  22421739.28540
  -4990241.65700  22226245.27300                  -3749103.67240  22226249.68040
 -13743536.18100  21338473.74200                 -10580135.20740  21338478.07840
 96  9  4  2  0  0.0000000  0  6 14 15 18 22 25 29
  -4981507.20400  20557623.10200                  -3837537.33040  20557628.22340
   -541640.02700  22848417.26600                    191033.62440  22848423.44140
  -1169993.78000  24387468.68800                   -269554.17840  24387478.34840
 -10477886.79300  22407468.35900                  -8041735.58240  22407474.18440
  -4911741.16400  22241183.69500                  -3687934.46040  22241188.05540
 -13773945.94900  21332686.78100                 -10603831.12140  21332691.01240
 96  9  4  2  0 30.0000000  0  6 14 15 18 22 25 29
  -5009235.54600  20552346.75000                  -3859143.82640  20552351.87140
   -442739.45200  22867237.55500                    268098.97140  22867243.43840
  -1249199.60500  24372395.89800                   -331273.02540  24372402.09840
 -10552558.79500  22393258.67200                  -8099921.52440  22393264.64840
  -4833059.47100  22256156.34400                  -3626624.05640  22256160.66840
 -13804220.84500  21326925.63300                 -10627421.94040  21326929.91040
 96  9  4  2  1  0.0000000  0  6 14 15 18 22 25 29
  -5036571.11700  20547144.84400                  -3880444.26640  20547149.93040
   -343648.91100  22886093.87500                    345312.34140  22886099.92240
  -1328419.04100  24357320.34400                   -393002.42940  24357326.73040
 -10626940.10300  22379103.97700                  -8157880.94740  22379109.93040
  -4754191.66800  22271164.53100                  -3565168.63640  22271169.13740
 -13834341.34300  21321193.96100                 -10650892.44540  21321198.18040
 96  9  4  2  1 30.0000000  0  6 14 15 18 22 25 29
  -5063531.18500  20542014.53900                  -3901452.10640  20542019.57840
   -244384.77300  22904982.95300                    422660.96940  22904989.32840
  -1407678.24900  24342239.51600                   -454762.79640  24342242.01240
 -10701033.97100  22365004.78100                  -8215616.39640  22365010.77040
  -4675127.66900  22286209.82800                  -3503560.32940  22286214.15240
 -13864322.58800  21315488.71100                 -10674254.44340  21315493.03540
 96  9  4  2  2  0.0000000  0  6 14 15 18 22 25 29
  -5090092.78000  20536960.00000                  -3922149.44840  20536965.10940
   -144944.61300  22923905.81300                    500146.76440  22923911.75440
  -1486973.91000  24327148.75800                   -516551.52940  24327158.43040
 -10774824.29900  22350962.94500                  -8273115.31140  22350968.93440
  -4595852.16400  22301295.68000                  -3441787.21140  22301300.06340
 -13894175.65300  21309807.81300                 -10697516.56140  21309812.05540
 96  9  4  2  2 30.0000000  0  6 14 15 18 22 25 29
  -5116267.15600  20531978.89800                  -3942545.06040  20531984.04340
    -45356.28600  22942856.94500                    577748.01140  22942862.75840
  -1566338.02200  24312046.12500                   -578393.66140  24312050.82440
 -10848346.37700  22336972.01600                  -8330405.20140  22336977.92240
  -4516369.88100  22316420.26600                  -3379852.97640  22316424.59040
 -13923920.68000  21304147.39800                 -10720694.49540  21304151.58240
 96  9  4  2  3  0.0000000  0  6 14 15 18 22 25 29
  -5142027.84700  20527076.96900                  -3962618.32340  20527082.07840
     54392.46200  22961838.89100                    655474.25040  22961845.16040
  -1645747.99600  24296935.25800                   -640271.48140  24296940.54340
 -10921599.47100  22323032.28100                  -8387485.50340  22323038.12940
  -4436671.66100  22331586.43000                  -3317750.47140  22331590.96540
 -13953555.86200  21298508.13300                 -10743786.84040  21298512.57440
 96  9  4  2  3 30.0000000  0  6 14 15 18 22 25 29
  -5167351.19900  20522258.23400                  -3982350.80040  20522263.50840
    154295.04400  22980849.41400                    733320.39840  22980855.71940
  -1725196.73700  24281817.14800                   -702179.54440  24281821.90640
 -10994573.81000  22309145.95300                  -8444348.57940  22309151.89540
  -4356788.11600  22346787.76600                  -3255503.56040  22346791.98440
 -13983108.39900  21292884.43800                 -10766814.77840  21292888.82040
 96  9  4  2  4  0.0000000  0  6 14 15 18 22 25 29
  -5192226.11600  20517524.70300                  -4001733.84840  20517529.88340
    254353.82200  22999890.52300                    811288.23340  22999896.62940
  -1804659.07900  24266694.53100                   -764098.17140  24266698.76240
 -11067260.44200  22295314.21100                  -8500987.47940  22295320.08240
  -4276736.63900  22362020.82800                  -3193125.78440  22362025.10540
 -14012567.16600  21287278.65600                 -10789769.65440  21287282.93440
 96  9  4  2  4 30.0000000  0  6 14 15 18 22 25 29
  -5216666.90500  20512873.60900                  -4020778.61440  20512878.78940
    354567.54100  23018960.39800                    889376.78040  23018966.22340
  -1884118.96000  24251573.78900                   -826014.89440  24251580.17640
 -11139647.22100  22281539.32800                  -8557392.73540  22281545.30540
  -4196528.90200  22377284.01600                  -3130626.25740  22377288.49240
 -14041923.96900  21281692.21900                 -10812645.07340  21281696.41440
 96  9  4  2  5  0.0000000  0  6 14 15 18 22 25 29
  -5240702.21400  20508299.84400                  -4039507.42140  20508305.01240
    454915.25700  23038055.60200                    967569.78040  23038061.76640
  -1963584.45900  24236453.31300                   -887936.05040  24236457.78940
 -11211726.14800  22267823.10200                  -8613558.09740  22267828.78540
  -4116202.83500  22392569.51600                  -3068034.52540  22392573.58240
 -14071213.04100  21276118.68800                 -10835467.71940  21276122.93040
 96  9  4  2  5 30.0000000  0  6 14 15 18 22 25 29
  -5264345.11400  20503800.86700                  -4057930.45640  20503806.05940
    555400.19000  23057177.39100                   1045869.66940  23057183.53140
  -2043049.11500  24221331.10200                   -949856.55740  24221338.58240
 -11283466.04100  22254171.51600                  -8669459.28540  22254177.38740
  -4035742.18900  22407880.55500                  -3005337.91840  22407884.93840
 -14100423.88700  21270560.08600                 -10858229.41040  21270564.27040
 96  9  4  2  6  0.0000000  0  6 14 15 18 22 25 29
  -5287611.24900  20499373.51600                  -4076059.90440  20499378.64840
    656030.43600  23076326.38300                   1124282.79840  23076332.69940
  -2122512.90800  24206209.42200                  -1011776.30540  24206216.69140
 -11354858.55000  22240585.63300                  -8725089.77440  22240591.45740
  -3955113.03500  22423223.89800                  -2942510.01340  22423228.17640
 -14129534.46700  21265020.44500                 -10880912.96940  21265024.68840
 96  9  4  2  6 30.0000000  0  6 14 15 18 22 25 29
  -5310527.16000  20495012.60200                  -4093916.45340  20495017.72340
    756785.01300  23095499.51600                   1202792.81040  23095505.17640
  -2202013.01800  24191081.22700                  -1073724.40640  24191086.72340
 -11425926.27300  22227062.41400                  -8780467.18240  22227068.16840
  -3874332.23400  22438595.85200                  -2879563.93240  22438600.21140
 -14158564.49800  21259496.22700                 -10903533.75740  21259500.51640
 96  9  4  2  7  0.0000000  0  6 14 15 18 22 25 29
  -5333085.22000  20490720.23400                  -4111494.15540  20490725.33240
    857661.71400  23114696.38300                   1281397.96940  23114702.39540
  -2281561.04200  24175943.17200                  -1135709.80840  24175949.20740
 -11496677.23900  22213598.44500                  -8835597.77340  22213604.18840
  -3793391.76800  22453998.43000                  -2816493.44740  22454002.76640
 -14187497.98800  21253990.29700                 -10926079.32440  21253994.59840
 96  9  4  2  7 30.0000000  0  6 14 15 18 22 25 29
  -5355263.76600  20486499.57800                  -4128776.13340  20486504.68840
    958668.65900  23133917.44500                   1360104.62840  23133923.52740
  -2361156.47900  24160797.12500                  -1197732.25040  24160802.11740
 -11567110.66000  22200195.48400                  -8890480.93440  22200200.98040
  -3712272.73800  22469434.97700                  -2753283.81840  22469439.19540
 -14216301.10900  21248509.53900                 -10948523.30440  21248513.82840
 96  9  4  2  8  0.0000000  0  6 14 15 18 22 25 29
  -5377045.02000  20482354.64100                  -4145748.53540  20482359.66840
   1059807.68000  23153163.06300                   1438914.22840  23153169.09840
  -2440801.61500  24145640.71100                  -1259793.31040  24145646.82840
 -11637223.88100  22186853.25800                  -8945114.57440  22186859.18840
  -3630990.75400  22484902.39100                  -2689947.21440  22484906.94940
 -14244963.83300  21243055.00000                 -10970857.88340  21243059.25440
 96  9  4  2  8 30.0000000  0  6 14 15 18 22 25 29
  -5398415.22300  20478288.14800                  -4162400.63540  20478293.22340
   1161071.19200  23172433.10200                   1517820.82140  23172439.19540
  -2520486.01600  24130477.21100                  -1321885.01240  24130482.70740
 -11707014.00600  22173572.80500                  -8999496.45540  22173578.71140
  -3549562.81800  22500397.83600                  -2626496.86740  22500402.35940
 -14273497.74800  21237625.02300                 -10993092.08840  21237629.26640
 96  9  4  2  9  0.0000000  0  6 14 15 18 22 25 29
  -5419345.82000  20474305.18000                  -4178710.18440  20474310.34840
   1262458.45700  23191726.59400                   1596823.82740  23191733.16840
  -2600189.89600  24115310.34400                  -1383991.86540  24115316.01640
 -11776475.62400  22160354.31300                  -9053622.35540  22160360.02040
  -3467979.62000  22515922.30500                  -2562925.54840  22515926.57040
 -14301909.96300  21232218.39800                 -11015231.46540  21232222.60540
 96  9  4  2  9 30.0000000  0  6 14 15 18 22 25 29
  -5439844.77300  20470404.53100                  -4194683.38840  20470409.59440
   1363954.94800  23211040.43000                   1675911.97840  23211046.79340
  -2679915.47100  24100139.10900                  -1446115.67540  24100144.52340
 -11845624.36500  22147196.13300                  -9107504.45640  22147202.13340
  -3386258.83600  22531473.22700                  -2499247.02440  22531477.75040
 -14330229.17100  21226829.58600                 -11037298.37240  21226833.80540
 96  9  4  2 10  0.0000000  0  6 14 15 18 22 25 29
  -5459912.56000  20466585.71900                  -4210320.62040  20466590.72340
   1465553.71800  23230373.46100                   1755079.79840  23230379.39140
  -2759647.93300  24084965.91400                  -1508244.82740  24084972.99640
 -11914464.07200  22134096.51600                  -9161145.74440  22134102.38740
  -3304399.98700  22547050.43800                  -2435460.90140  22547054.84440
 -14358463.98800  21221456.41400                 -11059299.51340  21221460.55140
 96  9  4  2 10 30.0000000  0  6 14 15 18 22 25 29
  -5479542.19900  20462850.06300                  -4225616.43740  20462855.18440
   1567244.86700  23249725.33600                   1834319.59940  23249730.87940
  -2839379.90100  24069793.92200                  -1570373.55040  24069800.12140
 -11983012.01500  22121052.01600                  -9214559.69540  22121057.72340
  -3222392.16500  22562656.39100                  -2371558.70140  22562660.80940
 -14386619.32200  21216098.65600                 -11081238.72740  21216102.84040
 96  9  4  2 11  0.0000000  0  6 14 15 18 22 25 29
  -5498739.63400  20459197.08600                  -4240575.47240  20459202.20740
   1669026.06300  23269093.48400                   1913629.58940  23269100.22340
  -2919109.88100  24054621.62500                  -1632500.79340  24054627.75440
 -12051258.07800  22108065.43800                  -9267738.39940  22108071.01640
  -3140229.77800  22578291.00000                  -2307536.06140  22578295.40640
 -14414674.21400  21210760.10900                 -11103099.66840  21210764.37540
 96  9  4  2 11 30.0000000  0  6 14 15 18 22 25 29
  -5517511.84000  20455624.85200                  -4255203.16140  20455629.83240
   1770906.66700  23288480.42200                   1993017.03440  23288486.30540
  -2998826.92000  24039452.71900                  -1694617.93340  24039457.89840
 -12119165.92800  22095142.76600                  -9320653.57340  22095148.26240
  -3057909.33200  22593956.18000                  -2243390.26040  22593960.91440
 -14442599.23100  21205446.09400                 -11124859.41040  21205450.31340
 96  9  4  2 12  0.0000000  0  6 14 15 18 22 25 29
  -5535872.60500  20452130.82800                  -4269510.24840  20452135.96140
   1872875.39900  23307885.09400                   2072473.13840  23307891.27040
  -3078557.36400  24024279.75000                  -1756745.45740  24024286.09040
 -12186719.01100  22082287.80500                  -9373292.29840  22082293.57040
  -2975436.79500  22609650.18800                  -2179125.94340  22609654.74640
 -14470398.61200  21200156.10900                 -11146521.26040  21200160.22340
 96  9  4  2 12 30.0000000  0  6 14 15 18 22 25 29
  -5553819.55900  20448715.72700                  -4283494.88440  20448720.80140
   1974932.73900  23327306.27300                   2151998.28740  23327312.08640
  -3158322.80600  24009101.43000                  -1818900.31740  24009107.58240
 -12253892.17500  22069505.22700                  -9425634.97340  22069510.85240
  -2892816.26200  22625372.08600                  -2114746.30340  22625376.93840
 -14498073.77600  21194889.64800                 -11168086.31040  21194893.82040
 96  9  4  2 13  0.0000000  0  6 14 15 18 22 25 29
  -5571354.72500  20445378.83600                  -4297158.64940  20445383.92240
   2077084.21800  23346744.54700                   2231596.76840  23346750.86340
  -3238127.68800  23993914.50800                  -1881085.88140  23993920.28540
 -12320656.68800  22056800.22700                  -9477659.22740  22056805.85240
  -2810054.97900  22641121.19500                  -2050256.99440  22641125.63740
 -14525620.73500  21189647.59400                 -11189551.46040  21189651.85940
 96  9  4  2 13 30.0000000  0  6 14 15 18 22 25 29
  -5588466.59600  20442122.64100                  -4310492.57440  20442127.65640
   2179336.35100  23366202.84400                   2311273.74640  23366208.70340
  -3317982.62700  23978718.51600                  -1943310.45840  23978725.21940
 -12387022.01900  22044171.28900                  -9529372.43240  22044176.86740
  -2727152.78600  22656896.89800                  -1985657.88240  22656901.56340
 -14553055.71100  21184427.00000                 -11210929.35040  21184431.19540
 96  9  4  2 14  0.0000000  0  6 14 15 18 22 25 29
  -5605155.47400  20438946.61700                  -4323496.89540  20438951.69140
   2281670.73900  23385676.56300                   2391014.77040  23385682.56340
  -3397900.50100  23963511.09400                  -2005584.06740  23963516.85940
 -12453025.74400  22031611.20300                  -9580803.86740  22031616.74640
  -2644127.13400  22672696.18800                  -1920962.57540  22672700.66440
 -14580404.86200  21179222.55500                 -11232240.36640  21179226.87940
 96  9  4  2 14 30.0000000  0  6 14 15 18 22 25 29
  -5621403.34800  20435855.03100                  -4336157.57540  20435860.21140
   2384085.72700  23405164.93800                   2470818.60740  23405171.55940
  -3477854.06800  23948296.02300                  -2067885.48340  23948301.40240
 -12518692.33300  22019115.36700                  -9631972.59840  22019120.95740
  -2560985.23700  22688517.68000                  -1856176.67740  22688521.91040
 -14607667.65400  21174034.50000                 -11253484.08940  21174038.66040
 96  9  4  2 15  0.0000000  0  6 14 15 18 22 25 29
  -5637214.63400  20432846.14100                  -4348478.05840  20432851.26240
   2486576.31600  23424668.57800                   2550681.35440  23424675.38740
  -3557826.13200  23933077.11700                  -2130201.32740  23933083.37540
 -12584044.33300  22006679.21100                  -9682896.20240  22006685.00040
  -2477733.50000  22704360.28100                  -1791305.18740  22704364.73440
 -14634841.54300  21168863.64800                 -11274658.53340  21168867.85540
 96  9  4  2 15 30.0000000  0  6 14 15 18 22 25 29
  -5652584.20600  20429921.48400                  -4360454.34840  20429926.61740
   2589135.90400  23444185.60200                   2630597.86840  23444191.08640
  -3637805.85200  23917857.78100                  -2192523.09740  23917863.67640
 -12649088.09000  21994301.75800                  -9733579.60540  21994307.26640
  -2394365.02000  22720224.25000                  -1726342.73840  22720228.94940
 -14661930.36100  21163708.78100                 -11295766.69140  21163712.96540
 96  9  4  2 16  0.0000000  0  6 14 15 18 22 25 29
  -5667512.23500  20427080.67200                  -4372086.57640  20427085.72340
   2691756.07900  23463713.23400                   2710561.59140  23463719.98440
  -3717781.20800  23902639.22700                  -2254841.51940  23902644.66440
 -12713807.03300  21981985.91400                  -9784009.91240  21981991.43440
  -2310886.30200  22736109.95300                  -1661294.39040  22736114.27740
 -14688921.67800  21158572.35200                 -11316798.86840  21158576.55940
 96  9  4  2 16 30.0000000  0  6 14 15 18 22 25 29
  -5682010.16000  20424321.79700                  -4383383.66040  20424326.83640
   2794431.61700  23483251.86700                   2790568.45440  23483258.39540
  -3797759.28700  23887420.39800                  -2317162.05140  23887426.09440
 -12778186.41800  21969735.00800                  -9834175.63540  21969740.70340
  -2227305.67000  22752014.85200                  -1596166.61740  22752019.30540
 -14715810.34200  21153455.74200                 -11337751.05640  21153459.99640
 96  9  4  2 17  0.0000000  0  6 14 15 18 22 25 29
  -5696085.31300  20421643.37500                  -4394351.31040  20421648.41440
   2897166.66700  23502801.55500                   2870621.67640  23502807.75440
  -3877746.94200  23872199.10200                  -2379490.02540  23872204.29340
 -12842202.24100  21957553.39800                  -9884058.05640  21957559.12940
  -2143613.33300  22767941.07000                  -1530951.81240  22767945.60540
 -14742578.05100  21148362.03100                 -11358609.00240  21148366.28540
 96  9  4  2 17 30.0000000  0  6 14 15 18 22 25 29
  -5709725.89700  20419047.59400                  -4404980.33640  20419052.65640
   2999958.33400  23522362.53100                   2950719.03240  23522369.27040
  -3957753.68800  23856974.01600                  -2441832.89840  23856979.77040
 -12905846.50300  21945442.32000                  -9933650.94940  21945448.08640
  -2059820.56300  22783886.07800                  -1465658.74040  22783890.68440
 -14769217.06100  21143292.56300                 -11379366.66540  21143296.80540
 96  9  4  2 18  0.0000000  0  6 14 15 18 22 25 29
  -5722923.24300  20416536.33600                  -4415263.98340  20416541.53940
   3102807.72800  23541934.21100                   3030861.36140  23541940.35240
  -4037789.32500  23841743.40600                  -2504198.26940  23841749.45340
 -12969118.97900  21933401.52300                  -9982954.14540  21933407.20740
  -1975936.65300  22799848.71100                  -1400294.65940  22799853.27040
 -14795711.08600  21138251.04700                 -11400011.34940  21138255.20740
 96  9  4  2 18 30.0000000  0  6 14 15 18 22 25 29
  -5735673.50300  20414110.05500                  -4425199.24640  20414115.10540
   3205711.50600  23561515.35900                   3111046.08540  23561521.81640
  -4117859.22900  23826506.58600                  -2566590.37140  23826511.61340
 -13032021.22200  21921431.77300                 -10031968.83740  21921437.72740
  -1891957.56400  22815829.77300                  -1334856.40740  22815833.95740
 -14822065.15900  21133236.07800                 -11420546.97640  21133240.23840
 96  9  4  2 19  0.0000000  0  6 14 15 18 22 25 29
  -5747951.99800  20411773.57800                  -4434766.90540  20411778.66440
   3308676.50700  23581109.30500                   3191278.49540  23581115.49240
  -4197945.22800  23811266.65600                  -2628995.00740  23811272.57440
 -13094533.81000  21909536.07800                 -10080679.91740  21909541.77340
  -1807862.18300  22831832.43000                  -1269327.53840  22831837.04740
 -14848269.54600  21128249.61700                 -11440965.96640  21128253.84840
 96  9  4  2 19 30.0000000  0  6 14 15 18 22 25 29
  -5759749.65700  20409528.56300                  -4443959.88640  20409533.60240
   3411697.46300  23600713.28900                   3271554.47240  23600719.94540
  -4278040.71600  23796025.68000                  -2691407.04340  23796031.42240
 -13156643.40600  21897716.85900                 -10129076.95840  21897722.44940
  -1723658.59000  22847855.95300                  -1203714.35840  22847860.39540
 -14874339.06700  21123288.78900                 -11461279.86940  21123292.89140
 96  9  4  2 20  0.0000000  0  6 14 15 18 22 25 29
  -5771067.97600  20407374.72700                  -4452779.35440  20407379.84840
   3514777.82600  23620328.93800                   3351876.82940  23620335.33640
  -4358123.71900  23780785.65600                  -2753809.35240  23780791.42240
 -13218330.75900  21885978.03100                 -10177145.00140  21885983.65640
  -1639313.78600  22863906.01600                  -1137991.12340  22863910.55140
 -14900284.76100  21118351.42200                 -11481497.28640  21118355.64140
 96  9  4  2 20 30.0000000  0  6 14 15 18 22 25 29
  -5781929.22700  20405307.79700                  -4461242.66640  20405312.88340
   3617909.86400  23639954.16400                   3432239.34940  23639960.77340
  -4438185.44100  23765550.53900                  -2816195.09140  23765556.44540
 -13279591.78000  21874320.69500                 -10224880.83140  21874325.99240
  -1554826.25000  22879983.34400                  -1072156.68440  22879987.50440
 -14926121.63300  21113434.80500                 -11501629.90740  21113438.87140
 96  9  4  2 21  0.0000000  0  6 14 15 18 22 25 29
  -5792332.93600  20403327.98400                  -4469349.44940  20403333.11740
   3721093.31200  23659590.14800                   3512641.99640  23659597.05540
  -4518230.52100  23750318.93800                  -2878567.85340  23750324.79740
 -13340430.45600  21862743.45300                 -10272287.54240  21862749.18440
  -1470203.27100  22896086.76600                  -1006216.70340  22896090.92640
 -14951846.08200  21108539.56300                 -11521674.92340  21108543.65240
 96  9  4  2 21 30.0000000  0  6 14 15 18 22 25 29
  -5802283.23900  20401434.50800                  -4477102.92740  20401439.65240
   3824330.92500  23679235.96100                   3593086.82940  23679241.69140
  -4598258.47000  23735089.27300                  -2940927.27340  23735094.91040
 -13400858.28500  21851244.00000                 -10319374.12840  21851249.57840
  -1385452.25000  22912214.18800                   -940176.94640  22912218.13740
 -14977452.13100  21103666.75800                 -11541627.67740  21103670.82440
 96  9  4  2 22  0.0000000  0  6 14 15 18 22 25 29
  -5811799.41600  20399623.53100                  -4484518.12740  20399628.66440
   3927611.61500  23698888.64800                   3673565.21140  23698894.83640
  -4678283.79800  23719861.35900                  -3003284.65040  23719867.33640
 -13460892.89000  21839819.85900                 -10366154.30140  21839825.62540
  -1300586.28300  22928363.97700                   -874047.62640  22928368.60540
 -15002936.00200  21098817.46900                 -11561485.23240  21098821.48840
 96  9  4  2 22 30.0000000  0  6 14 15 18 22 25 29
  -5820879.88800  20397895.61700                  -4491593.82140  20397900.76240
   4030931.88900  23718550.71900                   3754074.46440  23718556.77740
  -4758324.93600  23704629.55500                  -3065654.34440  23704635.55540
 -13520536.08700  21828470.43000                 -10412629.49240  21828475.83240
  -1215634.03500  22944529.10900                   -807851.07040  22944533.45740
 -15028283.74700  21093993.96100                 -11581236.71940  21093998.06340
 96  9  4  2 23  0.0000000  0  6 14 15 18 22 25 29
  -5829520.47400  20396251.47700                  -4498326.74240  20396256.63340
   4134280.49400  23738217.24200                   3834605.75240  23738223.18440
  -4838393.70900  23689393.34400                  -3128045.57140  23689399.23840
 -13579788.21400  21817194.89100                 -10458799.94040  21817200.23440
  -1130605.05900  22960710.31300                   -741594.72340  22960714.46140
 -15053502.69400  21089194.95300                 -11600887.84140  21089199.05540
 96  9  4  2 23 30.0000000  0  6 14 15 18 22 25 29
  -5837708.08200  20394693.35900                  -4504706.69240  20394698.49240
   4237668.88700  23757891.03900                   3915168.09640  23757896.57040
  -4918470.70900  23674155.02300                  -3190443.21940  23674160.56640
 -13638619.19200  21806000.06300                 -10504642.22740  21806005.69940
  -1045478.25700  22976909.04700                   -675262.14440  22976914.35540
 -15078574.90500  21084423.77300                 -11620424.62140  21084427.92240
 96  9  4  2 24  0.0000000  0  6 14 15 18 22 25 29
  -5845448.80400  20393220.53900                  -4510738.42040  20393225.69540
   4341081.49000  23777570.44500                   3995749.25240  23777576.79740
  -4998575.34600  23658911.67200                  -3252862.40340  23658917.47340
 -13697019.51900  21794886.29700                 -10550148.94140  21794892.13340
   -960264.29600  22993124.84400                   -608861.64940  22993129.33240
 -15103520.27400  21079676.71100                 -11639862.56140  21079680.84840
 96  9  4  2 24 30.0000000  0  6 14 15 18 22 25 29
  -5852740.71600  20391832.88300                  -4516420.42740  20391837.98040
   4444504.11000  23797250.98400                   4076338.21740  23797257.81640
  -5078718.82700  23643660.99200                  -3315311.84140  23643666.86340
 -13754995.83500  21783853.80500                 -10595325.25040  21783859.37140
   -874962.15400  23009357.11700                   -542392.45240  23009361.69940
 -15128363.51200  21074949.31300                 -11659220.92340  21074953.40240
 96  9  4  2 25  0.0000000  0  6 14 15 18 22 25 29
  -5859575.24200  20390532.20300                  -4521746.03040  20390537.40640
   4547934.95200  23816933.75800                   4156933.62940  23816940.00440
  -5158892.50800  23628404.78100                  -3377784.81940  23628410.51240
 -13812537.94100  21772904.14100                 -10640163.22240  21772909.68440
   -789561.20000  23025608.78100                   -475846.25840  23025613.30540
 -15153108.64700  21070240.53900                 -11678502.83540  21070244.68840
 96  9  4  2 25 30.0000000  0  6 14 15 18 22 25 29
  -5865949.30600  20389319.44500                  -4526712.83140  20389324.67240
   4651370.56000  23836616.57800                   4237532.72440  23836623.68440
  -5239101.10400  23613141.69500                  -3440285.00140  23613147.28540
 -13869642.51000  21762037.29700                 -10684660.25440  21762042.72340
   -704074.45700  23041875.71900                   -409233.20640  23041880.48840
 -15177757.49700  21065549.87500                 -11697709.72540  21065553.96540
 96  9  4  2 26  0.0000000  0  6 14 15 18 22 25 29
  -5871870.67600  20388192.51600                  -4531326.88440  20388197.68440
   4754805.44700  23856299.83600                   4318131.25340  23856305.83640
  -5319333.13100  23597873.28900                  -3502803.44940  23597878.35240
 -13926303.90800  21751254.92200                 -10728811.96640  21751260.28940
   -618505.25900  23058159.42200                   -342555.90940  23058163.86340
 -15202316.74600  21060876.37500                 -11716846.79340  21060880.51240
 96  9  4  2 26 30.0000000  0  6 14 15 18 22 25 29
  -5877335.61100  20387152.61700                  -4535585.27240  20387157.79740
   4858237.70200  23875980.80500                   4398727.80140  23875988.37940
  -5399572.24200  23582604.66400                  -3565327.40640  23582610.47740
 -13982519.57300  21740557.65600                 -10772616.34940  21740563.32840
   -532851.95200  23074458.14800                   -275813.06740  23074462.52040
 -15226774.38400  21056222.21900                 -11735904.68240  21056226.41440
 96  9  4  2 27  0.0000000  0  6 14 15 18 22 25 29
  -5882358.82900  20386196.76600                  -4539499.46840  20386201.87540
   4961647.64500  23895660.03900                   4479306.88840  23895666.36740
  -5479828.42700  23567332.44500                  -3627864.65740  23567337.93040
 -14038308.06200  21729941.15600                 -10816087.87040  21729946.91040
   -447143.97100  23090768.58600                   -209027.64340  23090773.06340
 -15251132.05900  21051587.24200                 -11754884.67940  21051591.44940
 96  9  4  2 27 30.0000000  0  6 14 15 18 22 25 29
  -5886945.89700  20385323.78100                  -4543073.80440  20385328.89140
   5065027.35600  23915332.68800                   4559862.39940  23915338.50040
  -5560098.42700  23552057.57800                  -3690412.69140  23552063.16840
 -14093692.10800  21719401.92200                 -10859244.23740  21719407.64140
   -361394.32100  23107085.77300                   -142209.72440  23107090.09840
 -15275385.92000  21046972.04700                 -11773783.78540  21046976.19540
 96  9  4  2 28  0.0000000  0  6 14 15 18 22 25 29
  -5891071.94100  20384538.71900                  -4546288.90340  20384543.88740
   5168388.67500  23935001.66400                   4640403.60940  23935009.27340
  -5640367.48100  23536782.35900                  -3752959.97340  23536787.65640
 -14148677.22000  21708938.72700                 -10902089.75240  21708944.24640
   -275580.15300  23123415.39800                    -75341.54340  23123420.01640
 -15299511.75200  21042380.84400                 -11792583.12640  21042384.94540
 96  9  4  2 28 30.0000000  0  6 14 15 18 22 25 29
  -5894717.40100  20383844.88300                  -4549129.51840  20383849.99240
   5271724.43700  23954666.12500                   4720924.90240  23954671.04740
  -5720654.21400  23521504.66400                  -3815521.03640  23521509.94940
 -14203290.93400  21698545.94500                 -10944645.86340  21698551.48840
   -189699.08700  23139758.39100                     -8421.24440  23139762.84440
 -15323500.55600  21037815.96900                 -11811275.68640  21037820.15240
 96  9  4  2 29  0.0000000  0  6 14 15 18 22 25 29
  -5897895.98100  20383240.10200                  -4551606.32940  20383245.21140
   5375025.13800  23974323.66400                   4801418.85740  23974330.72340
  -5800975.40300  23506219.97700                  -3878108.94540  23506225.26240
 -14257552.66300  21688220.25800                 -10986927.70340  21688225.87140
   -103770.29300  23156110.34400                     58536.25640  23156114.86740
 -15347356.85100  21033276.18000                 -11829864.99640  21033280.25840
 96  9  4  2 29 30.0000000  0  6 14 15 18 22 25 29
  -5900605.52000  20382724.48400                  -4553717.65740  20382729.77040
   5478294.93400  23993976.46100                   4881888.71440  23993982.61340
  -5881333.05700  23490928.14800                  -3940725.28340  23490934.07840
 -14311441.83400  21677965.56300                 -11028919.23640  21677970.77740
    -17778.77100  23172473.68800                    125542.63740  23172477.97740
 -15371080.18300  21028761.71900                 -11848350.70040  21028765.83240
 96  9  4  2 30  0.0000000  0  6 14 15 18 22 25 29
  -5902841.86800  20382298.94500                  -4555460.26540  20382304.10240
   5581536.20700  24013621.67200                   4962336.42840  24013629.17640
  -5961728.37100  23475629.72700                  -4003370.93840  23475635.68040
 -14364927.78000  21667787.43000                 -11070596.56340  21667793.00840
     68284.45700  23188850.98400                    192604.88340  23188855.33240
 -15394670.79800  21024272.68000                 -11866732.99140  21024276.79340
 96  9  4  2 30 30.0000000  0  6 14 15 18 22 25 29
  -5904601.85100  20381963.93800                  -4556831.67840  20381969.05940
   5684761.81800  24033264.10900                   5042771.82040  24033270.26240
  -6042131.76400  23460329.52300                  -4066022.90940  23460335.07840
 -14417963.54300  21657695.06300                 -11111923.10440  21657700.54740
    154416.10700  23205241.13300                    259720.46640  23205246.03140
 -15418118.54700  21019810.81300                 -11885003.95140  21019814.83240
 96  9  4  2 31  0.0000000  0  6 14 15 18 22 25 29
  -5905907.86100  20381715.64800                  -4557849.35040  20381720.88740
   5787966.85100  24052903.95300                   5123191.27940  24052909.88340
  -6122539.16100  23445028.42200                  -4128677.99340  23445034.11740
 -14470529.17100  21647692.15600                 -11152883.30640  21647697.55940
    240604.24000  23221642.75800                    326880.03840  23221647.30540
 -15441438.24600  21015373.03900                 -11903175.13940  21015377.22340
 96  9  4  2 31 30.0000000  0  7  4 14 15 18 22 25 29
     -7765.50510  24971280.79700
  -5906767.20800  20381552.07000                  -4558518.97240  20381557.20340
   5891132.84100  24072536.28900                   5203580.25640  24072541.52740
  -6202957.65700  23429725.16400                  -4191341.71840  23429730.89540
 -14522624.24900  21637778.74200                 -11193476.84640  21637784.35540
    326840.96400  23238052.89100                    394077.47040  23238057.19140
 -15464654.17400  21010955.25000                 -11921265.46140  21010959.23440
 96  9  4  2 32  0.0000000  0  7  4 14 15 18 22 25 29
    -54125.58100  24962458.94500
  -5907171.60800  20381474.82800                  -4558834.08740  20381479.94940
   5994264.28400  24092161.27300                   5283942.35040  24092167.94140
  -6283366.35900  23414424.00000                  -4253997.82540  23414429.43840
 -14574244.76100  21627955.66400                 -11233700.59440  21627961.21940
    413124.99200  23254472.14100                    461311.76740  23254475.77340
 -15487763.70800  21006557.72700                 -11939272.88140  21006561.73440
 96  9  4  2 32 30.0000000  0  7  4 14 15 18 22 25 29
   -100091.86400  24953711.72700
  -5907117.67800  20381485.11700                  -4558792.06240  20381490.27340
   6097368.06700  24111781.61700                   5364282.87140  24111787.99240
  -6363758.19200  23399126.02300                  -4316640.77140  23399131.60240
 -14625391.64300  21618222.95300                 -11273555.27840  21618228.36740
    499470.98900  23270903.50000                    528594.36340  23270908.77340
 -15510759.21200  21002181.71100                 -11957191.44940  21002185.76640
 96  9  4  2 33  0.0000000  0  7  4 14 15 18 22 25 29
   -145695.84600  24945034.42200
  -5906627.57000  20381578.36700                  -4558410.16340  20381583.44140
   6200417.73800  24131391.57800                   5444581.18040  24131398.37540
  -6444164.71400  23383824.84400                  -4379295.17340  23383829.98840
 -14676103.84700  21608572.35200                 -11313071.25840  21608577.85940
    585868.52200  23287344.60200                    595917.10140  23287349.45340
 -15533660.79100  20997823.70300                 -11975036.82840  20997827.91040
 96  9  4  2 33 30.0000000  0  7  4 14 15 18 22 25 29
   -190918.30700  24936428.38300
  -5905689.11000  20381757.19500                  -4557678.90140  20381762.29340
   6303417.41900  24150991.80500                   5524840.59740  24150999.25040
  -6524574.10900  23368523.82000                  -4441951.80040  23368529.24640
 -14726377.44500  21599005.48400                 -11352245.46240  21599011.07440
    672308.70800  23303793.44500                    663273.09040  23303798.70740
 -15556457.04300  20993485.78100                 -11992800.13240  20993490.02340
 96  9  4  2 34  0.0000000  0  7  4 14 15 18 22 25 29
   -235754.81200  24927895.89800                    -32598.75550  24927907.87940
  -5904292.07000  20382022.93000                  -4556590.29940  20382028.03940
   6406373.83300  24170582.02300                   5605066.32740  24170588.86740
  -6604980.23300  23353222.82800                  -4504605.88340  23353228.75840
 -14776211.41400  21589522.50800                 -11391077.10140  21589527.94540
    758790.55900  23320250.03100                    730661.53740  23320254.74240
 -15579130.08000  20989171.11700                 -12010467.42540  20989175.28940
 96  9  4  2 34 30.0000000  0  7  4 14 15 18 22 25 29
   -280208.43600  24919436.07000
  -5902430.94600  20382377.20300                  -4555140.07340  20382382.27740
   6509282.89700  24190166.64800                   5685255.12840  24190171.95740
  -6685392.18100  23337921.02300                  -4567264.50240  23337926.32040
 -14825611.76000  21580121.95300                 -11429570.84640  21580127.54340
    845308.29600  23336714.47700                    798077.95240  23336718.96540
 -15601665.14700  20984882.94500                 -12028027.20940  20984887.03540
 96  9  4  2 35  0.0000000  0  7  4 14 15 18 22 25 29
   -324273.70500  24911051.84400
  -5900104.92500  20382819.75800                  -4553327.59240  20382824.84440
   6612136.55500  24209739.36700                   5765400.72940  24209746.02340
  -6765810.09700  23322618.20300                  -4629927.77140  23322623.86340
 -14874579.55900  21570803.63300                 -11467727.54740  21570809.02340
    931843.18500  23353180.42200                    865507.74240  23353184.69940
 -15624060.61200  20980621.19500                 -12045478.21440  20980625.12140
 96  9  4  2 35 30.0000000  0  7  4 14 15 18 22 25 29
   -367944.03500  24902741.33600                    -14706.03850  24902750.25840
  -5897310.93500  20383351.36700                  -4551150.45640  20383356.34840
   6714924.15300  24229298.74200                   5845494.87940  24229306.36340
  -6846244.76700  23307311.81300                  -4692604.09240  23307317.27340
 -14923106.41000  21561569.46900                 -11505540.65340  21561574.75440
   1018388.16100  23369649.64800                    932945.37640  23369653.55140
 -15646334.72100  20976382.65600                 -12062834.65540  20976386.72340
 96  9  4  2 36  0.0000000  0  7  4 14 15 18 22 25 29
   -411200.71800  24894509.31300                    -48412.60240  24894507.69540
  -5894032.47900  20383975.35900                  -4548595.82040  20383980.43440
   6817652.91900  24248848.12500                   5925543.13740  24248855.71140
  -6926690.90600  23292003.05500                  -4755289.34540  23292008.87940
 -14971169.27400  21552423.34400                 -11542992.20640  21552428.81640
   1104979.11900  23386127.44500                   1000418.84340  23386132.39140
 -15668474.66900  20972169.54700                 -12080086.55940  20972173.66040
 96  9  4  2 36 30.0000000  0  7  4 14 15 18 22 25 29
   -454019.28600  24886361.81300                    -81778.03640  24886370.53540
  -5890263.44500  20384692.65600                  -4545658.91240  20384697.75440
   6920327.50900  24268386.18000                   6005549.25740  24268390.65640
  -7007141.64800  23276694.40600                  -4817978.18440  23276700.02040
 -15018742.40200  21543370.33600                 -11580062.15240  21543375.87940
   1191634.57100  23402617.71900                   1067942.57340  23402622.48840
 -15690481.36600  20967981.71900                 -12097234.62540  20967985.72740
 96  9  4  2 37  0.0000000  0  7  4 14 15 18 22 25 29
   -496391.02600  24878298.43800
  -5886009.23400  20385501.97700                  -4542343.94240  20385507.05140
   7022939.42800  24287911.86700                   6085506.48640  24287918.83240
  -7087590.39400  23261385.04700                  -4880665.47140  23261390.61340
 -15065814.52100  21534412.91400                 -11616741.69940  21534418.03540
   1278355.44200  23419119.99200                   1135517.27940  23419124.22340
 -15712385.73300  20963813.52300                 -12114302.95940  20963817.62540
 96  9  4  2 37 30.0000000  0  7  4 14 15 18 22 25 29
   -538304.68500  24870323.18000
  -5881249.91700  20386407.71900                  -4538635.38540  20386412.92240
   7125492.82900  24307427.89800                   6165418.16340  24307433.59440
  -7168028.68500  23246078.22700                  -4943344.60340  23246083.68840
 -15112376.28000  21525552.49200                 -11653023.56640  21525557.83640
   1365158.59000  23435637.91400                   1203156.10540  23435641.77040
 -15734173.29100  20959667.33600                 -12131280.27140  20959671.37940
 96  9  4  2 38  0.0000000  0  7  4 14 15 18 22 25 29
   -579770.24200  24862430.32800
  -5875989.18600  20387408.71100                  -4534536.11640  20387413.84440
   7227979.57900  24326931.44500                   6245277.81440  24326939.45340
  -7248465.38000  23230771.27300                  -5006022.49840  23230776.53540
 -15158442.53600  21516786.20300                 -11688919.31940  21516791.37140
   1452029.10600  23452169.17200                   1270847.41240  23452173.96540
 -15755827.50100  20955546.69500                 -12148153.67440  20955550.75040
 96  9  4  2 38 30.0000000  0  7  4 14 15 18 22 25 29
   -620787.54400  24854627.74200
  -5870219.91200  20388506.59400                  -4530040.57740  20388511.77340
   7330400.56700  24346420.11700                   6325086.34340  24346427.41040
  -7328891.30000  23215466.56300                  -5068692.00140  23215472.51640
 -15204029.88500  21508111.20300                 -11724441.90540  21508116.62940
   1538946.23300  23468708.97700                   1338575.04540  23468713.24240
 -15777335.77500  20951453.88300                 -12164913.35840  20951457.99640
 96  9  4  2 39  0.0000000  0  7  4 14 15 18 22 25 29
   -661361.58100  24846905.30500
  -5863941.79900  20389701.43000                  -4525148.54340  20389706.59840
   7432751.74000  24365897.58600                   6404840.44340  24365904.66840
  -7409305.08300  23200164.68800                  -5131352.04740  23200169.90240
 -15249155.45600  21499524.10900                 -11759604.66540  21499529.55940
   1625905.79800  23485256.43000                   1406335.74240  23485261.01240
 -15798675.72100  20947392.97700                 -12181541.88340  20947397.07840
 96  9  4  2 39 30.0000000  0  7  4 14 15 18 22 25 29
   -701499.28800  24839267.64800
  -5857152.65700  20390993.15600                  -4519858.31040  20390998.26640
   7535040.05600  24385362.58600                   6484545.46840  24385369.05540
  -7489710.06000  23184863.96100                  -5194005.23340  23184869.41040
 -15293809.85400  21491026.79700                 -11794400.27740  21491032.08240
   1712910.68200  23501813.18800                   1474131.76040  23501817.37140
 -15819805.55700  20943372.11700                 -12198006.68440  20943376.19540
 96  9  4  2 40  0.0000000  0  7  4 14 15 18 22 25 29
   -741213.58800  24831710.32800
  -5849882.73500  20392376.68800                  -4514193.43740  20392381.79740
   7637253.27200  24404812.94500                   6564192.08040  24404818.69940
  -7570109.45400  23169564.71900                  -5256654.07940  23169570.12140
 -15337995.54000  21482618.34400                 -11828830.65640  21482623.48840
   1799938.11700  23518374.18800                   1541945.33440  23518378.40640
 -15840751.94200  20939386.11700                 -12214328.53240  20939390.30140
 96  9  4  2 40 30.0000000  0  7  4 14 15 18 22 25 29
   -780488.57800  24824235.47700
  -5842130.39000  20393851.94500                  -4508152.65440  20393857.12540
   7739404.47000  24424251.01600                   6643790.30940  24424257.34440
  -7650471.01000  23154272.25800                  -5319273.42940  23154277.76640
 -15381688.94100  21474303.72700                 -11862877.43640  21474309.09440
   1887007.90300  23534942.68000                   1609791.93340  23534946.98040
 -15861519.75500  20935434.04700                 -12230511.23440  20935438.25440
 96  9  4  2 41  0.0000000  0  7  4 14 15 18 22 25 29
   -819325.16000  24816846.65600
  -5833905.50400  20395417.08600                  -4501743.65440  20395422.25440
   7841485.47000  24443676.92200                   6723333.84840  24443682.39540
  -7730795.90400  23138986.84400                  -5381864.22040  23138992.41040
 -15424873.59200  21466086.03900                 -11896527.78940  21466091.25440
   1974125.66300  23551520.65600                   1677675.90440  23551525.13340
 -15882140.91700  20931510.12500                 -12246579.66340  20931514.16840
 96  9  4  2 41 30.0000000  0  7  4 14 15 18 22 25 29
   -857714.04200  24809540.84400
  -5825200.11700  20397073.71900                  -4494960.24340  20397078.84040
   7943496.47400  24463089.93800                   6802822.84340  24463098.27340
  -7811079.25600  23123709.26600                  -5444422.63640  23123714.53940
 -15467544.26800  21457965.85900                 -11929777.64440  21457971.00440
   2061283.51200  23568105.91400                   1745591.09840  23568110.50840
 -15902638.23300  20927609.54700                 -12262551.58840  20927613.57840
 96  9  4  2 42  0.0000000  0  7  4 14 15 18 22 25 29
   -895636.87300  24802324.13300                    -16700.16650  24802328.93840
  -5816005.99900  20398823.07000                  -4487795.99940  20398828.21540
   8045433.23400  24482486.01600                   6882254.03240  24482494.90240
  -7891313.19800  23108441.11700                  -5506942.56640  23108446.55540
 -15509704.83700  21449943.03100                 -11962630.01240  21449948.46940
   2148489.86200  23584700.97700                   1813544.11040  23584705.30140
 -15923031.03200  20923729.00800                 -12278442.07340  20923733.12140
 96  9  4  2 42 30.0000000  0  7  4 14 15 18 22 25 29
   -933096.37500  24795196.96900                    -45889.30940  24795199.78140
  -5806310.59500  20400668.32800                  -4480241.14240  20400673.42640
   8147291.93900  24501870.35200                   6961624.31340  24501877.31640
  -7971502.69400  23093181.18000                  -5569427.86740  23093186.84040
 -15551356.58600  21442017.00800                 -11995085.89640  21442022.48040
   2235752.97600  23601306.38300                   1881541.34440  23601311.24640
 -15943309.58100  20919869.94500                 -12294243.53140  20919874.02340
 96  9  4  2 43  0.0000000  0  7  4 14 15 18 22 25 29
   -970089.49900  24788156.75000                    -74715.29440  24788161.87140
  -5796106.00100  20402610.05500                  -4472289.51740  20402615.19940
   8249067.97100  24521238.39100                   7040930.21740  24521243.53540
  -8051659.97100  23077927.99200                  -5631888.05940  23077933.21940
 -15592492.71900  21434188.83600                 -12027140.00740  21434194.09840
   2323066.18900  23617921.80500                   1949577.62640  23617926.18840
 -15963448.35700  20916037.93000                 -12309936.07740  20916041.90240
 96  9  4  2 43 30.0000000  0  7  4 14 15 18 22 25 29
  -1006631.47300  24781203.67200                   -103189.32240  24781208.50040
  -5785393.62500  20404648.77300                  -4463942.21640  20404654.03540
                  24540586.67200
  -8131798.75900  23062678.32000                  -5694333.84340  23062684.01640
 -15633117.99500  21426458.12500                 -12058796.04240  21426463.24640
   2410410.71800  23634542.75000                   2017638.28340  23634548.19940
 -15983425.06100  20912236.29700                 -12325502.32840  20912240.31640
 96  9  4  2 44  0.0000000  0  7  4 14 15 18 22 25 29
  -1042762.89300  24774327.58600                   -131343.94240  24774334.39540
  -5774203.95600  20406777.88300                  -4455222.99540  20406783.01640
     98174.22700  24559916.23400                   7199307.63140  24559919.87940
  -8211954.36500  23047425.00800                  -5756792.73040  23047430.32840
 -15673245.71000  21418822.13300                 -12090064.36740  21418827.27740
   2497749.12000  23651162.98400                   2085694.16640  23651167.83640
 -16003261.09800  20908461.52300                 -12340958.97440  20908465.52040
 96  9  4  2 44 30.0000000  0  7  4 14 15 18 22 25 29
  -1078495.18800  24767527.63300                   -159187.12340  24767538.84040
  -5762533.78600  20408998.80500                  -4446129.36040  20409003.99640
    199609.98900  24579215.43000                   7278348.42340  24579224.98440
  -8292144.17600  23032165.25800                  -5819278.27140  23032170.94140
 -15712882.38600  21411279.64800                 -12120950.07240  21411284.88740
   2585056.74000  23667776.87500                   2153726.10940  23667781.73840
 -16022961.41400  20904712.78100                 -12356309.86440  20904716.88340
 96  9  4  2 45  0.0000000  0  7  4 14 15 18 22 25 29
  -1113844.12000  24760801.55500                   -186731.61640  24760802.66840
  -5750395.84300  20411308.46900                  -4436671.22540  20411313.69540
    300892.07400  24598492.25000                   7357269.34340  24598498.77740
  -8372389.15700  23016895.32800                  -5881806.81040  23016900.42640
 -15752049.73400  21403826.30500                 -12151470.05740  21403831.60240
   2672299.09500  23684378.84400                   2221707.15340  23684383.14540
 -16042558.48500  20900983.56300                 -12371580.29640  20900987.66440
 96  9  4  2 45 30.0000000  0  7  4 14 15 18 22 25 29
  -1148825.54900  24754143.82000                   -213989.94840  24754148.83640
  -5737802.93700  20413704.71100                  -4426858.57740  20413709.85540
    402007.95400  24617732.54700                   7436060.93240  24617740.63740
  -8452703.30500  23001611.91400                  -5944389.23540  23001616.90640
 -15790763.32900  21396459.32800                 -12181636.47340  21396464.76640
   2759468.93600  23700966.57000                   2289631.70740  23700971.24640
 -16062082.06300  20897268.35200                 -12386793.46640  20897272.35940
 96  9  4  2 46  0.0000000  0  7  4 14 15 18 22 25 29
  -1183452.99100  24747554.84400                   -240972.36940  24747560.12940
  -5724792.58100  20416180.57000                  -4416720.63840  20416185.85540
    502932.54100  24636937.94500                   7514703.29240  24636945.68440
  -8533098.02700  22986313.50000                  -6007034.45340  22986318.50440
 -15829048.41500  21389173.91400                 -12211468.98440  21389179.17640
   2846562.84000  23717540.35900                   2357497.08740  23717545.49240
 -16081566.38400  20893560.68800                 -12401976.04040  20893564.75440
 96  9  4  2 46 30.0000000  0  7  4 14 15 18 22 25 29
  -1217733.75300  24741031.38300                   -267684.63940  24741037.93440
  -5711386.64200  20418731.71900                  -4406274.45940  20418736.95740
    603656.03400  24656106.14800                   7593189.09940  24656113.69940
  -8613555.72700  22971002.93800                  -6069728.73740  22971007.95340
 -15866920.54900  21381966.98400                 -12240979.71340  21381972.28140
   2933593.72700  23734101.03100                   2425313.36640  23734105.81340
 -16101009.25400  20889860.82000                 -12417126.32140  20889864.92240
 96  9  4  2 47  0.0000000  0  7  4 14 15 18 22 25 29
  -1251687.20400  24734570.17200                   -294141.88040  24734571.69540
  -5697617.15100  20421351.91400                  -4395544.99040  20421357.10540
    704173.69300  24675232.74200                   7671514.38940  24675242.13340
  -8694054.75500  22955684.22700                  -6132455.22740  22955689.69940
 -15904378.83400  21374838.87500                 -12270167.96140  21374844.30140
   3020564.31700  23750651.73400                   2493082.65340  23750655.32040
 -16120400.49500  20886170.68000                 -12432236.36840  20886174.67640
 96  9  4  2 47 30.0000000  0  7  4 14 15 18 22 25 29
  -1285318.59700  24728170.96900                   -320348.14340  24728176.50040
  -5683498.84900  20424038.54700                  -4384543.72040  20424043.65640
    804479.19500  24694321.43800                   7749674.39340  24694327.34440
  -8774593.24800  22940358.09400                  -6195212.46640  22940363.50840
 -15941431.14300  21367788.10200                 -12299039.86840  21367793.37540
   3107481.21400  23767190.93800                   2560810.12540  23767195.39140
 -16139724.46900  20882493.49200                 -12447293.99940  20882497.47740
 96  9  4  2 48  0.0000000  0  7  4 14 15 18 22 25 29
  -1318634.41000  24721831.27300                   -346308.49840  24721834.27340
  -5669036.03500  20426790.80500                  -4373273.99840  20426795.97340
    904556.28000  24713365.03100                   7827656.41740  24713371.31340
  -8855167.28800  22925025.31300                  -6257997.38840  22925030.16440
 -15978091.36800  21360811.92200                 -12327606.24940  21360817.16040
   3194323.81000  23783716.62500                   2628479.67440  23783721.37140
 -16158994.27000  20878826.60200                 -12462309.41640  20878830.66840
 96  9  4  2 48 30.0000000  0  7  4 14 15 18 22 25 29
  -1351627.49500  24715551.80500                   -372017.32440  24715552.32040
  -5654197.41000  20429614.62500                  -4361711.43340  20429619.84040
   1004404.88400  24732365.32800                   7905460.48040  24732370.75440
  -8935781.35500  22909685.57000                  -6320813.50840  22909690.97340
 -16014348.77500  21353912.35900                 -12355858.74940  21353917.60940
   3281079.43500  23800225.76600                   2696081.46440  23800230.34840
 -16178199.48500  20875171.95300                 -12477274.51040  20875176.04340
 96  9  4  2 49  0.0000000  0  7  4 14 15 18 22 25 29
  -1384264.90800  24709341.54700                   -397449.22440  24709347.52340
  -5638951.45600  20432515.69500                  -4349831.47240  20432520.87540
   1104025.80800  24751323.43000                   7983086.98140  24751330.84040
  -9016460.42100  22894332.25800                  -6383680.27340  22894337.90640
 -16050197.55100  21347090.47700                 -12383792.83440  21347095.49240
   3367745.09000  23816717.82800                   2763613.13940  23816722.35240
 -16197342.99700  20871528.83600                 -12492191.52340  20871532.82040
 96  9  4  2 49 30.0000000  0  7  4 14 15 18 22 25 29
  -1416519.40700  24703203.65600                   -422582.48140  24703214.27740
  -5623274.09500  20435498.94500                  -4337615.34840  20435504.16040
   1203415.82000  24770237.03100                   8060533.66540  24770244.17240
  -9097234.81400  22878961.89100                  -6446621.32440  22878966.82440
 -16085642.68000  21340345.60200                 -12411412.38940  21340350.79340
   3454322.14800  23833192.53100                   2831075.78240  23833197.96940
 -16216439.91800  20867894.92200                 -12507072.23340  20867898.87140
 96  9  4  2 50  0.0000000  0  7  4 14 15 18 22 25 29
  -1448401.38800  24697137.41400                   -447425.60440  24697141.09440
  -5607173.87400  20438562.79700                  -4325069.72540  20438567.91840
   1302561.58900  24789104.57800                   8137790.01140  24789111.55540
  -9178122.79900  22863569.03900                  -6509650.87340  22863574.69940
 -16120671.50600  21333679.87500                 -12438707.55440  21333685.09040
   3540800.68000  23849648.91400                   2898461.63640  23849654.15240
 -16235508.95800  20864266.27300                 -12521931.21440  20864270.19940
 96  9  4  2 50 30.0000000  0  7  4 14 15 18 22 25 29
  -1479913.94600  24691140.66400                   -471980.84440  24691144.47340
  -5590656.66600  20441705.74200                  -4312199.18040  20441710.98040
   1401460.89000  24807922.36700                   8214854.26840  24807931.62940
  -9259143.46500  22848151.45300                  -6572783.81340  22848156.75040
 -16155287.45000  21327092.43000                 -12465680.99440  21327097.73840
   3627186.73000  23866087.71100                   2965775.44840  23866092.34040
 -16254537.77700  20860645.22700                 -12536758.85840  20860649.21140
 96  9  4  2 51  0.0000000  0  7  4 14 15 18 22 25 29
  -1511063.10500  24685212.69500                   -496252.93940  24685217.48840
  -5573736.35200  20444925.71900                  -4299014.52640  20444930.82840
   1500111.41000  24826697.53900                   8291724.56240  24826704.91440
  -9340292.70800  22832708.86700                  -6636016.95340  22832713.62540
 -16189492.49500  21320583.53900                 -12492334.24740  21320588.53140
   3713481.23000  23882509.02300                   3033017.91940  23882513.28940
 -16273523.76700  20857032.13300                 -12551553.12240  20857036.12940
 96  9  4  2 51 30.0000000  0  7  4 14 15 18 22 25 29
  -1541881.37900  24679348.06300                   -520267.14540  24679356.22340
  -5556435.13400  20448217.91400                  -4285533.06440  20448223.02340
   1598502.56800  24845419.59400                   8368392.98940  24845426.32040
  -9421557.69200  22817244.58600                  -6699340.26740  22817250.09440
 -16223266.84600  21314156.54700                 -12518651.90140  21314161.70340
   3799665.53800  23898908.87500                   3100174.52640  23898913.29340
 -16292464.62700  20853427.93000                 -12566312.22640  20853431.99640
 96  9  4  2 52  0.0000000  0  8  4 14 15 18 19 22 25 29
  -1572367.16000  24673546.96900                   -544022.23440  24673552.52340
  -5538760.40700  20451581.33600                  -4271760.55840  20451586.52740
   1696638.80700  24864093.79700                   8444862.58740  24864099.68040
  -9502913.33200  22801763.19500                  -6762734.22740  22801768.37540
                  24898944.96100
 -16256590.88900  21307815.14100                 -12544618.66140  21307820.26240
   3885734.61300  23915287.25000                   3167241.33040  23915292.05540
 -16311337.81300  20849836.54700                 -12581018.59740  20849840.59040
 96  9  4  2 52 30.0000000  0  8  4 14 15 18 19 22 25 29
  -1602504.39000  24667811.97700                   -567505.84840  24667821.14540
  -5520718.13100  20455014.82800                  -4257701.65140  20455020.07840
   1794519.07800  24882721.49200                   8521132.88340  24882727.50440
  -9584342.54100  22786267.85900                  -6826185.50140  22786273.06340
    -95624.66400  24880119.80500
 -16289482.58400  21301555.91400                 -12570248.53340  21301561.02340
   3971674.66200  23931641.38300                   3234207.58340  23931645.37940
 -16330133.47900  20846259.76600                 -12595664.56940  20846263.80940
 96  9  4  2 53  0.0000000  0  8  4 14 15 18 19 22 25 29
  -1632288.25600  24662144.53100                   -590714.01340  24662149.68840
  -5502325.91300  20458514.82800                  -4243370.05540  20458519.97340
   1892141.08700  24901297.77300                   8597201.75940  24901305.30140
  -9665828.23800  22770761.57000                  -6889680.81140  22770766.79740
   -194592.66300  24861286.47700
 -16321923.09800  21295382.81300                 -12595526.83640  21295388.00440
   4057477.32300  23947968.89100                   3301066.78840  23947973.33240
 -16348857.10900  20842696.81300                 -12610254.40540  20842700.71540
 96  9  4  2 53 30.0000000  0  8  4 14 15 18 19 22 25 29
  -1661710.36900  24656546.19500                   -613640.34140  24656549.66440
  -5483582.99300  20462081.41400                  -4228765.19040  20462086.57040
   1989512.95600  24919826.39100                   8673075.89140  24919834.18840
  -9747359.67300  22755246.63300                  -6953211.74840  22755252.07040
   -293578.28000  24842450.52300                    -33423.68350  24842455.52740
 -16353906.06400  21289296.62500                 -12620448.60540  21289301.86340
   4143151.85400  23964272.63300                   3367826.16640  23964276.89840
 -16367497.56800  20839149.58600                 -12624779.43340  20839153.53540
 96  9  4  2 54  0.0000000  0  7  4 14 18 19 22 25 29
  -1690785.54100  24651012.96100                   -636296.37740  24651017.70740
  -5464504.62500  20465711.70300                  -4213898.93440  20465716.80140
  -9828952.14900  22739719.95300                  -7016790.25640  22739724.93440
   -392595.70100  24823607.80500                   -110579.98740  24823616.69140
 -16385480.71700  21283287.99200                 -12645052.20740  21283293.05540
   4228696.82300  23980551.90600                   3434484.57240  23980555.71540
 -16386082.89300  20835613.02300                 -12639261.49940  20835617.04340
 96  9  4  2 54 30.0000000  0  7  4 14 18 19 22 25 29
  -1719524.03200  24645544.00800                   -658689.96840  24645548.56640
  -5445068.70500  20469410.33600                  -4198754.07140  20469415.42240
  -9910598.56000  22724183.37500                  -7080410.79740  22724188.27340
   -491651.91100  24804757.64100                   -187766.55640  24804766.34040
 -16416649.07200  21277356.77300                 -12669339.21440  21277361.89540
   4314130.50900  23996808.85900                   3501056.25440  23996813.41840
 -16404620.94900  20832085.43000                 -12653706.73740  20832089.49640
 96  9  4  2 55  0.0000000  0  7  4 14 18 19 22 25 29
  -1747942.08100  24640136.18000                   -680833.86640  24640141.34840
  -5425250.81400  20473181.65600                  -4183311.56040  20473186.76640
  -9992313.98900  22708633.42200                  -7144085.11640  22708638.43840
   -590745.83100  24785900.83600                   -264982.43440  24785905.31340
 -16447405.53400  21271504.32000                 -12693305.26540  21271509.30140
   4399458.44200  24013046.31300                   3567545.55240  24013049.79340
 -16423120.12500  20828565.00000                 -12668121.67240  20828568.87940
 96  9  4  2 55 30.0000000  0  7  4 14 18 19 22 25 29
  -1776054.36800  24634786.24200                   -702739.57940  24634790.42640
  -5405034.38200  20477028.69500                  -4167558.50340  20477033.93440
 -10074121.85200  22693065.74200                  -7207831.46040  22693070.82840
   -689887.76300  24767035.68800                   -342235.71440  24767041.88740
 -16477783.03300  21265723.61700                 -12716976.02340  21265728.68040
   4484667.02400  24029259.95300                   3633941.85540  24029264.45340
 -16441600.43000  20825048.21900                 -12682521.90840  20825052.18040
 96  9  4  2 56  0.0000000  0  7  4 14 18 19 22 25 29
  -1803837.43400  24629499.85200                   -724388.72940  24629504.23440
  -5384395.16300  20480956.25800                  -4151476.00340  20480961.52040
 -10156009.26500  22677482.93000                  -7271639.79540  22677488.32040
   -789078.13000  24748159.92200                   -419526.79840  24748167.95340
 -16507766.70900  21260017.73400                 -12740339.90740  21260022.93840
   4569766.00500  24045454.35200                   3700252.72140  24045458.68840
 -16460054.32100  20821536.43800                 -12696901.56440  20821540.42240
 96  9  4  2 56 30.0000000  0  7  4 14 18 19 22 25 29
  -1831265.50000  24624280.06300                   -745761.22540  24624285.28940
  -5363311.31000  20484968.22700                  -4135047.03440  20484973.45340
 -10237971.60100  22661886.12500                  -7335506.51240  22661891.11740
   -888301.53500  24729278.30500                   -496843.59240  24729285.42240
 -16537319.99500  21254393.94500                 -12763368.42240  21254398.97340
   4654758.74500  24061628.14100                   3766480.82240  24061632.54740
 -16478453.43000  20818035.38300                 -12711238.53140  20818039.44940
 96  9  4  2 57  0.0000000  0  7  4 14 18 19 22 25 29
  -1858323.07700  24619131.80500                   -766845.06340  24619138.14540
  -5341785.00900  20489064.85900                  -4118273.30240  20489070.06340
 -10320014.40900  22646273.96900                  -7399435.94740  22646278.98440
   -987539.17600  24710393.64100                   -574171.45640  24710401.01640
 -16566425.64400  21248855.48400                 -12786048.13140  21248860.39540
   4739645.02700  24077781.58600                   3832625.98040  24077787.09440
 -16496777.48400  20814548.47700                 -12725517.01240  20814552.47340
 96  9  4  2 57 30.0000000  0  7  4 14 18 19 22 25 29
  -1884995.35200  24614054.96900                   -787628.67540  24614059.50440
  -5319826.19200  20493243.39800                  -4101162.54540  20493248.53140
 -10402122.18900  22630649.42200                  -7463415.99140  22630654.71940
  -1086771.59300  24691509.91400                   -651495.27140  24691517.68840
 -16595062.70800  21243405.87500                 -12808362.70940  21243410.78540
   4824425.85600  24093915.16400                   3898688.97140  24093920.15640
 -16515014.51900  20811078.05500                 -12739727.68940  20811082.05140
 96  9  4  2 58  0.0000000  0  7  4 14 18 19 22 25 29
  -1911286.97100  24609053.41400                   -808115.68440  24609059.43840
  -5297452.96000  20497500.66400                  -4083728.86340  20497505.89140
 -10484291.99100  22615013.10900                  -7527444.39440  22615017.99640
  -1185987.60400  24672629.64100                   -728806.31340  24672636.99240
 -16623202.93800  21238050.86700                 -12830290.14640  21238055.96540
   4909086.30500  24110025.41400                   3964658.11540  24110030.11340
 -16533155.77900  20807625.88300                 -12753863.73240  20807629.94940
 96  9  4  2 58 30.0000000  0  7  4 14 18 19 22 25 29
  -1937204.92700  24604121.20300                   -828311.54640  24604125.03540
  -5274667.68200  20501836.63300                  -4065974.11040  20501841.85940
 -10566512.78400  22599366.96100                  -7591512.51640  22599371.85940
  -1285184.47100  24653752.78900                   -806102.39340  24653758.42640
 -16650835.41200  21232792.72700                 -12851821.92540  21232797.78940
   4993624.87800  24126111.75000                   4030532.34140  24126115.95740
 -16551192.49200  20804193.55500                 -12767918.30940  20804197.62140
 96  9  4  2 59  0.0000000  0  7  4 14 18 19 22 25 29
  -1962734.58500  24599261.82800                   -848204.72540  24599273.28140
  -5251478.13500  20506249.53100                  -4047904.34240  20506254.71140
 -10648769.99700  22583714.09400                  -7655609.01740  22583718.78140
  -1384358.26800  24634880.40600                   -883380.54340  24634885.90240
 -16677959.83200  21227631.30500                 -12872957.82240  21227636.21540
   5078043.76400  24142177.30500                   4096313.27340  24142182.20340
 -16569127.33600  20800780.78900                 -12781893.50940  20800784.78540
 96  9  4  2 59 30.0000000  0  7  4 14 18 19 22 25 29
  -1987854.75900  24594481.99200                   -867778.87140  24594484.34840
  -5227881.17000  20510739.80500                  -4029517.10540  20510744.86740
 -10731033.58600  22568059.53100                  -7719710.49240  22568064.35940
  -1483496.54600  24616015.36700                   -960630.97740  24616022.89540
 -16704563.36900  21222568.53900                 -12893687.83140  21222573.48440
   5162357.09600  24158221.48400                   4162011.93840  24158226.25440
 -16586956.39000  20797388.02300                 -12795786.27740  20797392.02040
 96  9  4  3  0  0.0000000  0  7  4 14 18 19 22 25 29
  -2012564.36100  24589780.53900                   -887033.14940  24589783.86740
  -5203879.25600  20515307.41400                  -4010814.32640  20515312.53540
 -10813299.35200  22552404.89100                  -7783813.68240  22552409.55540
  -1582607.58900  24597155.21100                  -1037860.25440  24597162.70340
 -16730664.88800  21217601.91400                 -12914026.66440  21217606.87140
   5246597.18400  24174251.57000                   4227653.56940  24174256.98440
 -16604675.81700  20794016.00000                 -12809593.62240  20794020.02040
 96  9  4  3  0 30.0000000  0  7  4 14 18 19 22 25 29
  -2036843.75800  24585159.82000                   -905952.24540  24585164.30940
  -5179461.95600  20519953.76600                  -3991787.87140  20519958.88740
 -10895553.42400  22536752.35200                  -7847907.75040  22536757.26240
  -1681698.30500  24578298.60900                  -1115073.67440  24578305.03140
 -16756285.99000  21212726.18000                 -12933991.14140  21212731.13740
   5330808.31400  24190276.07000                   4293272.65740  24190280.54740
 -16622277.39400  20790666.53900                 -12823309.13740  20790670.53540
 96  9  4  3  1  0.0000000  0  7  4 14 18 19 22 25 29
  -2060686.19100  24580624.02300                   -924530.76540  24580629.95340
  -5154624.45500  20524680.24200                  -3972433.98340  20524685.42240
 -10977795.45000  22521102.25000                  -7911992.42640  22521107.05540
  -1780753.06100  24559449.51600                  -1192259.09040  24559456.73840
 -16781420.34500  21207942.96100                 -12953576.32940  21207948.14140
   5415003.14800  24206298.30500                   4358879.00940  24206302.66440
 -16639761.26600  20787339.60900                 -12836932.92640  20787343.53540
 96  9  4  3  1 30.0000000  0  7  4 14 18 19 22 25 29
  -2084114.53200  24576164.08600                   -942786.59540  24576168.96140
  -5129347.28100  20529490.24200                  -3952737.49540  20529495.39840
 -11060016.76700  22505455.68000                  -7976060.96440  22505460.42640
  -1879762.80100  24540608.08600                  -1269409.44040  24540613.80540
 -16806065.17600  21203253.28100                 -12972780.07540  21203258.30940
   5499192.27600  24222319.13300                   4424480.90540  24222323.12940
 -16657122.03800  20784035.77300                 -12850460.79740  20784039.78140
 96  9  4  3  2  0.0000000  0  7  4 14 18 19 22 25 29
  -2107125.94600  24571785.97700                   -960717.61740  24571789.30540
  -5103606.19800  20534388.48400                  -3932679.51440  20534393.65240
 -11142216.80000  22489813.91400                  -8040112.92640  22489819.00040
  -1978730.98300  24521775.09400                  -1346527.40740  24521781.93840
 -16830218.33900  21198657.21900                 -12991600.70140  21198662.31640
   5583378.57900  24238338.74200                   4490080.61440  24238344.03940
 -16674350.08700  20780757.49200                 -12863885.24840  20780761.39540
 96  9  4  3  2 30.0000000  0  7  4 14 18 19 22 25 29
  -2129710.41700  24567488.30500                   -978315.92640  24567489.78140
  -5077380.52900  20539379.21100                  -3912243.93440  20539384.39140
 -11224383.85000  22474177.91400                  -8104139.17840  22474182.98840
  -2077648.63700  24502951.64800                  -1423606.02040  24502958.19940
 -16853856.65400  21194158.89800                 -13010020.15240  21194163.85540
   5667524.05400  24254351.39100                   4555648.54740  24254354.44940
 -16691438.94600  20777505.58600                 -12877201.24140  20777509.60540
 96  9  4  3  3  0.0000000  0  7  4 14 18 19 22 25 29
  -2151861.44500  24563272.73400                   -995576.52340  24563279.93440
  -5050641.26500  20544467.63300                  -3891408.15040  20544472.76640
 -11306499.84200  22458551.63300                  -8168125.65440  22458556.73040
  -2176487.25400  24484143.22700                  -1500623.03440  24484149.71940
 -16876947.34500  21189764.81300                 -13028012.88040  21189769.69940
   5751609.07800  24270351.64800                   4621169.32240  24270355.28140
 -16708367.06900  20774284.22700                 -12890391.98340  20774288.12940
 96  9  4  3  3 30.0000000  0  7  4 14 18 19 22 25 29
  -2173571.99200  24559141.35200                  -1012493.80640  24559146.16840
  -5023380.83400  20549654.96100                  -3870166.26740  20549660.21140
 -11388565.05700  22442935.27300                  -8232072.55340  22442940.18440
  -2275247.95600  24465349.69500                  -1577579.37740  24465356.75440
 -16899499.21600  21185473.34400                 -13045585.75540  21185478.38340
   5835622.60200  24286339.30500                   4686634.40640  24286343.94540
 -16725112.05600  20771097.83600                 -12903440.02440  20771101.79740
 96  9  4  3  4  0.0000000  0  7  4 14 18 19 22 25 29
  -2194798.17600  24555102.72700                  -1029033.79040  24555108.58640
  -4995590.76200  20554943.37500                  -3848511.67040  20554948.54340
 -11470564.94800  22427330.96900                  -8295968.56240  22427335.78540
  -2373911.34700  24446574.56300                  -1654459.89040  24446580.57440
 -16921493.44300  21181288.05500                 -13062724.09540  21181293.09440
   5919577.22000  24302315.65600                   4752053.59440  24302320.20340
 -16741643.32900  20767951.89100                 -12916321.52940  20767955.87540
 96  9  4  3  4 30.0000000  0  7  4 14 18 19 22 25 29
  -2215538.18800  24551156.85900                  -1045194.84740  24551159.68440
  -4967270.18600  20560332.59400                  -3826443.69440  20560337.85540
 -11552489.72100  22411741.43000                  -8359806.03240  22411746.63340
  -2472458.23900  24427821.49200                  -1731249.61540  24427828.18440
 -16942912.19200  21177212.21900                 -13079414.01840  21177217.11740
   6003473.12500  24318280.20300                   4817427.04040  24318284.38740
 -16757946.75700  20764849.72700                 -12929025.49440  20764853.62940
 96  9  4  3  5  0.0000000  0  7  4 14 18 19 22 25 29
  -2235790.00300  24547301.25000                  -1060975.48540  24547307.14540
  -4938425.86700  20565821.52300                  -3803967.61040  20565826.70340
 -11634339.70300  22396165.77300                  -8423585.22040  22396170.98840
  -2570877.53100  24409093.08600                  -1807939.88940  24409099.37940
 -16963742.13700  21173248.50000                 -13095645.12540  21173253.42240
   6087332.25400  24334238.54700                   4882771.79840  24334243.77340
 -16774006.54900  20761793.37500                 -12941539.61140  20761797.21940
 96  9  4  3  5 30.0000000  0  7  4 14 18 19 22 25 29
  -2255550.09500  24543542.32000                  -1076373.03140  24543546.07040
  -4909080.69400  20571405.71900                  -3781101.25040  20571410.84040
 -11716125.65400  22380602.52300                  -8487314.50940  22380607.69140
  -2669177.40100  24390386.80500                  -1884537.13840  24390393.40240
 -16983983.90900  21169396.55500                 -13111417.91840  21169401.33640
   6171164.34900  24350189.85900                   4948095.52440  24350194.94540
 -16789839.61700  20758780.57000                 -12953877.06240  20758784.52040
 96  9  4  3  6  0.0000000  0  7  4 14 18 19 22 25 29
  -2274811.72800  24539876.05500                  -1091382.12440  24539881.55140
  -4879225.71900  20577086.71900                  -3757837.64140  20577091.92240
 -11797828.93000  22365054.69500                  -8550979.38740  22365059.53540
  -2767342.69300  24371706.57000                  -1961029.52240  24371713.95740
 -17003605.61700  21165662.53900                 -13126707.54240  21165667.54340
   6254995.80100  24366143.33600                   5013418.73640  24366146.03140
 -16805454.64300  20755809.06300                 -12966044.60940  20755813.01240
 96  9  4  3  6 30.0000000  0  7  4 14 18 19 22 25 29
  -2293594.89800  24536302.21100                  -1106018.35540  24536310.38340
  -4848867.16900  20582864.00800                  -3734181.64140  20582869.11740
 -11879454.81800  22349521.88300                  -8614583.96140  22349526.95740
  -2865383.20600  24353050.14100                  -2037424.65740  24353056.14140
 -17022598.40300  21162048.33600                 -13141507.10240  21162053.25840
   6338825.92100  24382095.14800                   5078740.91040  24382099.12140
 -16820860.80500  20752877.36700                 -12978049.41240  20752881.41040
 96  9  4  3  7  0.0000000  0  7  4 14 18 19 22 25 29
  -2311895.98200  24532820.07000
  -4818015.98700  20588734.75800                  -3710141.76840  20588739.86740
 -11961009.86300  22334002.75800                  -8678133.32240  22334007.75040
  -2963309.70800  24334415.60200                  -2113730.94740  24334421.95340
 -17040977.12100  21158550.94500                 -13155828.16840  21158555.83240
   6422663.94400  24398048.13300                   5144069.27240  24398052.87940
 -16836065.84100  20749983.89100                 -12989897.48940  20749987.96940
 96  9  4  3  7 30.0000000  0  7  4 14 18 19 22 25 29
  -2329713.27400  24529428.50000
  -4786666.29200  20594700.31300                  -3685713.44540  20594705.58640
 -12042486.51200  22318498.16400                  -8741621.60740  22318503.10940
  -3061117.65900  24315803.14100                  -2189944.87940  24315808.91840
 -17058751.74700  21155168.47700                 -13169678.51140  21155173.44540
   6506525.71300  24414007.53900                   5209416.10540  24414012.16840
 -16851079.04600  20747127.08600                 -13001596.09240  20747131.16440
 96  9  4  3  8  0.0000000  0  7  4 14 18 19 22 25 29
  -2347059.75600  24526128.07800
  -4754823.82000  20600759.75000                  -3660901.13740  20600765.08240
 -12123885.24300  22303008.32800                  -8805049.17540  22303013.70740
  -3158813.78800  24297212.35200                  -2266071.67340  24297218.38740
 -17075937.28400  21151898.21900                 -13183069.82540  21151903.01240
   6590396.54300  24429967.57800                   5274770.01240  24429972.60540
 -16865909.33700  20744304.93000                 -13013152.16340  20744308.96140
 96  9  4  3  8 30.0000000  0  7  4 14 18 19 22 25 29
  -2363916.82700  24522920.41400
  -4722476.07900  20606915.27300                  -3635695.11640  20606920.58240
 -12205192.81600  22287536.21100                  -8868405.70840  22287541.22740
  -3256386.30700  24278644.80500                  -2342102.11640  24278650.34840
 -17092548.04200  21148737.32000                 -13196013.26140  21148742.17240
   6674269.38300  24445928.43000                   5340125.44140  24445931.85240
 -16880536.88300  20741521.40600                 -13024550.25140  20741525.42640
 96  9  4  3  9  0.0000000  0  7  4 14 18 19 22 25 29
  -2380277.29300  24519807.30500                     -2940.28650  24519818.12540
  -4689611.57500  20613169.40600                  -3610086.42340  20613174.66840
 -12286393.28100  22272084.05500                  -8931678.77940  22272089.23440
  -3353821.93600  24260102.93800                  -2418025.90340  24260110.88740
 -17108590.73900  21145684.57800                 -13208514.04940  21145689.52340
   6758148.74700  24461889.79700                   5405485.99740  24461895.16440
 -16894962.07200  20738776.14100                 -13035790.65640  20738780.18440
 96  9  4  3  9 30.0000000  0  7  4 14 18 19 22 25 29
  -2396146.78800  24516787.59400                    -15306.00040  24516792.44540
  -4656221.36600  20619523.25000                  -3584068.08740  20619528.57040
 -12367479.61000  22256653.89800                  -8994862.91940  22256659.09040
  -3451119.32600  24241588.07000                  -2493841.96640  24241595.21140
 -17124060.37600  21142740.87500                 -13220568.29940  21142745.71540
   6842016.98300  24477848.22700                   5470837.89340  24477852.69140
 -16909184.09600  20736069.90600                 -13046872.74940  20736074.03140
 96  9  4  3 10  0.0000000  0  7  4 14 18 19 22 25 29
  -2411518.99500  24513862.10900                    -27284.30740  24513870.01240
  -4622295.55900  20625979.00800                  -3557632.39840  20625984.30540
 -12448440.85100  22241247.74200                  -9057949.57640  22241252.68840
  -3548278.72500  24223099.35900                  -2569550.50440  24223105.59440
 -17138936.74400  21139909.71900                 -13232160.25940  21139914.44140
   6925861.83600  24493805.39800                   5536171.50840  24493809.57040
 -16923189.92100  20733404.77300                 -13057786.38040  20733408.84040
 96  9  4  3 10 30.0000000  0  7  4 14 18 19 22 25 29
  -2426411.07600  24511027.40600                    -38888.58440  24511030.73440
  -4587840.68100  20632535.51600                  -3530784.45240  20632540.69540
 -12529285.02100  22225863.43000                  -9120945.01440  22225868.72740
  -3645311.82000  24204634.13300                  -2645160.64140  24204640.81340
 -17153218.81500  21137191.95300                 -13243289.13240  21137196.98040
   7009675.43300  24509753.45300                   5601480.84040  24509758.05940
 -16936969.46000  20730782.48400                 -13068523.68740  20730786.50440
 96  9  4  3 11  0.0000000  0  7  4 14 18 19 22 25 29
  -2440829.26400  24508284.50000                    -50123.48140  24508290.16040
  -4552868.70000  20639190.53900                  -3503533.57040  20639195.83640
 -12610017.92400  22210500.26600                  -9183853.75740  22210505.31640
  -3742232.82700  24186191.09400                  -2720683.42940  24186197.96540
 -17166898.53200  21134588.93000
   7093462.29000  24525697.27300                   5666769.26940  24525703.48440
 -16950531.33900  20728201.98400                 -13079091.38940  20728205.80540
 96  9  4  3 11 30.0000000  0  7  4 14 18 19 22 25 29
  -2454756.00700  24505634.47700                    -60975.45740  24505639.79740
  -4517380.55700  20645943.71900                  -3475880.48540  20645949.06340
 -12690638.46600  22195158.69500                  -9246674.94240  22195163.99240
  -3839028.12200  24167771.39800                  -2796108.26440  24167777.29340
 -17179960.44100  21132103.14800                      -331.74550  21132108.11740
   7177226.43800  24541637.54700                   5732040.05140  24541642.70340
 -16963863.12100  20725664.92200                 -13089479.79140  20725668.93040
 96  9  4  3 12  0.0000000  0  7  4 14 18 19 22 25 29
  -2468179.45000  24503079.76600                    -71435.29240  24503083.96140
  -4481376.90300  20652795.12500                  -3447825.70440  20652800.45740
 -12771147.78900  22179838.41400                  -9309409.46140  22179843.78140
  -3935684.62800  24149378.09400                  -2871424.94440  24149384.36340
 -17192404.80700  21129735.28900                    -10028.63740  21129740.29340
   7260972.87700  24557573.82000                   5797297.03140  24557578.52040
 -16976960.61800  20723172.59400                 -13099685.63440  20723176.60240
 96  9  4  3 12 30.0000000  0  7  4 14 18 19 22 25 29
  -2481109.83900  24500619.33600
  -4444875.44600  20659741.11700                  -3419383.02140  20659746.28540
 -12851571.42700  22164534.21900                  -9372077.21940  22164539.17640
  -4032214.34400  24131009.25000                  -2946642.79540  24131015.25040
 -17204266.26400  21127477.98400                    -19271.32040  21127482.95340
   7344683.66100  24573503.98400                   5862526.20840  24573507.61740
 -16989842.61300  20720721.06300                 -13109723.55240  20720725.07040
 96  9  4  3 13  0.0000000  0  7  4 14 18 19 22 25 29
  -2493515.67100  24498258.64800
  -4407860.04400  20666785.00000                  -3390539.86340  20666790.28540
 -12931899.23700  22149248.62500                  -9434670.29240  22149253.72340
  -4128595.30300  24112668.28100                  -3021744.77640  24112674.22340
 -17215531.83500  21125334.10900                    -28049.67840  21125339.11340
   7428374.07700  24589429.12500                   5927739.53340  24589434.50440
 -17002501.16000  20718312.51600                 -13119587.35440  20718316.51240
 96  9  4  3 13 30.0000000  0  7  4 14 18 19 22 25 29
  -2505396.38600  24495998.39100
  -4370316.98900  20673929.03900                  -3361285.54640  20673934.34840
 -13012125.47300  22133982.00800                  -9497184.22240  22133987.21140
  -4224809.99100  24094358.82800                  -3096717.14940  24094365.81640
 -17226189.43800  21123306.23400                    -36354.29440  21123311.26240
   7512041.86000  24605351.38300                   5992935.22340  24605354.99240
 -17014916.79800  20715949.82800                 -13129261.88040  20715953.84840
 96  9  4  3 14  0.0000000  0  7  4 14 18 19 22 25 29
  -2516760.67200  24493835.71900
  -4332238.14500  20681175.21100                  -3331613.73240  20681180.52040
 -13092248.75200  22118735.13300                  -9559617.93240  22118740.32440
  -4320870.20200  24076079.42200                  -3171569.21840  24076085.48040
 -17236246.59000  21121392.45300                    -44191.02540  21121397.41040
   7595684.86200  24621267.88300                   6058111.55240  24621273.19140
 -17027088.39400  20713633.65600                 -13138746.24140  20713637.61740
 96  9  4  3 14 30.0000000  0  7  4 14 18 19 22 25 29
  -2527620.51200  24491768.81300                     -7026.17050  24491775.93040
  -4293640.42700  20688520.18800                  -3301537.60040  20688525.47340
 -13172273.24200  22103506.46100                  -9621974.65940  22103511.74640
  -4416792.63600  24057825.71100                  -3246313.85240  24057832.37940
 -17245700.33700  21119593.18800                    -51557.56940  21119598.06340
   7679313.17000  24637181.50000                   6123276.49240  24637185.95340
 -17039013.36600  20711364.37500                 -13148038.42440  20711368.41840
 96  9  4  3 15  0.0000000  0  7  4 14 18 19 22 25 29
  -2537993.62500  24489795.01600                    -15109.07240  24489802.66040
  -4254545.98100  20695959.71900                  -3271074.40640  20695965.07440
 -13252201.91900  22088296.75800                  -9684256.71740  22088301.87940
  -4512584.03000  24039597.55500                  -3320956.43840  24039603.13340
 -17254554.37600  21117908.43000                    -58456.81040  21117913.25840
   7762925.79500  24653093.05500                   6188429.17440  24653099.53540
 -17050700.68800  20709140.32000                 -13157145.42640  20709144.36340
 96  9  4  3 15 30.0000000  0  7  4 14 18 19 22 25 29
  -2547863.75600  24487915.61700                    -22800.09140  24487921.03140
  -4214926.43500  20703499.00000                  -3240202.04740  20703504.19140
 -13331995.99600  22073112.46100                  -9746433.89540  22073117.40640
  -4608201.43900  24021402.15600                  -3395463.39740  24021408.18040
 -17262782.30800  21116342.60900                    -64868.17740  21116347.43840
   7846555.19300  24669007.64800                   6253594.89740  24669011.15240
 -17062123.82500  20706966.54700                 -13166046.57140  20706970.68440
 96  9  4  3 16  0.0000000  0  7  4 14 18 19 22 25 29
  -2557250.57600  24486131.07800                    -30114.54240  24486135.33240
  -4174819.38300  20711131.11700                  -3208949.81140  20711136.42640
 -13411676.49900  22057949.77300                  -9808522.56940  22057954.57840
  -4703666.17100  24003235.45300                  -3469851.44640  24003241.85240
 -17270411.25500  21114890.84400                    -70812.80140  21114895.82440
   7930188.11500  24684921.29700                   6318763.48340  24684925.56340
 -17073313.52400  20704837.34400                 -13174765.81340  20704841.42240
 96  9  4  3 16 30.0000000  0  7  4 14 18 19 22 25 29
  -2566147.09400  24484438.31300                    -37046.89940  24484442.13340
  -4134227.84100  20718855.43800                  -3177320.04740  20718860.79340
 -13491232.25100  22042810.64100                  -9870514.04240  22042815.50440
  -4798952.97800  23985103.62500                  -3544100.81240  23985110.16440
 -17277426.82000  21113555.76600                    -76279.46640  21113560.60540
   8013827.90400  24700837.95300                   6383937.32040  24700843.46140
 -17084266.18200  20702753.09400                 -13183300.34940  20702757.16040
 96  9  4  3 17  0.0000000  0  6  4 14 18 19 22 29
  -2574545.00800  24482840.25000                    -43590.78440  24482844.89140
  -4093128.84700  20726676.34400                  -3145294.86740  20726681.68840
 -13570652.30400  22027697.53900                  -9932399.76640  22027702.41440
  -4894038.67700  23967008.72700                  -3618193.49840  23967015.04340
 -17283823.98500  21112338.74200                    -81264.26140  21112343.61740
 -17094983.37900  20700713.62500                 -13191651.40740  20700717.70340
 96  9  4  3 17 30.0000000  0  6  4 14 18 19 22 29
  -2582460.14300  24481332.83600                    -49758.40140  24481338.47340
  -4051527.91200  20734592.89800                  -3112878.56940  20734598.28940
 -13649940.87700  22012609.36700                  -9994183.04540  22012614.38340
  -4988941.80300  23948948.71900                  -3692143.90140  23948954.85940
 -17289604.86800  21111238.37500                    -85768.84140  21111243.35540
 -17105472.62400  20698717.52300                 -13199824.83540  20698721.54340
 96  9  4  3 18  0.0000000  0  6  4 14 18 19 22 29
  -2589867.61900  24479923.66400                    -55530.43040  24479928.99640
  -4009397.03700  20742610.11700                  -3080049.33140  20742615.53140
 -13729072.67800  21997551.12500                 -10055844.16540  21997555.81340
  -5083661.53600  23930924.96900                  -3765951.42140  23930931.08640
 -17294746.20600  21110260.13300                    -89775.06840  21110264.99640
 -17115705.35100  20696770.33600                 -13207798.38440  20696774.30940
 96  9  4  3 18 30.0000000  0  6  4 14 18 19 22 29
  -2596793.09600  24478605.73400                    -60926.94540  24478611.14840
  -3966735.29900  20750728.28100                  -3046806.43540  20750733.59040
 -13808060.37100  21982520.30500                 -10117392.98740  21982525.10940
  -5178224.54100  23912929.82000                  -3839636.81940  23912935.42240
 -17299270.38600  21109399.07800                    -93300.39240  21109403.98840
 -17125691.81400  20694869.94500                 -13215580.03540  20694874.00040
 96  9  4  3 19  0.0000000  0  6  4 14 18 19 22 29
  -2603231.71000  24477380.57800                    -65944.06740  24477385.78140
  -3923529.32100  20758950.17200                  -3013139.44940  20758955.51640
 -13886891.48300  21967519.30500                 -10178819.80340  21967524.06340
  -5272635.52900  23894964.09400                  -3913203.73840  23894970.97740
 -17303169.90600  21108657.04700                    -96338.97540  21108662.01640
 -17135399.68500  20693022.49200                 -13223144.60740  20693026.52340
 96  9  4  3 19 30.0000000  0  6  4 14 18 19 22 29
  -2609183.09600  24476248.65600                    -70581.50840  24476255.57440
  -3879784.93000  20767274.25800                  -2979052.92440  20767279.63740
 -13965567.89500  21952547.66400                 -10240126.07140  21952552.69140
  -5366905.28300  23877024.84400                  -3986660.64440  23877031.31340
 -17306450.81400  21108032.78900                    -98895.52240  21108037.60540
 -17144820.04000  20691230.02300                 -13230485.13740  20691234.03140
 96  9  4  3 20  0.0000000  0  6  4 14 18 19 22 29
  -2614629.20200  24475211.47700                    -74825.24440  24475218.64140
  -3835491.02400  20775703.05500                  -2944538.20440  20775708.34040
 -14044094.89100  21937604.39100                 -10301315.91140  21937609.30140
  -5461018.92300  23859115.83600                  -4059995.88640  23859122.65640
 -17309117.28300  21107525.46900                   -100973.28240  21107530.34440
 -17153938.52300  20689494.67200                 -13237590.44640  20689498.70340
 96  9  4  3 20 30.0000000  0  6  4 14 18 19 22 29
  -2619562.76100  24474272.37500                    -78669.61240  24474278.10540
  -3790660.52300  20784234.21900                  -2909605.35640  20784239.55140
 -14122488.91500  21922686.60200                 -10362402.13540  21922691.45340
  -5554957.51500  23841240.02300                  -4133194.72940  23841246.56340
 -17311157.52500  21107137.14100                   -102563.06940  21107142.12140
 -17162754.46900  20687817.11700                 -13244460.00640  20687821.14840
 96  9  4  3 21  0.0000000  0  6  4 14 18 19 22 29
  -2623971.29300  24473433.94500                    -82104.81940  24473438.36340
  -3745308.05600  20792864.64100                  -2874265.78840  20792870.03140
 -14200750.51800  21907793.73400                 -10423385.18240  21907798.62140
  -5648706.27800  23823399.69500                  -4206245.66140  23823405.73040
 -17312563.20500  21106869.76600                   -103658.39540  21106874.60540
 -17171280.01500  20686194.82000                 -13251103.28740  20686198.82840
 96  9  4  3 21 30.0000000  0  6  4 14 18 19 22 29
  -2627851.15000  24472696.17200                    -85128.10240  24472703.94540
  -3699433.22400  20801594.27300                  -2838519.17540  20801599.59440
 -14278891.06900  21892923.94500                 -10484273.89640  21892928.86740
  -5742264.58400  23805596.32000                  -4279148.17340  23805602.32040
 -17313333.99800  21106722.91400                   -104259.00240  21106727.66040
 -17179542.92000  20684622.30500                 -13257541.90240  20684626.30140
 96  9  4  3 22  0.0000000  0  6  4 14 18 19 22 29
  -2631206.28200  24472057.57800                    -87742.51040  24472060.66040
  -3653043.24400  20810422.06300                  -2802371.15340  20810427.39540
 -14356914.03100  21878076.89800                 -10545070.99140  21878081.59840
  -5835623.91800  23787830.28900                  -4351895.64340  23787836.93440
 -17313463.03900  21106698.44500                   -104359.54440  21106703.33240
 -17187550.02900  20683098.60900                 -13263781.20340  20683102.67640
 96  9  4  3 22 30.0000000  0  6  4 14 18 19 22 29
  -2634033.71000  24471519.39100                    -89945.68840  24471525.82440
  -3606138.86900  20819347.57000                  -2765822.30440  20819352.89140
 -14434787.94000  21863257.64100                 -10605751.94040  21863262.53940
  -5928773.49300  23770104.92200                  -4424479.67940  23770110.64140
 -17312939.54100  21106797.98400                   -103951.61740  21106802.80140
 -17195302.84200  20681623.30500                 -13269822.35540  20681627.38340
 96  9  4  3 23  0.0000000  0  6  4 14 18 19 22 29
  -2636345.61300  24471077.82000                    -91747.18940  24471085.12540
  -3558719.23400  20828371.04700                  -2728871.94940  20828376.49640
 -14512494.60000  21848470.70300                 -10666302.56940  21848475.61340
  -6021730.28500  23752415.49200                  -4496913.49540  23752421.78540
 -17311783.29000  21107018.14100                   -103050.62840  21107022.86340
 -17202810.88800  20680194.46100                 -13275672.77240  20680198.44540
 96  9  4  3 23 30.0000000  0  6  4 14 18 19 22 29
  -2638159.16100  24470734.10900                    -93160.43040  24470743.93440
  -3510783.46000  20837493.13300                  -2691519.41340  20837498.38340
 -14590030.92800  21833716.13300                 -10726720.47140  21833720.96140
  -6114515.03900  23734759.46900                  -4569213.24340  23734765.37540
 -17309995.12900  21107358.21100                   -101657.24740  21107363.12140
 -17210066.52200  20678813.90600                 -13281326.51340  20678817.87940
 96  9  4  3 24  0.0000000  0  6  4 14 18 19 22 29
  -2639475.92800  24470483.85900                    -94186.39940  24470488.31340
  -3462335.52200  20846712.23400                  -2653767.78140  20846717.52040
 -14667371.93000  21818998.38300                 -10786986.16840  21819003.09440
  -6207125.45500  23717135.49200                  -4641377.16740  23717141.57440
 -17307572.30400  21107819.29700                    -99769.31740  21107824.06640
 -17217058.63800  20677483.52300                 -13286774.90740  20677487.64840
 96  9  4  3 24 30.0000000  0  6  4 14 18 19 22 29
  -2640306.64900  24470326.03100                    -94833.76940  24470330.94140
  -3413384.34900  20856027.40600                  -2615624.02840  20856032.72740
 -14744515.15600  21804318.75800                 -10847097.76040  21804323.49240
  -6299576.82900  23699543.05500                  -4713417.11840  23699549.00840
 -17304529.71200  21108398.37500                    -97398.45540  21108403.32040
 -17223788.13000  20676202.72700                 -13292018.66940  20676206.81640
 96  9  4  3 25  0.0000000  0  6  4 14 18 19 22 29
  -2640660.66200  24470258.35900                    -95109.63040  24470263.17640
  -3363932.98100  20865437.79700                  -2577090.51340  20865443.09440
 -14821466.55300  21789675.35900                 -10907059.87940  21789679.93040
  -6391877.85400  23681978.82800                  -4785339.98540  23681984.52340
 -17300868.88500  21109094.82000                    -94545.85640  21109099.71940
 -17230248.35700  20674973.47700                 -13297052.61040  20674977.40240
 96  9  4  3 25 30.0000000  0  6  4 14 18 19 22 29
  -2640529.50400  24470282.25000                    -95007.39040  24470286.62140
  -3313983.15800  20874943.07800                  -2538168.58540  20874948.51640
 -14898233.08600  21775067.27300                 -10966877.94840  21775072.04340
  -6484014.49500  23664445.45300                  -4857134.70440  23664451.65240
 -17296588.79800  21109909.25800                    -91210.71440  21109914.16840
 -17236432.42000  20673796.71100                 -13301871.35940  20673800.67240
 96  9  4  3 26  0.0000000  0  6  4 14 18 19 22 29
  -2639914.50600  24470399.85200                    -94528.13540  24470405.50040
  -3263551.50200  20884539.93800                  -2498871.20740  20884545.30540
 -14974832.84400  21760490.43800                 -11026566.06340  21760495.05540
  -6575981.13400  23646944.94500                  -4928796.97940  23646950.53540
 -17291711.48900  21110837.66400                    -87410.20340  21110842.46940
 -17242352.07000  20672670.24200                 -13306484.06840  20672674.23840
 96  9  4  3 26 30.0000000  0  6  4 14 18 19 22 29
  -2638823.75500  24470607.22700                    -93678.23940  24470610.49640
  -3212647.04800  20894226.71900                  -2459205.41840  20894232.08640
 -15051291.73400  21745940.99200                 -11086144.41040  21745945.59840
  -6667785.90500  23629474.66400                  -5000333.11440  23629480.65240
 -17286254.00000  21111876.08600                    -83157.60740  21111880.75040
 -17248007.33900  20671593.98400                 -13310890.77340  20671598.02740
 96  9  4  3 27  0.0000000  0  6  4 14 18 19 22 29
  -2637277.33400  24470901.36700                    -92473.35740  24470909.96140
  -3161279.40000  20904001.50000                  -2419178.69540  20904006.90240
 -15127637.56800  21731412.75800                 -11145634.66540  21731417.46940
  -6759438.39600  23612034.04700                  -5071750.60240  23612040.23440
 -17280232.15500  21113021.85900                    -78465.25040  21113026.67640
 -17253427.41700  20670562.53100                 -13315114.21340  20670566.49240
 96  9  4  3 27 30.0000000  0  6  4 14 18 19 22 29
  -2635268.13000  24471284.03100                    -90907.67540  24471287.55940
  -3109443.48900  20913865.58600                  -2378787.09140  20913870.93040
 -15203893.49200  21716901.70300                 -11205054.85940  21716906.50840
  -6850937.10800  23594622.65600                  -5143048.26340  23594628.78540
 -17273642.92900  21114275.85200                    -73330.78240  21114280.64540
 -17258620.60500  20669574.42200                 -13319160.85540  20669578.39540
 96  9  4  3 28  0.0000000  0  6  4 14 18 19 22 29
  -2632807.23300  24471752.03900                    -88990.20240  24471755.23840
  -3057144.43100  20923817.74200                  -2338034.59440  20923823.21540
 -15280072.58000  21702405.41400                 -11264415.17640  21702410.13740
  -6942277.39100  23577240.31300                  -5214222.46440  23577246.60540
 -17266480.95600  21115638.70300                    -67750.01640  21115643.53140
 -17263584.65600  20668629.82000                 -13323028.94840  20668633.75840
 96  9  4  3 28 30.0000000  0  6  4 14 18 19 22 29
  -2629904.82700  24472304.89800                    -86728.57240  24472312.46140
  -3004390.87100  20933856.62500                  -2296927.94240  20933862.02740
 -15356176.54000  21687923.15600                 -11323716.95840  21687927.69140
  -7033465.67800  23559888.89800                  -5285278.24940  23559894.46540
 -17258747.85000  21117110.29700                    -61724.21340  21117115.11340
 -17268332.65100  20667726.11700                 -13326728.68640  20667730.16040
 96  9  4  3 29  0.0000000  0  6  4 14 18 19 22 29
  -2626548.06200  24472944.39100                    -84112.92140  24472950.09840
  -2951174.75600  20943983.30500                  -2255460.85640  20943988.66040
 -15432181.79700  21673459.80500                 -11382941.82640  21673464.58640
  -7124484.10300  23542567.87500                  -5356201.63740  23542574.69540
 -17250413.50300  21118696.14800                    -55229.91040  21118700.89540
 -17272862.19200  20666864.25000                 -13330258.20040  20666868.23440
 96  9  4  3 29 30.0000000  0  6  4 14 18 19 22 29
  -2622743.59000  24473668.03100                    -81148.44140  24473671.14840
  -2897528.05700  20954191.83600                  -2213658.25140  20954197.25040
 -15508088.34000  21659015.26600                 -11442089.77140  21659020.00040
  -7215360.21900  23525274.75800                  -5427014.16040  23525280.82840
 -17241484.29400  21120395.53900                    -48272.07740  21120400.15640
 -17277180.02900  20666042.57800                 -13333622.74740  20666046.60940
 96  9  4  3 30  0.0000000  0  6  4 14 18 19 22 29
  -2618508.30600  24474474.33600                    -77848.24640  24474481.50040
  -2843459.46200  20964480.59400                  -2171526.89140  20964485.99640
 -15583870.18200  21644594.65600                 -11501140.55440  21644599.53140
  -7306104.25500  23508007.30500                  -5497723.75340  23508012.84840
 -17231974.10800  21122205.20300                    -40861.53740  21122209.98440
 -17281279.78300  20665262.49200                 -13336817.36440  20665266.52340
 96  9  4  3 30 30.0000000  0  6  4 14 18 19 22 29
  -2613859.40100  24475357.89100                    -74225.77240  24475365.60540
  -2788979.62600  20974847.93800                  -2129075.08540  20974853.28140
 -15659521.06300  21630198.81300                 -11560089.28740  21630203.64140
  -7396759.95300  23490755.03900                  -5568364.50540  23490761.87140
 -17221900.21300  21124122.09400                    -33011.74140  21124126.95740
 -17285178.94200  20664520.35900                 -13339855.67140  20664524.42640
 96  9  4  3 31  0.0000000  0  6  4 14 18 19 22 29
  -2608814.68100  24476317.79700                    -70294.79940  24476320.96140
  -2734105.31200  20985290.17200                  -2086315.89340  20985295.65640
 -15735064.04200  21615823.35200                 -11618953.93840  21615828.29740
  -7487357.98100  23473515.53900                  -5638960.34940  23473521.69140
 -17211285.33500  21126142.30500                    -24740.39840  21126147.08640
 -17288877.78400  20663816.55500                 -13342737.88640  20663820.69140
 96  9  4  3 31 30.0000000  0  6  4 14 18 19 22 29
  -2603388.71300  24477350.66400                    -66066.79440  24477355.12940
  -2678842.78700  20995806.13300                  -2043254.19340  20995811.38340
 -15810513.69600  21601465.90600                 -11677745.86640  21601470.72340
  -7577903.89300  23456285.21100                  -5709515.52240  23456291.12940
 -17200168.14900  21128257.56300                    -16077.64540  21128262.53140
 -17292368.27600  20663152.50000                 -13345457.74440  20663156.64840
 96  9  4  3 32  0.0000000  0  6  4 14 18 19 22 29
  -2597596.90900  24478452.64100                    -61553.73240  24478458.75840
  -2623194.95400  21006395.77300                  -1999892.25740  21006401.27040
 -15885887.08800  21587122.78100                 -11736478.38040  21587127.59840
  -7668396.69500  23439064.60900                  -5780029.38640  23439071.13740
 -17188577.15800  21130463.18800                     -7045.69840  21130468.05140
 -17295653.26800  20662527.35200                 -13348017.48440  20662531.41840
 96  9  4  3 32 30.0000000  0  6  4 14 18 19 22 29
  -2591450.63400  24479621.82000                    -56764.53540  24479628.57040
  -2567188.43000  21017053.50000                  -1956250.82140  21017058.99640
 -15961219.74200  21572787.33600                 -11795179.14640  21572792.11740
  -7758842.02800  23421853.82800                  -5850506.19540  23421860.03940
 -17176530.92400  21132755.53900                      2340.98740  21132760.39140
 -17298760.02300  20661936.05500                 -13350438.32940  20661940.09840
 96  9  4  3 33  0.0000000  0  6  4 14 18 19 22 29
  -2584938.01200  24480862.07000                    -51689.73640  24480869.55140
  -2510817.74800  21027780.37500                  -1912325.62440  21027785.90640
 -16036514.94000  21558459.35900                 -11853850.72840  21558464.03540
  -7849202.06300  23404658.73400                  -5920916.57140  23404664.11340
 -17164028.39000  21135134.78100                     12083.22940  21135139.62140
 -17301679.73600  20661380.39100                 -13352713.42840  20661384.44540
 96  9  4  3 33 30.0000000  0  6  4 14 18 19 22 29
  -2578066.44400  24482169.18800                    -46335.28340  24482172.83240
  -2454075.74600  21038577.96900                  -1868111.08640  21038583.46540
 -16111761.70100  21544140.42200                 -11912484.56040  21544145.32040
  -7939463.36500  23387481.59400                  -5991250.03340  23387487.85240
 -17151070.93700  21137600.46100                     22179.95840  21137605.48840
 -17304433.39200  20660856.52300                 -13354859.13340  20660860.57840
 96  9  4  3 34  0.0000000  0  6  4 14 18 19 22 29
  -2570849.06300  24483542.42200                    -40711.41440  24483550.31340
  -2396969.26100  21049445.11700                  -1823612.54140  21049450.57840
 -16186966.41300  21529829.25800                 -11971085.63640  21529833.95740
  -8029632.65700  23370323.98400                  -6061511.77240  23370330.03140
 -17137644.19200  21140155.46100                     32642.35840  21140160.35940
 -17307039.58800  20660360.46100                 -13356889.93340  20660364.39840
 96  9  4  3 34 30.0000000  0  6  4 14 18 19 22 29
  -2563301.37100  24484979.91400                    -34830.15040  24484983.55940
  -2339511.48000  21060379.35200                  -1778840.25140  21060384.80140
 -16262130.24300  21515525.90600                 -12029654.85340  21515530.81640
  -8119714.83800  23353181.79700                  -6131705.62440  23353187.91440
 -17123739.24600  21142801.50800                     43477.39440  21142806.31340
 -17309507.33600  20659890.64100                 -13358812.84740  20659894.57840
 96  9  4  3 35  0.0000000  0  6  4 14 18 19 22 29
  -2555424.06300  24486479.30500                    -28692.05640  24486485.28140
  -2281697.19700  21071380.82000                  -1733790.17340  21071386.31640
 -16337237.33200  21501233.71900                 -12088179.85540  21501238.59440
  -8209711.08400  23336055.92200                  -6201832.52740  23336061.50040
 -17109343.76600  21145540.88300                     54694.65840  21145545.72340
 -17311824.12800  20659450.24200                 -13360618.13840  20659454.23840
 96  9  4  3 35 30.0000000  0  6  4 14 18 19 22 29
  -2547216.25700  24488039.46900                    -22296.32640  24488047.94540
  -2223525.91400  21082450.47700                  -1688461.91140  21082455.84440
 -16412276.48000  21486953.98400                 -12146651.91940  21486958.74240
  -8299630.86500  23318944.43800                  -6271899.85940  23318950.39140
 -17094433.25900  21148378.28900                     66313.24240  21148383.14140
 -17313982.35900  20659039.38300                 -13362299.87940  20659043.30940
 96  9  4  3 36  0.0000000  0  6  4 14 18 19 22 29
  -2538661.34200  24489668.88300                    -15630.20740  24489675.60940
  -2165016.15500  21093584.50800                  -1642869.90340  21093589.99240
 -16487237.22000  21472689.36700                 -12205062.87540  21472694.17240
  -8389470.29200  23301848.82800                  -6341904.55840  23301854.80540
 -17078985.01300  21151317.92200                     78350.84240  21151322.89140
 -17315956.36000  20658663.64800                 -13363838.05840  20658667.59840
 96  9  4  3 36 30.0000000  0  6  4 14 18 19 22 29
  -2529738.89200  24491366.28900                     -8677.61640  24491373.44140
  -2106170.73500  21104782.35900                  -1597016.34040  21104787.82040
 -16562100.15400  21458443.53900                 -12263397.61940  21458448.35540
  -8479234.18700  23284767.45300                  -6411850.39240  23284773.33640
 -17062994.90000  21154360.43800                     90810.67940  21154365.26640
 -17317739.04500  20658324.53900                 -13365227.16240  20658328.54740
 96  9  4  3 37  0.0000000  0  6  4 14 18 19 22 29
  -2520429.45500  24493138.37500                     -1423.63140  24493138.39840
  -2046978.58500  21116046.14800                  -1550892.60240  21116051.68040
 -16636864.78100  21444216.42200                 -12321655.75640  21444221.23840
  -8568926.20700  23267699.43000                  -6481740.23040  23267705.87540
 -17046470.69600  21157505.07800                    103686.69040  21157509.82440
 -17319332.11900  20658021.25800                 -13366468.51540  20658025.23040
 96  9  4  3 37 30.0000000  0  6  4 14 18 19 22 29
  -2510712.68100  24494987.29700                      6147.85540  24494995.09440
  -1987428.39400  21127378.22700                  -1504489.87240  21127383.62940
 -16711514.47400  21430011.10200                 -12379824.33340  21430015.97740
  -8658535.54000  23250647.74200                  -6551565.64040  23250653.43840
 -17029414.06200  21160751.08600                    116977.58140  21160755.96140
 -17320730.19800  20657755.16400                 -13367557.92640  20657759.11340
 96  9  4  3 38  0.0000000  0  6  4 14 18 19 22 29
  -2500573.09400  24496916.81300                     14048.89040  24496926.01640
  -1927503.58900  21138781.55500                  -1457795.23440  21138786.84040
 -16786041.96200  21415828.74200                 -12437897.68940  21415833.51240
  -8748041.77000  23233614.89100                  -6621310.71940  23233620.53940
 -17011845.31800  21164094.18800                    130667.51440  21164098.99240
 -17321923.03100  20657528.38300                 -13368487.41340  20657532.35540
 96  9  4  3 38 30.0000000  0  6  4 14 18 19 22 29
  -2490029.32900  24498922.98400                     22264.75140  24498928.78540
  -1867186.38500  21150259.42200                  -1410794.82540  21150264.88340
 -16860467.29100  21401666.17200                 -12495891.42640  21401671.04740
  -8837452.50500  23216600.30500                  -6690981.35340  23216606.43440
 -16993802.89500  21167527.46900                    144726.55240  21167532.36740
 -17322917.41400  20657339.18000                 -13369262.25740  20657343.18840
 96  9  4  3 39  0.0000000  0  6  4 14 18 19 22 29
  -2479096.05200  24501003.92200                     30784.15240  24501007.66040
  -1806480.23700  21161811.35200                  -1363491.35040  21161816.89540
 -16934811.78100  21387518.78100                 -12553822.17340  21387523.77340
  -8926755.99100  23199606.10900                  -6760568.44640  23199611.93440
 -16975301.76500  21171048.00000                    159143.02140  21171052.65240
 -17323714.59300  20657187.40600                 -13369883.43740  20657191.46140
 96  9  4  3 39 30.0000000  0  6  4 14 18 19 22 29
  -2467798.10500  24503153.21900                     39587.71340  24503158.70340
  -1745403.21500  21173434.17200                  -1315898.88240  21173439.82040
 -17009073.58500  21373387.29700                 -12611688.48740  21373392.11340
  -9015936.64000  23182636.46100                  -6830059.79440  23182642.02740
 -16956343.02300  21174655.96900                    173916.07140  21174660.60940
 -17324304.17900  20657075.21100                 -13370342.85740  20657079.20740
 96  9  4  3 40  0.0000000  0  6  4 14 18 19 22 29
  -2456148.91000  24505370.45300                     48665.05840  24505376.13740
  -1683945.07700  21185129.25800                  -1268009.43940  21185134.84840
 -17083244.78100  21359272.93000                 -12669484.19240  21359277.93440
  -9104981.22900  23165691.25000                  -6899445.13940  23165696.98040
 -16936908.13500  21178354.01600                    189060.14740  21178358.87940
 -17324663.84300  20657006.68000                 -13370623.11740  20657010.73440
 96  9  4  3 40 30.0000000  0  6  4 14 18 19 22 29
  -2444150.58300  24507654.39800                     58014.40140  24507659.37940
  -1622105.17100  21196896.85900                  -1219822.50840  21196902.50840
 -17157294.65500  21345181.63300                 -12727185.36040  21345186.29740
  -9193885.31400  23148773.50800                  -6968720.97540  23148780.12940
 -16916959.52800  21182150.38300                    204604.52440  21182155.37540
 -17324777.77000  20656985.00000                 -13370711.89240  20656989.00840
 96  9  4  3 41  0.0000000  0  6  4 14 18 19 22 29
  -2431814.65200  24509999.68000                     67626.70040  24510001.70740
  -1559907.80600  21208732.68800                  -1171357.04840  21208738.23040
 -17231212.47500  21331115.71900                 -12784783.63340  21331120.52340
  -9282656.29700  23131880.28100                  -7037893.13240  23131886.42240
 -16896472.55000  21186048.82800                    220568.40840  21186053.89140
 -17324669.87500  20657005.44500                 -13370627.82140  20657009.47740
 96  9  4  3 41 30.0000000  0  6  4 14 18 19 22 29
  -2419164.20800  24512408.69500                     77484.24740  24512413.31340
  -1497359.52700  21220635.10900                  -1122618.14840  21220640.64140
 -17305005.27300  21317073.37500                 -12842284.48140  21317078.05140
  -9371321.87900  23115008.30500                  -7106983.15040  23115014.45740
 -16875459.17000  21190047.39800                    236942.48040  21190052.10940
 -17324357.13200  20657065.24200                 -13370384.12240  20657069.27340
 96  9  4  3 42  0.0000000  0  6  4 14 18 19 22 29
  -2406171.75400  24514880.02300                     87608.18040  24514880.70340
  -1434446.34600  21232607.16400                  -1073594.90540  21232612.77740
 -17378672.73600  21303054.77300                 -12899687.67040  21303059.49640
  -9459891.50400  23098154.08600                  -7175998.36740  23098159.81640
 -16853906.17900  21194148.94500                    253737.02340  21194153.72740
 -17323850.53000  20657161.64100                 -13369989.36840  20657165.71940
 96  9  4  3 42 30.0000000  0  6  4 14 18 19 22 29
  -2392819.23200  24517421.16400                     98012.61440  24517429.18440
  -1371181.48200  21244646.14800                  -1024297.62640  21244651.79740
 -17452223.06900  21289058.64100                 -12956999.58740  21289063.38740
  -9548362.05200  23081318.94500                  -7244936.41640  23081324.66440
 -16831819.45800  21198351.99200                    270947.46140  21198356.78540
 -17323168.64900  20657291.40600                 -13369458.02940  20657295.50840
 96  9  4  3 43  0.0000000  0  6  4 14 18 19 22 29
  -2379083.53900  24520035.95300                    108715.74740  24520038.36740
  -1307557.52000  21256753.39800                   -974720.53740  21256759.09440
 -17525666.56000  21275082.67200                 -13014228.25740  21275087.52340
  -9636716.53000  23064505.36700                  -7313784.00040  23064511.47340
 -16809203.32600  21202655.65600                    288570.42640  21202660.61340
 -17322302.13800  20657456.08600                 -13368782.82340  20657460.14140
 96  9  4  3 43 30.0000000  0  6  4 14 18 19 22 29
  -2364937.09500  24522727.07800                    119738.96340  24522734.04340
  -1243556.41500  21268932.59400                   -924849.56440  21268938.23040
 -17598989.48200  21261129.85900                 -13071362.97440  21261134.46540
  -9724936.92100  23047717.25800                  -7382527.12840  23047723.90240
 -16786058.51300  21207059.92200                    306605.34940  21207064.79740
 -17321208.63200  20657664.20300                 -13367930.73640  20657668.21140
 96  9  4  3 44  0.0000000  0  6  4 14 18 19 22 29
  -2350381.35600  24525497.55500                    131081.06840  24525500.06340
  -1179189.09600  21281181.08600                   -874693.22640  21281186.59440
 -17672182.10200  21247201.90600                 -13128396.15840  21247206.41840
  -9813016.66100  23030955.87500                  -7451160.63940  23030961.87540
 -16762390.37600  21211563.70300                    325048.06240  21211568.48440
 -17319879.38400  20657917.26600                 -13366894.95940  20657921.37940
 96  9  4  3 44 30.0000000  0  6  4 14 18 19 22 29
  -2335439.98300  24528341.07800                    142723.67440  24528342.47340
  -1114451.74200  21293500.24200                   -824248.55340  21293505.72740
 -17745235.19700  21233300.23400                 -13185320.62040  21233304.93440
  -9900959.59800  23014221.53900                  -7519687.54840  23014227.68040
 -16738218.03300  21216163.56300                    343883.65940  21216168.60240
 -17318301.36400  20658217.51600                 -13365665.33240  20658221.53540
 96  9  4  3 45  0.0000000  0  6  4 14 18 19 22 29
  -2320134.79800  24531252.06300                    154649.73840  24531256.23440
  -1049347.48800  21305889.22700                   -773517.97440  21305894.81640
 -17818145.16900  21219425.82000                 -13242133.56640  21219430.46140
  -9988791.41600  22997507.14800                  -7588127.90640  22997513.09040
 -16713556.52600  21220856.57000                    363100.42540  21220861.48040
 -17316475.20800  20658564.97700                 -13364242.35140  20658568.98440
 96  9  4  3 45 30.0000000  0  6  4 14 18 19 22 29
  -2304483.03900  24534230.57800                    166845.78440  24534227.47340
   -983866.40800  21318350.02300                   -722493.77640  21318355.67240
 -17890897.36300  21205581.49200                 -13298823.56540  21205586.22740
 -10076512.01700  22980815.15600                  -7656481.56740  22980820.88740
 -16688413.89400  21225641.24200                    382692.09240  21225646.17640
 -17314412.50300  20658957.71900                 -13362635.05240  20658961.66840
 96  9  4  3 46  0.0000000  0  6  4 14 18 19 22 29
  -2288488.15600  24537275.00000
   -918013.42200  21330881.21100                   -671179.77640  21330886.83640
 -17963495.24300  21191766.60200                 -13355393.32240  21191771.32440
 -10164124.79400  22964142.24200                  -7724751.21740  22964148.32440
 -16662792.22900  21230516.54700                    402657.03440  21230521.43440
 -17312133.10200  20659390.99200                 -13360858.89640  20659395.00040
 96  9  4  3 46 30.0000000  0  6  4 14 18 19 22 29
  -2272124.60500  24540389.34400
   -851781.39300  21343484.87500                   -619570.41740  21343490.53540
 -18035924.86200  21177983.55500                 -13411831.96340  21177988.30140
 -10251610.93900  22947494.50000                  -7792922.21140  22947500.57040
 -16636660.59900  21235489.37500                    423019.34840  21235494.34440
 -17309622.18600  20659869.02300                 -13358902.33740  20659873.05540
 96  9  4  3 47  0.0000000  0  6  4 14 18 19 22 29
  -2255370.81900  24543577.07800
   -785173.65500  21356159.89100                   -567668.30240  21356165.49240
 -18108190.28000  21164231.88300                 -13468142.66440  21164236.59440
 -10338944.77600  22930875.49200                  -7860974.50640  22930881.58640
 -16610002.83400  21240562.27300                    443791.63940  21240567.05540
 -17306875.19000  20660391.96100                 -13356761.82040  20660395.94540
 96  9  4  3 47 30.0000000  0  6  4 14 18 19 22 29
  -2238246.78600  24546835.52300
   -718227.18300  21368899.41400                   -515502.23540  21368904.84040
 -18180326.19400  21150504.98400                 -13524352.45040  21150509.60240
 -10426136.51400  22914282.96900                  -7928916.09540  22914288.48840
 -16582847.14000  21245729.68800                    464951.92540  21245734.44540
 -17303908.16000  20660956.35900                 -13354449.84340  20660960.28540
 96  9  4  3 48  0.0000000  0  6  4 14 18 19 22 29
  -2220739.51900  24550167.09400
   -650961.25700  21381699.71100                   -463087.24740  21381705.10240
 -18252336.36700  21136801.82000                 -13580464.26140  21136806.52040
 -10513198.49600  22897716.18000                  -7996756.56540  22897722.29740
 -16555186.05900  21250993.43000                    486506.02040  21250998.42240
 -17300705.85200  20661565.68000                 -13351954.54240  20661569.59440
 96  9  4  3 48 30.0000000  0  6  4 14 18 19 22 29
  -2202853.42200  24553570.57800
   -583365.27700  21394562.61700                   -410415.06440  21394568.21940
 -18324208.04300  21123125.00800                 -13636468.15440  21123129.77740
 -10600116.86600  22881175.64800                  -8064485.13140  22881181.87140
 -16527020.75000  21256353.14800                    508453.02240  21256358.04740
 -17297262.29800  20662221.15600                 -13349271.25640  20662225.17640
 96  9  4  3 48 59.9990000  0  6  4 14 18 19 22 29
  -2184610.38800  24557042.85500
   -515443.66100  21407487.67500                   -357489.14040  21407493.37040
 -18395941.20500  21109474.80800                 -13692364.11240  21109479.58940
 -10686901.90400  22864661.45600                  -8132109.81240  22864667.53840
 -16498381.36400  21261802.95600                    530769.42740  21261808.05440
 -17293587.30100  20662920.48000                 -13346407.62540  20662924.44040
 96  9  4  3 49 29.9990000  0  6  4 14 18 19 22 29
  -2166038.61400  24560577.37800
   -447197.50700  21420474.67500                   -304310.33640  21420480.52240
 -18467536.59300  21095850.88600                 -13748152.71040  21095855.63240
 -10773588.25800  22848165.41700                  -8199657.58540  22848170.80840
 -16469271.66700  21267342.39400                    553452.31340  21267347.28040
 -17289683.09700  20663663.35500                 -13343365.38940  20663667.35140
 96  9  4  3 49 59.9990000  0  6  4 14 18 19 22 29
  -2147129.60100  24564175.58100
   -378597.65000  21433528.79200                   -250855.91340  21433534.60540
 -18538966.80500  21082258.05800                 -13803812.60940  21082262.75740
 -10860153.20800  22831692.30000                  -8267110.75040  22831698.00740
 -16439667.24100  21272975.94800                    576520.69940  21272980.88240
 -17285535.52300  20664452.59700                 -13340133.51940  20664456.55840
 96  9  4  3 50 29.9990000  0  6  4 14 18 19 22 29
     10945.69110  24567836.44000
   -309618.03500  21446655.18300                   -197105.57040  21446660.92540
 -18610214.13100  21068700.00300                 -13859329.99940  21068704.86640
 -10946562.01700  22815249.46400                  -8334442.24840  22815255.10140
 -16409554.66200  21278706.12000                    599985.05140  21278710.85540
 -17281128.54900  20665291.27600                 -13336699.51340  20665295.27240
 96  9  4  3 50 59.9990000  0  6  4 14 18 19 22 29
     30523.22400  24571563.56500
   -240266.46500  21459852.24500                   -143065.39340  21459857.96440
 -18681297.47700  21055173.40900                 -13914719.61740  21055178.05040
 -11032829.91800  22798833.05800                  -8401663.96940  22798838.62440
 -16378930.85800  21284533.75300                    623847.75840  21284538.59340
 -17276447.57300  20666182.06500                 -13333052.00340  20666186.06240
 96  9  4  3 51 29.9990000  0  6  4 14 18 19 22 29
     50439.04500  24575352.30800
   -170557.03400  21473117.63600                    -88746.37040  21473123.70640
 -18752221.17500  21041676.90100                 -13969984.82840  21041681.42540
 -11118956.24700  22782443.69800                  -8468775.35040  22782449.59340
 -16347785.89100  21290460.30800                    648116.57240  21290465.27640
 -17271505.41700  20667122.37000                 -13329200.97340  20667126.48340
 96  9  4  3 51 59.9990000  0  6  4 14 18 19 22 29
     70733.13900  24579215.02600
   -100485.50000  21486451.53400                    -34145.18840  21486457.33540
 -18822970.83000  21028213.88600                 -14025114.42840  21028218.42140
 -11204913.98800  22766086.37800                  -8535755.38140  22766092.55440
 -16316117.88800  21296486.56500                    672792.94340  21296491.27640
 -17266294.82100  20668114.06500                 -13325140.77640  20668118.08540
 96  9  4  3 52 29.9990000  0  6  4 14 18 19 22 29
      3473.41510  24583148.90100
    -30064.81000  21499852.50300                     20728.07040  21499858.11640
 -18893544.78600  21014784.05000                 -14080107.11040  21014788.53840
 -11290712.41300  22749759.73000                  -8602611.26140  22749765.13240
 -16283931.35500  21302611.46400                    697873.36540  21302616.24540
 -17260815.25700  20669156.74500                 -13320870.97740  20669160.77640
 96  9  4  3 52 59.9990000  0  6  4 14 18 19 22 29
     24561.27200  24587162.38600
     40720.30700  21513322.37000                     75885.29540  21513328.15940
 -18963902.80000  21001395.25300                 -14134931.53140  21001399.87040
 -11376342.48400  22733464.70600                  -8669335.95340  22733470.85840
 -16251198.22400  21308840.18300                    723379.69940  21308845.09340
 -17255041.85000  20670255.57300                 -13316372.22140  20670259.58140
 96  9  4  3 53 29.9990000  0  6  4 14 18 19 22 29
     12233.21410  24591255.23700
    111863.76700  21526860.64400                    131321.74240  21526866.28040
 -19034026.54700  20988051.12000                 -14189573.40640  20988055.79640
 -11461798.21700  22717203.09700                  -8735924.81740  22717209.35540
 -16217929.01800  21315171.25300                    749303.76040  21315176.08140
 -17248988.81200  20671407.18300                 -13311655.56840  20671411.28440
 96  9  4  3 53 59.9990000  0  6  4 14 18 19 22 29
     12444.91410  24595419.43300
    183358.93900  21540465.53400                    187032.25240  21540471.08940
 -19103938.23500  20974747.41700                 -14244050.03940  20974751.95240
 -11547086.24300  22700973.36200                  -8802382.96540  22700979.44440
 -16184148.86200  21321599.25300                    775625.96040  21321604.23340
 -17242649.57600  20672613.63600                 -13306715.90340  20672617.70240
 96  9  4  3 54 29.9990000  0  6  4 14 18 19 22 29
      3732.83910  24599651.46400
    255220.80100  21554140.62000                    243028.49940  21554146.24540
 -19173604.24600  20961490.51900                 -14298335.24140  20961495.00740
 -11632191.79300  22684778.16700                  -8868698.93840  22684784.08540
 -16149830.54600  21328129.89400                    802367.51240  21328134.76940
 -17236006.72400  20673877.81500                 -13301539.65340  20673881.94040
 96  9  4  3 54 59.9990000  0  6  4 14 18 19 22 29
     26366.65800  24603960.65100
    327459.51800  21567887.02600                    299318.39840  21567892.66340
 -19243009.28500  20948283.33100                 -14352417.08240  20948288.01940
 -11717094.31100  22668621.48700                  -8934856.71940  22668627.46440
 -16114977.94600  21334762.08100                    829525.38440  21334766.99140
 -17229060.01300  20675199.65900                 -13296126.62540  20675203.57340
 96  9  4  3 55 29.9990000  0  6  4 14 18 19 22 29
     13100.24810  24608343.20600
    400083.25400  21581706.68300                    355908.31440  21581712.40140
 -19312165.99400  20935122.95600                 -14406305.42240  20935127.56240
 -11801758.43800  22652510.31500                  -9000828.73240  22652516.10540
 -16079582.39800  21341497.77600                    857106.33140  21341502.52240
 -17221795.75200  20676581.93300                 -13290466.16240  20676585.98740
 96  9  4  3 55 59.9990000  0  6  4 14 18 19 22 29
     36541.80500  24612802.20600
    473090.89500  21595599.61200                    412797.37740  21595605.33140
 -19381082.03400  20922008.48700                 -14460006.22340  20922013.05840
 -11886170.49600  22636447.57300                  -9066604.32740  22636453.52640
 -16043628.67300  21348339.50300                    885122.22940  21348344.33140
 -17214202.95900  20678026.98700                 -13284549.70040  20678030.97240
 96  9  4  3 56 29.9990000  0  6  4 14 18 19 22 29
     60414.06400  24617347.20600
    546476.13300  21609564.44800                    469980.67240  21609570.40140
 -19449748.23400  20908941.96400                 -14513512.34840  20908946.46440
 -11970339.39700  22620431.13600                  -9132190.44740  22620436.78440
 -16007109.01600  21355288.66700                    913579.10640  21355293.39040
 -17206294.78000  20679531.74500                 -13278387.48040  20679535.68340
 96  9  4  3 56 59.9990000  0  6  4 14 18 19 22 29
     84721.09700  24621971.14400
    620258.71500  21623604.78400                    527473.57740  21623610.33940
 -19518181.81800  20895919.45600                 -14566837.21040  20895923.99140
 -12054251.82700  22604462.87800                  -9197576.71640  22604468.65540
 -15970016.07400  21362347.55000                    942482.70140  21362352.49540
 -17198052.09200  20681100.44800                 -13271964.60340  20681104.33940
 96  9  4  3 57 29.9990000  0  6  4 14 18 19 22 29
     18977.87210  24626674.94000
    694432.97900  21637719.72200                    585271.68740  21637724.98340
 -19586391.55700  20882939.61200                 -14619987.65240  20882944.35840
 -12137926.91300  22588540.03400                  -9262778.04840  22588546.22240
 -15932346.30500  21369515.87800                    971835.77340  21369520.77640
 -17189477.09900  20682732.03400                 -13265282.78540  20682735.92540
 96  9  4  3 57 59.9990000  0  6  4 14 18 19 22 29
     44083.55300  24631450.57300
    769024.48100  21651914.17500                    643394.92140  21651919.70640
 -19654330.13300  20870011.33900                 -14672926.80540  20870015.99140
 -12221381.80600  22572658.70600                  -9327807.80240  22572664.56540
 -15894093.68500  21376795.13600                   1001643.00840  21376799.80040
 -17180566.27500  20684427.84700                 -13258339.28540  20684431.74940
 96  9  4  3 58 29.9990000  0  6  4 14 18 19 22 29
     14487.60710  24636300.65900
    844042.78800  21666189.81500                    701850.73240  21666195.72240
 -19721970.39400  20857139.75300                 -14725633.49740  20857144.34740
 -12304631.67000  22556817.15900                  -9392677.78440  22556822.64440
 -15855274.08100  21384182.35500                   1031892.06140  21384187.26540
 -17171309.98800  20686189.00300                 -13251126.58940  20686192.91740
 96  9  4  3 58 59.9990000  0  6  4 14 18 19 22 29
                  24641222.34700
    919486.56500  21680546.20600                    760638.07340  21680551.83140
 -19789317.43000  20844323.99500                 -14778111.70140  20844328.64740
 -12387675.16600  22541014.12800                  -9457386.97140  22541020.31540
 -15815912.58700  21391672.27600                   1062563.35240  21391677.09340
 -17161697.29700  20688018.26100                 -13243636.17940  20688022.30440
 96  9  4  3 59 29.9990000  0  6  4 14 18 19 22 29
     14914.69110  24646216.30000
    995325.99400  21694977.96400                    819733.71340  21694983.85840
 -19856366.60600  20831565.10500                 -14830357.80540  20831569.73340
 -12470527.38600  22525248.00300                  -9521947.11140  22525253.71040
 -15776033.89300  21399261.24500                   1093637.66540  21399266.15540
 -17151730.67700  20689914.84700                 -13235869.98240  20689918.87840
 96  9  4  3 59 59.9990000  0  6  4 14 18 19 22 29
                  24651284.83900
   1071557.30500  21709484.41700                    879134.72440  21709490.41740
 -19923112.08600  20818863.72200                 -14882367.26140  20818868.49140
 -12553180.31600  22509519.49500                  -9586351.95340  22509525.56540
 -15735640.50300  21406947.66700                   1125113.04140  21406952.60140
 -17141403.75700  20691880.04200                 -13227823.03240  20691884.15540
 96  9  4  4  0 29.9990000  0  6  4 14 18 19 22 29
     26163.15600  24656434.76900
   1148174.51700  21724064.06500                    938836.42740  21724069.66740
 -19989564.46400  20806217.94800                 -14934148.33140  20806222.62440
 -12635595.49900  22493836.77600                  -9650571.54740  22493842.44840
 -15694734.92300  21414731.56500                   1156987.52440  21414736.52240
 -17130702.20700  20693916.40100                 -13219484.16240  20693920.40940
 96  9  4  4  0 59.9990000  0  6  4 14 18 19 22 29
     53628.80800  24661661.33900
   1225147.94500  21738711.68300                    998815.71540  21738717.15540
 -20055758.74600  20793621.95600                 -14985728.28440  20793626.66740
 -12717780.21500  22478197.00300                  -9714611.56040  22478202.83940
 -15653312.51000  21422614.07300                   1189264.73740  21422618.78440
 -17119656.90200  20696018.51100                 -13210877.43240  20696022.44840
 96  9  4  4  1 29.9990000  0  6  4 14 18 19 22 29
     81494.50600  24666965.69000
   1302474.56700  21753426.16700                   1059070.21640  21753431.87440
 -20121682.99400  20781076.97200                 -15037097.81640  20781081.63640
 -12799741.25000  22462600.69800                  -9778477.26440  22462606.86240
 -15611344.84900  21430600.26100                   1221966.81140  21430605.12440
 -17108292.79600  20698180.64400                 -13202022.28040  20698184.76940
 96  9  4  4  1 59.9990000  0  6  4 14 18 19 22 29
     16065.71110  24672341.71400
   1380177.19300  21768212.83900                   1119617.69540  21768218.69840
 -20187321.18200  20768586.26900                 -15088244.44440  20768590.89740
 -12881462.93300  22447049.60500                  -9842156.47240  22447055.37040
 -15568805.16600  21438695.30800                   1255114.62040  21438700.08940
 -17096609.49900  20700403.94800                 -13192918.41140  20700408.10840
 96  9  4  4  2 29.9990000  0  7  3  4 14 18 19 22 29
                  24690056.28400
      4803.56210  24677796.15900
   1458255.50900  21783070.33900                   1180457.92740  21783076.11640
 -20252666.01600  20756151.64400                 -15139162.48740  20756156.13240
 -12962936.39900  22431545.40100                  -9905642.26640  22431551.37840
 -15525685.76400  21446900.80000                   1288714.16340  21446905.65140
 -17084584.29400  20702692.26100                 -13183548.12440  20702696.26940
 96  9  4  4  2 59.9990000  0  7  3  4 14 18 19 22 29
    -83012.32300  24673691.58900
     16516.70510  24683328.15100
   1536713.50700  21798000.55000                   1241594.01740  21798006.09340
 -20317719.54700  20743772.51100                 -15189853.53640  20743777.10540
 -13044179.34800  22416085.45600                  -9968948.44140  22416091.10540
 -15481972.15900  21455218.86200                   1322776.71640  21455223.62040
 -17072218.50600  20705045.48700                 -13173912.44540  20705049.50740
 96  9  4  4  3 29.9990000  0  7  3  4 14 18 19 22 29
   -168753.52300  24657374.82300                     -2223.32950  24657381.73040
      4936.22810  24688933.83100
   1615549.99800  21813002.82300                   1303025.03940  21813008.65940
 -20382483.99900  20731448.11200                 -15240319.32940  20731452.60140
 -13125189.21800  22400669.98700                 -10032072.98540  22400675.84740
 -15437698.96100  21463644.09700                   1357275.31740  21463648.80840
 -17059509.34700  20707464.01100                 -13164009.20740  20707468.01940
 96  9  4  4  3 59.9990000  0  7  3  4 14 18 19 22 29
   -254371.62700  24641083.00300                    -68938.71840  24641089.15540
     22928.02610  24694615.50300
   1694773.98900  21828078.37000                   1364758.00540  21828084.03040
 -20446951.81700  20719180.32300                 -15290553.98240  20719184.94040
 -13205933.87600  22385304.54200                 -10094990.85940  22385310.15540
 -15392883.22600  21472172.22200                   1392196.67440  21472177.12040
 -17046429.62800  20709953.11200                 -13153817.22140  20709957.07340
 96  9  4  4  4 29.9990000  0  7  3  4 14 18 19 22 29
   -339857.33400  24624814.80000                   -135550.96940  24624819.65140
     53202.65200  24700377.94800
   1774402.11400  21843231.22200                   1426805.88440  21843236.91740
 -20511110.50500  20706971.11200                 -15340547.74640  20706975.77640
 -13286393.20200  22369993.55800                 -10157686.40940  22369999.32340
 -15347522.69700  21480803.95600                   1427542.54340  21480808.85540
 -17032972.56000  20712513.76900                 -13143331.19640  20712517.80040
 96  9  4  4  4 59.9990000  0  6  3 14 18 19 22 29
   -425213.81300  24608572.05000                   -202062.45640  24608578.51940
   1854431.84600  21858460.33900                   1489166.71040  21858465.94040
 -20574966.80300  20694819.80800                 -15390305.88740  20694824.42540
 -13366581.27300  22354734.77600                 -10220170.57540  22354740.19040
 -15301629.52000  21489537.17500                   1463303.46740  21489541.80440
 -17019170.16200  20715140.26900                 -13132576.08140  20715144.28840
 96  9  4  4  5 29.9990000  0  6  3 14 18 19 22 29
   -510420.32300  24592358.56500                   -268457.18540  24592363.19440
   1934854.44200  21873764.35500                   1551833.66040  21873769.85140
 -20638513.55100  20682727.22200                 -15439822.81440  20682731.73340
 -13446492.16200  22339527.59700                 -10282438.77040  22339533.44440
 -15255210.10200  21498370.43300                   1499474.44740  21498375.27240
 -17005014.07000  20717834.12000                 -13121545.35740  20717838.10540
 96  9  4  4  5 59.9990000  0  6  3 14 18 19 22 29
   -595464.81900  24576173.81500                   -334725.56040  24576179.11240
   2015661.06900  21889141.55800                   1614799.85440  21889147.44040
 -20701745.31500  20670694.83100                 -15489094.30340  20670699.41340
 -13526133.67400  22324372.08900                 -10344497.04040  22324378.07740
 -15208249.99200  21507306.65900                   1536066.74340  21507311.58140
 -16990493.21200  20720597.19000                 -13110230.41040  20720601.16340
 96  9  4  4  6 29.9990000  0  6  3 14 18 19 22 29
   -680330.22000  24560025.76100                   -400854.43640  24560032.92540
   2096836.99100  21904588.66700                   1678053.80640  21904594.24540
 -20764674.72900  20658719.67500                 -15538130.19340  20658724.22240
 -13605534.32600  22309262.97200                 -10406367.64140  22309268.93740
 -15160747.55700  21516346.08100                   1573081.63640  21516350.81540
 -16975600.18800  20723431.39400                 -13098625.45740  20723435.37840
 96  9  4  4  6 59.9990000  0  6  3 14 18 19 22 29
   -765004.39300  24543911.54200                   -466834.28640  24543918.19840
   2178366.25700  21920103.12800                   1741583.09940  21920108.62440
 -20827290.08900  20646804.23700                 -15586921.36740  20646808.87840
 -13684690.69400  22294200.13600                 -10468047.88640  22294206.04240
 -15112697.07200  21525489.97200                   1610523.57540  21525494.90540
 -16960306.77400  20726341.69000                 -13086708.52040  20726345.60540
 96  9  4  4  7 29.9990000  0  6  3 14 18 19 22 29
   -849473.76800  24527838.77600                   -532654.57940  24527843.38240
   2260239.40500  21935682.99500                   1805380.34440  21935688.73740
 -20889578.99300  20634950.87000                 -15635458.16440  20634955.44040
 -13763598.23000  22279184.44000                 -10529534.22540  22279190.10140
 -15064116.23100  21534734.56500                   1648378.77740  21534739.28840
 -16944590.97900  20729332.02600                 -13074462.44740  20729336.03440
 96  9  4  4  7 59.9990000  0  6  3 14 18 19 22 29
   -933750.88200  24511800.44000                   -598325.07240  24511804.80040
   2342447.60500  21951326.74500                   1869438.68440  21951332.41740
 -20951543.53600  20623159.69800                 -15683742.20740  20623164.22240
 -13842274.68800  22264212.55800                 -10590840.51040  22264218.04240
 -15015029.08800  21544075.33900                   1686628.50240  21544080.03840
 -16928467.57500  20732400.53400                 -13061898.76240  20732404.50740
 96  9  4  4  8 29.9990000  0  6  3 14 18 19 22 29
  -1017823.98200  24495803.68300                   -663836.54440  24495808.37040
   2425009.81000  21967037.68300                   1933772.85140  21967043.35540
 -21013160.78300  20611434.33900                 -15731755.63440  20611438.89740
 -13920714.07000  22249286.41700                 -10651962.05440  22249292.33540
 -14965426.41200  21553514.55800                   1725279.93940  21553519.31540
 -16911941.63700  20735544.99500                 -13049021.41540  20735549.05040
 96  9  4  4  8 59.9990000  0  6  3 14 18 19 22 29
  -1101709.56900  24479840.06500                   -729201.89140  24479845.17540
   2507930.16700  21982816.98000                   1998386.10640  21982822.69840
 -21074419.77200  20599776.98000                 -15779489.89440  20599781.64440
 -13998910.47900  22234405.78400                 -10712894.26940  22234411.48040
 -14915310.58900  21563051.12000                   1764331.22940  21563055.87840
 -16895035.29800  20738762.32300                 -13035847.65040  20738766.36640
 96  9  4  4  9 29.9990000  0  6  3 14 18 19 22 29
  -1185439.47800  24463906.18300                   -794445.98140  24463911.01140
   2591196.52400  21998662.23000                   2063268.96340  21998668.01940
 -21135351.63600  20588182.16700                 -15826969.26140  20588186.85540
 -14076889.99800  22219566.82300                 -10773657.48740  22219572.41340
 -14864705.08000  21572681.13600                   1803764.10140  21572685.94040
 -16877794.26500  20742043.08100                 -13022413.08740  20742047.18340
 96  9  4  4  9 59.9990000  0  6  3 14 18 19 22 29
  -1268977.62000  24448008.81500                   -859540.62040  24448016.42540
   2674846.20800  22014580.14400                   2128450.52240  22014585.67540
 -21195930.81900  20576654.22200                 -15874173.81040  20576658.88640
 -14154608.50100  22204777.60500                 -10834217.30440  22204783.15940
 -14813536.17200  21582418.16700                   1843635.97440  21582422.80840
 -16860191.27700  20745392.90100                 -13008696.47940  20745396.93340
 96  9  4  4 10 29.9990000  0  6  3 14 18 19 22 29
  -1352322.16000  24432149.43300                   -924484.43040  24432155.22240
   2758868.03800  22030569.08100                   2193922.06140  22030574.56540
 -21256168.21600  20565191.45600                 -15921112.03040  20565195.96840
 -14232064.29400  22190038.03400                 -10894572.41640  22190043.63640
 -14761806.82400  21592261.90900                   1883944.56040  21592266.16340
 -16842237.71000  20748809.40900                 -12994706.69240  20748813.40540
 96  9  4  4 10 59.9990000  0  7  3 14 18 19 22 28 29
  -1435459.42000  24416328.20600                   -989266.65840  24416333.40940
   2843253.88600  22046627.30800                   2259677.25340  22046632.75740
 -21316071.29400  20553792.12800                 -15967789.74340  20553796.56940
 -14309241.34400  22175351.42500                 -10954710.32940  22175356.89740
 -14709522.85800  21602211.15900                   1924685.31840  21602215.70640
    -13119.78910  24600874.46400                    -10223.45210  24600878.45200
 -16823916.31100  20752295.87800                 -12980430.27940  20752299.82740
 96  9  4  4 11 29.9990000  0  7  3 14 18 19 22 28 29
  -1518402.94000  24400546.61200                  -1053897.95140  24400554.06940
   2927966.11000  22062747.37800                   2325686.76440  22062752.73340
 -21375675.50900  20542449.94800                 -16014234.57540  20542454.58940
 -14386164.67700  22160713.44800                 -11014650.54140  22160719.14440
 -14656711.38100  21612261.20600                   1965837.11840  21612265.73040
    -48567.03800  24594128.65900                    -37844.66100  24594133.24100
 -16805236.77300  20755850.30000                 -12965874.79940  20755854.36640
 96  9  4  4 11 59.9990000  0  7  3 14 18 19 22 28 29
  -1601133.35500  24384802.21400                  -1118363.19040  24384808.57740
   3013012.86600  22078931.27600                   2391956.94840  22078936.89040
 -21434967.91300  20531167.10500                 -16060436.43740  20531171.51140
 -14462828.90700  22146124.53400                 -11074388.84940  22146130.35840
 -14603378.86300  21622409.89400                   2007394.92140  21622414.52240
    -83511.02900  24587479.59700                    -65073.73700  24587483.34300
 -16786187.98400  20759475.26100                 -12951031.59240  20759479.32740
 96  9  4  4 12 29.9990000  0  7  3 14 18 19 22 28 29
  -1683664.29600  24369097.61200                  -1182673.00940  24369099.76940
   3098399.29300  22095179.60500                   2458491.81440  22095185.32340
 -21493953.96400  20519942.11200                 -16106399.58240  20519946.60140
 -14539228.86100  22131586.58100                 -11133921.23740  22131592.59340
 -14549557.53200  21632651.84700                   2049333.61940  21632656.76940
   -117953.30800  24580925.06500                    -91911.85100  24580929.03400
 -16766770.80600  20763170.23700                 -12935901.32840  20763174.26940
 96  9  4  4 12 59.9990000  0  7  3 14 18 19 22 28 29
  -1766006.70100  24353427.65900                  -1246835.90840  24353431.15140
   3184111.68900  22111490.30000                   2525280.67840  22111495.96040
 -21552641.73900  20508774.29200                 -16152130.30640  20508778.85140
 -14615376.56200  22117096.18300                 -11193257.05640  22117101.89040
 -14495244.41300  21642987.19800                   2091655.52940  21642992.02640
   -151902.09100  24574464.69000                   -118365.41700  24574469.46800
 -16746980.24200  20766936.54200                 -12920480.11440  20766940.66740
 96  9  4  4 13 29.9990000  0  7  3 14 18 19 22 28 29
  -1848138.41500  24337799.39400                  -1310834.61440  24337803.94040
   3270178.43800  22127868.19000                   2592345.66840  22127873.90940
 -21610996.58200  20497669.90900                 -16197601.60640  20497674.43340
 -14691255.14500  22102656.32300                 -11252383.18340  22102662.26540
 -14440414.06500  21653421.33900                   2134380.47540  21653425.95640
   -185334.50900  24568103.15100                   -144416.63500  24568107.25700
 -16726796.85400  20770777.22200                 -12904752.80440  20770781.25340
 96  9  4  4 13 59.9990000  0  7  3 14 18 19 22 28 29
  -1930056.01800  24322209.72200                  -1374666.48740  24322215.21840
   3356602.81300  22144314.51100                   2659689.32640  22144320.21840
 -21668996.95500  20486632.75300                 -16242796.69640  20486637.31240
 -14766862.83900  22088268.96400                 -11311298.22440  22088274.75340
 -14385066.77900  21663953.37000                   2177508.23440  21663958.02240
   -218252.15700  24561838.81500                   -170066.72200  24561843.89700
 -16706221.42800  20774692.64400                 -12888720.00740  20774696.67540
 96  9  4  4 14 29.9990000  0  7  3 14 18 19 22 28 29
  -2011764.24800  24306661.77600                  -1438335.20940  24306667.69440
   3443350.93200  22160821.89400                   2727285.26040  22160827.39040
 -21726642.87400  20475663.05800                 -16287715.58840  20475667.52240
 -14842218.05500  22073929.60500                 -11370016.52740  22073935.19440
 -14329199.12600  21674584.32300                   2221041.46640  21674589.16340
   -250663.49100  24555670.96400                   -195322.29600  24555675.88600
 -16685252.85700  20778682.69000                 -12872380.86140  20778686.69840
 96  9  4  4 14 59.9990000  0  7  3 14 18 19 22 28 29
  -2093246.18800  24291157.34700                  -1501827.60940  24291163.17140
   3530406.24200  22177388.23700                   2795120.55640  22177393.74540
 -21783917.04200  20464764.18300                 -16332344.80140  20464768.65940
 -14917338.05700  22059634.70600                 -11428551.54440  22059640.33140
 -14272817.07100  21685313.62000                   2264975.53340  21685318.21440
   -282571.37500  24549598.44000                   -220185.56100  24549604.40100
 -16663898.83900  20782746.17500                 -12855741.37240  20782750.20640
 96  9  4  4 15 29.9990000  0  7  3 14 18 19 22 28 29
  -2174487.47400  24275697.51100                  -1565132.47040  24275701.20240
   3617776.48500  22194013.81500                   2863201.25540  22194019.56940
 -21840801.71800  20453939.23000                 -16376670.51740  20453943.68340
 -14992200.41200  22045388.60500                 -11486885.80340  22045394.27640
 -14215922.11000  21696140.22200                   2309309.27140  21696145.22640
   -313962.71000  24543625.48700                   -244646.30300  24543629.98300
 -16642159.35300  20786883.09700                 -12838801.51540  20786887.04640
 96  9  4  4 15 59.9990000  0  7  3 14 18 19 22 28 29
  -2255476.40900  24260283.90100                  -1628240.70440  24260288.77640
   3705467.31600  22210701.19000                   2931531.77040  22210706.67540
 -21897295.79700  20443188.78400                 -16420691.87040  20443193.24940
 -15066798.38900  22031193.10500                 -11545014.05940  22031198.98740
 -14158511.75100  21707065.27600                   2354044.61440  21707069.87040
   -344827.58900  24537751.75300                   -268696.83500  24537756.53800
 -16620035.11600  20791093.37000                 -12821561.85340  20791097.54240
 96  9  4  4 16 29.9990000  0  7  3 14 18 19 22 28 29
  -2336224.18200  24244920.53400                  -1691161.01640  24244927.30840
   3793480.87100  22227449.25300                   3000113.75540  22227455.13640
 -21953423.81100  20432507.85500                 -16464427.98140  20432512.47240
 -15141126.90000  22017048.53400                 -11602932.33940  22017054.20640
 -14100608.06800  21718083.85500                   2399164.37040  21718088.62440
   -375169.59600  24531977.74500                   -292339.93500  24531982.63200
 -16597533.98900  20795374.98000                 -12804028.50740  20795379.05840
 96  9  4  4 16 59.9990000  0  7  3 14 18 19 22 28 29
  -2416735.46000  24229598.03400                  -1753897.02440  24229603.80040
   3881832.53000  22244262.26900                   3068959.19440  22244268.10540
    -20406.51510  20421895.58100
 -15215175.32100  22002957.74500                 -11660632.36440  22002963.89740
 -14042228.65700  21729193.03400                   2444654.81640  21729197.98040
   -404991.01600  24526302.37000                   -315577.35500  24526307.89000
 -16574660.48100  20799727.71400                 -12786204.99740  20799731.73340
 96  9  4  4 17 29.9990000  0  7  3 14 18 19 22 28 29
  -2497020.21900  24214321.27600                  -1816456.53340  24214326.72640
   3970510.35200  22261137.05000                   3138058.77940  22261142.94440
    -75841.37500  20411346.64400                    -15807.10450  20411351.09740
 -15288953.34100  21988918.25300                 -11718121.69440  21988923.59740
 -13983376.27000  21740392.00300                   2490513.82040  21740396.63240
   -434298.32000  24520725.30000                   -338414.18900  24520730.70600
 -16551417.06700  20804150.86200                 -12768093.25040  20804154.90540
 96  9  4  4 17 59.9990000  0  7  3 14 18 19 22 28 29
  -2577075.97900  24199086.44800                  -1878837.62640  24199091.31240
   4059523.95000  22278075.68300                   3207420.02640  22278081.36640
   -130938.41300  20400862.05000                    -58739.84640  20400866.64440
 -15362477.16000  21974927.15100                 -11775412.93940  21974933.04640
 -13924060.96300  21751679.95600                   2536733.54140  21751684.64440
   -463086.97000  24515247.24500                   -360846.87600  24515251.78800
 -16527803.68700  20808644.26900                 -12749693.21840  20808648.25340
 96  9  4  4 18 29.9990000  0  7  3 14 18 19 22 28 29
  -2656889.53200  24183898.21400                  -1941030.02040  24183902.38640
   4148865.83600  22295077.08900                   3277037.06640  22295082.78440
   -185689.37400  20390443.15900                   -101402.92640  20390447.65940
 -15435744.81800  21960984.65900                 -11832504.57940  21960990.30840
 -13864273.91100  21763056.86200                   2583320.85540  21763061.73740
   -491351.16000  24509869.19800                   -382870.89500  24509873.09300
 -16503803.31200  20813211.37000                 -12730991.63240  20813215.35540
 96  9  4  4 18 59.9990000  0  7  3 14 18 19 22 28 29
  -2736451.63900  24168757.95600                  -2003026.41240  24168764.58940
   4238508.39300  22312135.01900                   3346888.39740  22312140.73740
   -240097.01900  20380089.75300                   -143798.49140  20380094.27640
 -15508786.11300  21947085.48000                 -11889419.84040  21947091.39740
 -13804016.93600  21774523.25300                   2630274.34640  21774528.12840
   -519100.43000  24504588.67500                   -404493.70700  24504592.79200
 -16479429.92100  20817849.56500                 -12711999.38140  20817853.55040
 96  9  4  4 19 29.9990000  0  7  3 14 18 19 22 28 29
  -2815755.72600  24153667.21400                  -2064821.80540  24153672.30040
   4328449.29500  22329250.75300                   3416972.21340  22329256.36640
   -294149.90100  20369804.10500                   -185917.61240  20369808.58140
 -15581607.63900  21933227.94000                 -11946163.84640  21933233.54240
 -13743276.50200  21786081.83100                   2677604.55740  21786086.89440
   -546325.59000  24499408.69800                   -425708.06800  24499412.30400
 -16454681.12900  20822558.96400                 -12692714.60740  20822562.96040
 96  9  4  4 19 59.9990000  0  7  3 14 18 19 22 28 29
  -2894788.40500  24138627.72200                  -2126405.66540  24138632.60840
   4418695.96500  22346423.83100                   3487294.28540  22346429.45640
   -347840.31300  20359587.00300                   -227754.29040  20359591.48040
 -15654205.99800  21919412.83900                 -12002733.96540  21919418.81540
 -13682051.34900  21797732.60500                   2725312.46740  21797737.22240
   -573021.22500  24494328.79200                   -446509.82400  24494332.62800
 -16429544.26500  20827342.33100                 -12673127.44240  20827346.32740
 96  9  4  4 20 29.9990000  0  7  3 14 18 19 22 28 29
  -2973562.41700  24123637.33900                  -2187787.98140  24123642.77640
   4509212.05300  22363648.38600                   3557826.29440  22363653.96440
   -401195.43500  20349433.72200                   -269329.70440  20349438.21040
 -15726583.17000  21905639.83900                 -12059131.72040  21905645.53440
 -13620347.69600  21809474.37800                   2773393.23040  21809479.27640
   -599202.87200  24489345.78400                   -466911.08900  24489350.10500
 -16404025.59700  20832198.51900                 -12653242.76940  20832202.51540
 96  9  4  4 20 59.9990000  0  7  3 14 18 19 22 28 29
  -3052069.57000  24108697.51100                  -2248962.36540  24108703.28840
   4600012.85600  22380927.30000                   3628580.15740  22380932.58540
   -454184.84500  20339350.14400                   -310620.14640  20339354.69040
 -15798711.14200  21891914.16700                 -12115335.30240  21891919.78040
 -13558152.88600  21821309.66700                   2821856.71940  21821314.37840
   -624851.04800  24484465.55000                   -486896.66300  24484468.86200
 -16378115.01600  20837129.15100                 -12633052.70440  20837133.06540
 96  9  4  4 21 29.9990000  0  7  3 14 18 19 22 28 29
  -3130328.89800  24093805.47200                  -2309943.65640  24093811.58940
   4691089.54400  22398259.24500                   3699548.99540  22398265.21040
   -506805.24700  20329337.09700                   -351623.05240  20329341.65540
 -15870574.47800  21878239.24500                 -12171332.67940  21878244.75340
 -13495476.34500  21833236.75300                   2870695.58540  21833241.71040
   -649971.63300  24479685.51900                   -506471.12000  24479688.64700
 -16351811.68900  20842134.47200                 -12612556.60440  20842138.38640
 96  9  4  4 21 59.9990000  0  7  3 14 18 19 22 28 29
  -3208335.67100  24078962.65100                  -2370728.11040  24078966.95240
   4782437.81300  22415641.58100                   3770729.46240  22415647.28840
   -559059.30000  20319393.40900                   -392340.49340  20319397.95640
 -15942150.59600  21864618.66700                 -12227106.24440  21864624.35140
 -13432332.95000  21845252.32300                   2919898.21740  21845256.77640
   -674563.36400  24475005.40100                   -525633.45900  24475008.80000
 -16325111.79600  20847215.23000                 -12591751.49940  20847219.21440
 96  9  4  4 22 29.9990000  0  7  3 14 18 19 22 28 29
  -3286103.87300  24064162.99500                  -2431326.68740  24064168.79640
   4874045.96400  22433073.99500                   3842112.41840  22433079.53840
   -610933.77600  20309521.94000                   -432762.16140  20309526.44040
 -16013439.28600  21851053.19000                 -12282655.83640  21851058.45240
 -13368743.37000  21857353.35500                   2969448.54140  21857358.12440
   -698634.89800  24470424.67500                   -544390.48500  24470428.35800
 -16298038.66400  20852367.24500                 -12570655.56140  20852371.17140
 96  9  4  4 22 59.9990000  0  7  3 14 18 19 22 28 29
  -3363610.83200  24049413.67500                  -2491721.67140  24049418.31540
   4965934.04900  22450560.26900                   3913713.51640  22450565.56540
   -662407.09600  20299727.15900                   -472871.23940  20299731.70640
 -16084430.32800  21837543.85500                 -12337973.50540  21837549.22240
 -13304704.88600  21869539.45600                   3019348.66140  21869544.14440
   -722178.30300  24465944.42500                   -562735.96700  24465948.19800
 -16270586.52100  20857591.09700                 -12549264.28040  20857595.01140
 96  9  4  4 23 29.9990000  0  7  3 14 18 19 22 28 29
  -3440855.23200  24034714.28400                  -2551912.10440  24034719.05440
   5058105.97300  22468099.63600                   3985535.78940  22468105.40140
   -713505.34500  20290003.26900                   -512688.05140  20290007.81540
 -16155147.13000  21824086.62800                 -12393077.46140  21824092.00740
 -13240230.84000  21881808.31500                   3069588.18440  21881813.17940
   -745201.50500  24461563.12000                   -580676.08900  24461567.30000
 -16242760.17000  20862886.25300                 -12527581.41240  20862890.30840
 96  9  4  4 23 59.9990000  0  7  3 14 18 19 22 28 29
  -3517830.83600  24020067.39400                  -2611893.09440  24020072.94840
   5150557.31900  22485692.40100                   4057575.78040  22485698.05040
   -764247.70100  20280347.12800                   -552227.54640  20280351.65140
 -16225623.61100  21810675.44800                 -12447994.17540  21810681.06240
 -13175337.39600  21894157.19000                   3120154.49140  21894161.70240
   -767716.70100  24457278.78400                   -598220.35900  24457283.25300
 -16214575.00200  20868249.72200                 -12505618.95440  20868253.68340
 96  9  4  4 24 29.9990000  0  7  3 14 18 19 22 28 29
  -3594486.73600  24005478.37000                  -2671624.91440  24005484.32340
   5243317.29400  22503344.23000                   4129856.28340  22503349.98340
   -814600.18100  20270765.60500                   -591463.24040  20270769.98740
 -16295848.24000  21797312.19000                 -12502714.63440  21797317.64040
 -13109988.21700  21906592.52600                   3171075.93040  21906597.34340
   -789692.54400  24453096.98700                   -615344.35800  24453100.87000
 -16186004.76100  20873686.37000                 -12483356.43040  20873690.28440
 96  9  4  4 24 59.9990000  0  7  3 14 18 19 22 28 29
  -3670832.03600  23990950.33900                  -2731114.72840  23990955.43740
   5336364.63300  22521050.42500                   4202360.69740  22521056.12040
   -864600.69600  20261250.80000                   -630424.67340  20261255.23040
 -16365850.18100  21783991.18300                 -12557261.58940  21783996.40940
 -13044192.82700  21919113.14400                   3222345.06640  21919117.90140
   -811143.83300  24449014.68300                   -632059.63000  24449018.01500
 -16157060.68400  20879194.51100                 -12460802.60640  20879198.63640
 96  9  4  4 25 29.9990000  0  7  3 14 18 19 22 28 29
  -3746897.58900  23976476.47200                  -2790386.54440  23976481.90940
   5429666.16400  22538805.23700                   4275063.18140  22538811.07340
   -914271.52500  20251798.67500                   -669129.21540  20251803.12840
 -16435660.33300  21770706.69800                 -12611659.09040  21770712.15940
 -12977975.43900  21931714.07300                   3273943.02740  21931719.07740
   -832082.24000  24445030.48700                   -648375.25800  24445034.09300
 -16127762.64700  20884769.61200                 -12437972.97340  20884773.58540
 96  9  4  4 25 59.9990000  0  7  3 14 18 19 22 28 29
  -3822681.07400  23962056.15900                  -2849438.61840  23962060.29640
   5523205.30700  22556605.32300                   4347950.82940  22556611.20640
   -963588.59800  20242413.95600                   -707558.09940  20242418.42140
 -16505256.40400  21757463.01900                 -12665889.77340  21757468.56240
 -12911326.15500  21944396.77600                   3325877.53540  21944401.56940
   -852496.42900  24441145.58900                   -664282.39400  24441149.74500
 -16098106.87100  20890413.12800                 -12414864.58340  20890417.21840
 96  9  4  4 26 29.9990000  0  8  3 14 18 19 22 27 28 29
  -3898206.67600  23947683.32300                  -2908289.68840  23947689.11240
   5616961.41800  22574446.03400                   4421007.52740  22574451.51940
  -1012551.11700  20233096.80800                   -745710.70340  20233101.26140
 -16574629.69300  21744261.80800                 -12719946.84840  21744267.37440
 -12844251.42100  21957160.74500                   3378143.55240  21957165.26940
    -15668.59910  24802969.15900
   -872387.67100  24437360.61200                   -679782.08400  24437364.35800
 -16068096.14800  20896123.70600                 -12391479.60240  20896127.66740
 96  9  4  4 26 59.9990000  0  8  3 14 18 19 22 27 28 29
  -3973495.10000  23933357.64400                  -2966955.97940  23933362.26140
   5710936.05900  22592329.18300                   4494234.51640  22592335.04240
  -1061146.02200  20223849.40900                   -783576.85940  20223853.81540
 -16643755.98000  21731107.33100                 -12773811.46640  21731112.88640
 -12776743.79000  21970007.19000                   3430746.89940  21970012.03040
   -109633.58700  24785088.65900
   -891743.11200  24433677.63600                   -694864.24600  24433681.68700
 -16037715.94200  20901904.84700                 -12367806.72040  20901908.92540
 96  9  4  4 27 29.9990000  0  8  3 14 18 19 22 27 28 29
  -4048554.39900  23919073.98000                  -3025443.74040  23919078.73740
   5805119.94700  22610251.53400                   4567624.54740  22610257.45240
  -1109368.73500  20214672.73700                   -821152.99040  20214677.15540
 -16712630.58800  21718001.05800                 -12827479.97140  21718006.28440
 -12708822.52400  21982932.24500                   3483672.55940  21982937.02640
   -203490.77200  24767226.76900
   -910571.66300  24430094.52600                   -709535.81500  24430098.18700
 -16006969.50800  20907755.87800                 -12343848.46640  20907759.92140
 96  9  4  4 27 59.9990000  0  8  3 14 18 19 22 27 28 29
  -4123376.70400  23904834.48700                  -3083746.79540  23904840.11240
   5899523.15500  22628215.76900                   4641185.48840  22628221.58140
  -1157213.63400  20205568.23000                   -858434.72040  20205572.70640
 -16781241.68700  21704944.69000                 -12880943.15240  21704950.49140
 -12640492.07200  21995934.71400                   3536917.06140  21995939.65940
   -297236.15100  24749388.97200
   -928877.39300  24426610.85500                   -723799.98500  24426614.97600
 -15975840.95300  20913679.30000                 -12319592.45540  20913683.29640
 96  9  4  4 28 29.9990000  0  8  3 14 18 19 22 27 28 29
  -4197939.18500  23890647.25300                  -3141847.42440  23890652.90140
   5994169.01000  22646226.40100                   4714935.50540  22646232.00340
  -1204672.44100  20196537.15100                   -895415.60440  20196541.56940
 -16849592.96100  21691937.87000                 -12934203.85840  21691943.47240
 -12571755.81800  22009015.15100                   3590477.77340  22009019.94440
   -390858.77100  24731571.84700
   -946651.56000  24423228.61200                   -737649.98100  24423232.51100
 -15944316.34000  20919678.31500                 -12295027.83140  20919682.30040
 96  9  4  4 28 59.9990000  0  8  3 14 18 19 22 27 28 29
  -4272223.39600  23876510.04200                  -3199731.17240  23876514.91740
   6089063.06400  22664283.64400                   4788878.91540  22664289.37440
  -1251739.07000  20187580.67500                   -932090.89040  20187585.17540
 -16917690.05600  21678979.19800                 -12987266.50440  21678984.53040
 -12502614.72700  22022171.85500                   3644353.94640  22022176.84740
   -484354.78400  24713780.67500
   -963892.12000  24419948.08900                   -751084.17400  24419951.94000
 -15912397.28700  20925752.32300                 -12270155.84140  20925756.37840
 96  9  4  4 29 29.9990000  0  8  3 14 18 19 22 27 28 29
  -4346200.19500  23862432.26100                  -3257375.41940  23862436.55040
   6184214.07400  22682390.91700                   4863022.56040  22682396.74140
  -1298403.87400  20178700.58900                   -968453.06540  20178705.01940
 -16985544.98800  21666066.90900                 -13040140.45540  21666072.33540
 -12433066.22200  22035406.62800                   3698547.58540  22035411.36240
   -577741.26400  24696010.01900                    -24245.11050  24696020.31240
   -980594.87100  24416770.08900                   -764099.28500  24416773.48300
 -15880075.31000  20931902.98700                 -12244969.89440  20931907.01940
 96  9  4  4 29 59.9990000  0  8  3 14 18 19 22 27 28 29
  -4419865.99500  23848414.52600                  -3314777.33140  23848419.65940
   6279602.98700  22700542.60500                   4937351.56940  22700548.46440
  -1344675.66000  20169895.43300                  -1004508.99140  20169899.86240
 -17053172.71700  21653197.80000                 -13092837.36040  21653203.40140
 -12363101.97300  22048720.42500                   3753065.18340  22048725.42940
   -671037.77300  24678256.19000                    -96943.62340  24678270.99540
   -996764.47900  24413692.74500                   -776698.95800  24413696.21800
 -15847376.96300  20938125.25300                 -12219490.66340  20938129.27240
 96  9  4  4 30 29.9990000  0  8  3 14 18 19 22 27 28 29
  -4493205.62400  23834459.23000                  -3371925.02640  23834463.99940
   6375216.25600  22718737.40100                   5011855.39340  22718743.26140
  -1390558.28900  20161164.18300                  -1040261.68240  20161168.61240
 -17120588.23600  21640368.93300                 -13145368.90740  21640374.19440
 -12292718.14900  22062113.79200                   3807909.71740  22062118.86640
   -764264.31900  24660514.76900
  -1012403.74400  24410716.40900                   -788885.39800  24410720.46800
 -15814333.20700  20944413.28400                 -12193742.29240  20944417.29240
 96  9  4  4 30 59.9990000  0  8  3 14 18 19 22 27 28 29
  -4566195.29600  23820568.77600                  -3428800.10340  23820574.10840
   6471067.95900  22736977.15900                   5086545.04740  22736983.07740
  -1436040.52200  20152509.19000                  -1075702.37040  20152513.69040
 -17187763.87600  21627586.04200                 -13197713.53140  21627591.64440
 -12221894.03500  22075591.51100                   3863097.34140  22075596.33940
   -857400.40000  24642792.70600
  -1027495.39700  24407844.55800                   -800645.10400  24407848.62400
 -15780922.28300  20950771.13600                 -12167707.81140  20950775.17940
 96  9  4  4 31 29.9990000  0  8  3 14 18 19 22 27 28 29
  -4638841.51700  23806745.51100                  -3485407.50640  23806750.17540
   6567145.78600  22755260.03400                   5161410.86940  22755265.56540
  -1481150.81200  20143925.07300                  -1110853.23240  20143929.55040
 -17254710.70500  21614846.52600                 -13249879.87440  21614852.08140
 -12150652.53700  22089148.44000                   3918610.19240  22089153.06940
   -950452.42000  24625085.23700
  -1042054.99200  24405073.82300                   -811990.23800  24405077.37400
 -15747153.67600  20957197.15900                 -12141394.61640  20957201.23740
 96  9  4  4 31 59.9990000  0  8  3 14 18 19 22 27 28 29
  -4711151.16700  23792984.50300                  -3541752.67840  23792988.92140
   6663449.49400  22773586.71400                   5236452.73140  22773592.90140
  -1525890.81800  20135411.37800                  -1145715.56340  20135415.89040
 -17321419.69100  21602152.24500                 -13301860.87940  21602157.43740
 -12079009.04400  22102781.54200                   3974436.29140  22102785.87840
  -1043415.50600  24607395.23000                    -55526.85950  24607398.41740
  -1056080.99100  24402404.39400                   -822919.56400  24402408.22600
 -15713034.45000  20963689.82300                 -12114808.21340  20963693.90140
 96  9  4  4 32 29.9990000  0  8  3 14 18 19 22 27 28 29
  -4783122.42500  23779289.26100                  -3597834.13140  23779293.96040
   6759996.04100  22791957.74500                   5311683.79940  22791964.00340
  -1570244.58300  20126970.96400                  -1180276.92840  20126975.41740
 -17387869.63200  21589507.02600                 -13353640.02640  21589512.44040
 -12006980.30200  22116488.08100                   4030562.58940  22116492.90940
  -1136264.28300  24589726.49500                   -127876.48940  24589730.36240
  -1069558.08200  24399839.51900                   -833421.17000  24399843.63600
 -15678529.29000  20970255.93300                 -12087921.08240  20970260.02240
 96  9  4  4 32 59.9990000  0  8  3 14 18 19 22 27 28 29
  -4854783.29400  23765652.13600                  -3653673.72940  23765657.01140
   6856781.93000  22810376.83900                   5387101.37540  22810382.00740
  -1614217.14500  20118603.55000                  -1214541.25640  20118607.95640
 -17454048.24300  21576913.75300                 -13405207.74540  21576919.16740
 -11934576.61300  22130266.19000                   4086981.04840  22130271.08940
  -1228982.70200  24572080.62000
  -1082485.66500  24397379.73000                   -843494.60900  24397384.00300
 -15643624.03200  20976898.14400                 -12060722.18240  20976902.26940
 96  9  4  4 33 29.9990000  0  9  3 14 18 19 22 27 28 29 31
  -4926163.21800  23752070.19000                  -3709294.41940  23752074.53840
   6953783.42200  22828835.73700                   5462686.94740  22828841.58540
  -1657809.32500  20110308.01100                  -1248509.17940  20110312.46440
 -17519969.75300  21564369.33900                 -13456575.12440  21564374.60140
 -11861806.22900  22144113.82300                   4143685.24840  22144118.60540
  -1321604.44400  24554456.61200
  -1094878.72200  24395021.46400                   -853151.51700  24395025.13600
 -15608347.48000  20983611.10500                 -12033233.96340  20983615.19440
    -57990.92610  24415511.15100
 96  9  4  4 33 59.9990000  0  9  3 14 18 19 22 27 28 29 31
  -4997255.38300  23738541.58900                  -3764690.90740  23738546.37040
   7051000.50700  22847334.71400                   5538440.52240  22847340.39740
  -1700993.78900  20102090.13600                  -1282159.40340  20102094.56540
 -17585611.76200  21551878.12800                 -13507724.72140  21551883.49540
 -11788650.51200  22158034.85500                   4200689.70840  22158039.33140
  -1414119.67400  24536852.64400
  -1106723.54900  24392767.00300                   -862381.25600  24392771.44000
 -15572691.23200  20990396.29200                 -12005449.87840  20990400.41740
   -160335.59200  24396037.18300
 96  9  4  4 34 29.9990000  0  9  3 14 18 19 22 27 28 29 31
  -5068046.66200  23725069.23700                  -3819852.89140  23725073.96040
   7148431.90500  22865875.12000                   5614361.08440  22865880.83940
  -1743770.53500  20093950.07300                  -1315491.92540  20093954.38640
 -17650966.44400  21539441.40100                 -13558650.41340  21539446.81540
 -11715090.43800  22172032.92500                   4258009.25140  22172037.68340
  -1506518.12300  24519268.83100
  -1118017.70500  24390618.42500                   -871181.88800  24390622.67900
 -15536643.90600  20997255.86200                 -11977361.05440  20997259.95240
   -262681.78300  24376560.90100                     -2655.86950  24376566.24540
 96  9  4  4 34 59.9990000  0  9  3 14 18 19 22 27 28 29 31
  -5138509.94400  23711661.05800                  -3874759.34440  23711665.37040
   7246082.79400  22884457.92500                   5690452.69040  22884463.63240
  -1786128.32000  20085889.74500                  -1348497.98240  20085894.12840
 -17716033.19400  21527059.90100                 -13609351.75240  21527065.32740
 -11641095.00400  22186113.54200                   4315668.03240  22186118.38240
  -1598809.74700  24501705.76100
  -1128753.29700  24388575.05000                   -879547.26100  24388580.08500
 -15500202.39200  21004190.33100                 -11948965.07640  21004194.38640
   -365018.04800  24357088.65100                    -82398.40940  24357093.92540
 96  9  4  4 35 29.9990000  0  9  3 14 18 19 22 27 28 29 31
  -5208631.04000  23698317.76100                  -3929399.11040  23698324.13640
   7343939.25100  22903079.29200                   5766704.48040  22903084.58940
  -1828068.87100  20077908.69800                  -1381178.92540  20077913.05840
 -17780834.10700  21514728.20600                 -13659845.93540  21514733.53840
 -11566681.09700  22200274.44800                   4373652.90440  22200278.97240
  -1691012.97800  24484159.98700
  -1138939.77000  24386636.55000                   -887484.76900  24386641.62400
 -15463382.26800  21011196.96400                 -11920274.07740  21011201.03040
   -467333.59000  24337616.94800                   -162124.86640  24337622.30440
 96  9  4  4 35 59.9990000  0  9  3 14 18 19 22 27 28 29 31
  -5278391.21900  23685042.43300                  -3983757.65840  23685047.64740
   7442003.71500  22921739.90900                   5843118.33740  22921745.74540
  -1869603.31300  20070004.87000                  -1413543.42240  20070009.30040
 -17845375.53200  21502446.47200                 -13710137.92940  21502452.07340
 -11491857.53300  22214512.86200                   4431956.98440  22214517.40940
  -1783111.89000  24466634.19800                    -47831.82450  24466637.92540
  -1148571.92900  24384803.21400                   -894990.34800  24384808.34700
 -15426175.03600  21018277.32300                 -11891281.43040  21018281.37840
   -569616.99000  24318154.83900                   -241826.21340  24318158.06240
 96  9  4  4 36 29.9990000  0  9  3 14 18 19 22 27 28 29 31
  -5347783.03900  23671838.44000                  -4037829.19740  23671842.22640
   7540283.55500  22940442.28400                   5919700.02740  22940447.88640
  -1910736.81800  20062177.62000                  -1445595.50140  20062181.98040
 -17909673.81600  21490210.90900                 -13760240.45340  21490216.17140
 -11416627.55200  22228828.41700                   4490577.75840  22228833.23340
  -1875120.71900  24449125.94000                   -119526.93640  24449134.47640
  -1157651.57100  24383075.59700                   -902065.38600  24383080.30400
 -15388582.80200  21025430.93300                 -11861988.78840  21025434.87040
   -671864.64500  24298694.08100                   -321499.71540  24298699.22640
 96  9  4  4 36 59.9990000  0  9  3 14 18 19 22 27 28 29 31
  -5416808.71800  23658702.73700                  -4091615.40140  23658706.90940
   7638779.63900  22959185.77600                   5996450.21940  22959191.65940
  -1951456.36500  20054428.86200                  -1477325.01640  20054433.18740
 -17973736.25100  21478020.40100                 -13810159.20940  21478025.72240
 -11341006.97800  22243218.45600                   4549502.89040  22243222.98040
  -1967042.49600  24431633.48000                   -191154.10240  24431636.15140
  -1166177.49600  24381453.67500                   -908708.96000  24381457.71400
 -15350607.98900  21032657.35500                 -11832398.03140  21032661.46840
   -774075.05700  24279248.62800                   -401144.18040  24279253.45640
 96  9  4  4 37 29.9990000  0  9  3 14 18 19 22 27 28 29 31
  -5485481.36800  23645634.50300                  -4145126.54840  23645638.13640
   7737487.11300  22977969.58100                   6073365.13840  22977975.08940
  -1991769.79000  20046757.45600                  -1508738.07140  20046761.88640
 -18037559.87200  21465874.87800                 -13859891.86440  21465880.03440
 -11265016.54800  22257679.19800                   4608716.21440  22257683.94440
  -2058857.45000  24414161.46400                   -262698.12340  24414162.73040
  -1174152.63400  24379935.90100                   -914923.36500  24379939.85500
 -15312249.93000  21039956.83900                 -11802508.63340  21039960.96440
   -876258.27000  24259801.46400                   -480767.49040  24259807.55840
 96  9  4  4 37 59.9990000  0  9  3 14 18 19 22 27 28 29 31
  -5553795.69300  23632635.05000                  -4198358.48040  23632639.58540
   7836398.65600  22996791.25300                   6150439.07140  22996796.64440
  -2031664.10800  20039165.85500                  -1539824.54540  20039170.29640
 -18101136.62200  21453776.62000                 -13909432.15540  21453781.92940
 -11188656.68600  22272209.79200                   4668217.40840  22272214.69040
  -2150554.31200  24396712.58900                   -334150.27340  24396720.42140
  -1181570.26500  24378525.02600                   -920703.30300  24378527.90100
 -15273486.96800  21047332.82300                 -11772303.73540  21047336.81940
   -978419.50300  24240361.55000                   -560373.64240  24240366.78840
 96  9  4  4 38 29.9990000  0  9  3 14 18 19 22 27 28 29 31
  -5621751.25800  23619703.45600                  -4251310.82140  23619708.73040
   7935500.20700  23015649.86200                   6227661.05440  23015655.86240
  -2071120.07200  20031657.54200                  -1570569.44740  20031661.92540
 -18164459.39100  21441726.76900                 -13958774.55740  21441732.04240
 -11111936.88300  22286809.23000                   4727999.07440  22286814.25740
  -2242123.48200  24379288.13600                   -405502.77240  24379296.92940
  -1188428.64500  24377219.23700                   -926047.47400  24377223.00300
 -15234310.20100  21054787.79200                 -11741776.38840  21054791.92940
  -1080552.53800  24220925.42500                   -639957.79540  24220931.71840
 96  9  4  4 38 59.9990000  0  9  3 14 18 19 22 27 28 29 31
  -5689351.16100  23606840.18300                  -4303986.07640  23606844.56540
   8034770.98300  23034540.51100                   6305014.91040  23034546.25340
  -2110145.42300  20024231.36200                  -1600978.80740  20024235.74540
 -18227528.34900  21429725.13600                 -14007919.15940  21429730.40940
 -11034880.11600  22301472.14400                   4788043.31340  22301476.94840
  -2333554.83300  24361888.66700                   -476747.91140  24361893.81240
  -1194730.09800  24376020.09700                   -930957.68300  24376024.19000
 -15194723.67000  21062320.95600                 -11710929.74940  21062325.14040
  -1182652.54600  24201496.19000                   -719516.27240  24201503.42540
 96  9  4  4 39 29.9990000  0  9  3 14 18 19 22 27 28 29 31
  -5756570.99700  23594048.16700                  -4356365.15040  23594051.75340
   8134207.29400  23053461.72200                   6382497.76540  23053468.40140
  -2148742.91700  20016886.55800                  -1631054.77540  20016890.97640
 -18290332.76800  21417773.65900                 -14056857.63840  21417779.17940
 -10957473.07400  22316202.52600                   4848360.49240  22316207.55440
  -2424843.27000  24344517.10500                   -547881.72140  24344523.38640
  -1200465.81900  24374928.75300                   -935427.07800  24374932.69800
 -15154732.51200  21069930.90900                 -11679767.81840  21069934.95240
  -1284700.75000  24182076.44800                   -799034.34740  24182082.24940
 96  9  4  4 39 59.9990000  0  9  3 14 18 19 22 27 28 29 31
  -5823391.91900  23581332.62800                  -4408433.38540  23581338.18340
   8233811.57100  23072416.71400                   6460111.47740  23072421.81240
  -2186902.19300  20009624.86200                  -1660789.27240  20009629.18740
 -18352869.60100  21405873.35500                 -14105587.60140  21405878.73340
 -10879707.57000  22331000.72200                   4908956.98640  22331005.48040
  -2516000.18800  24327170.93300                   -618913.09040  24327177.86240
  -1205629.59100  24373945.72200                   -939450.78100  24373950.46400
 -15114347.88900  21077616.05000                 -11648299.27940  21077620.06940
  -1386673.82400  24162673.61200                   -878493.85740  24162679.89440
 96  9  4  4 40 29.9990000  0  9  3 14 18 19 22 27 28 29 31
  -5889819.51900  23568691.44000                  -4460195.10440  23568696.80840
   8333601.41900  23091405.74500                   6537869.80640  23091411.00740
  -2224635.00900  20002444.80800                  -1690191.46040  20002449.23740
 -18415137.55500  21394024.27600                 -14154108.05940  21394029.52640
 -10801576.17400  22345868.77600                   4969838.59840  22345873.52240
  -2607033.12400  24309847.08100                   -689847.83240  24309850.94840
  -1210223.41500  24373071.91700                   -943030.38400  24373076.68700
 -15073590.78400  21085371.94000                 -11616540.50940  21085375.98340
  -1488562.55700  24143282.61200                   -957887.67340  24143287.68740
 96  9  4  4 40 59.9990000  0  9  3 14 18 19 22 27 28 29 31
  -5955843.95300  23556127.79200                  -4511642.70340  23556131.97640
   8433595.96000  23110433.80000                   6615787.62840  23110440.03440
  -2261929.96200  19995347.58900                  -1719252.45940  19995352.03040
 -18477125.18800  21382228.21400                 -14202410.08340  21382233.47640
 -10723055.15500  22360810.95600                   5031023.81240  22360816.05440
  -2697939.93700  24292548.65100                   -760684.14640  24292554.35840
  -1214233.58600  24372308.67500                   -946155.18700  24372313.54200
 -15032463.16100  21093198.51100                 -11584493.01640  21093202.56540
  -1590355.93100  24123912.54200                  -1037207.17440  24123916.78440
 96  9  4  4 41 29.9990000  0  9  3 14 18 19 22 27 28 29 31
  -6021496.67900  23543633.66700                  -4562800.65840  23543638.21440
   8533755.07400  23129493.92500                   6693833.71040  23129500.08940
  -2298808.93400  19988329.81500                  -1747989.31840  19988334.29240
 -18538868.46900  21370478.94800                 -14250521.71140  21370484.12840
 -10644162.98700  22375823.55800                   5092498.22740  22375828.37440
  -2788749.59800  24275266.95600                   -831444.82740  24275271.60840
  -1217692.51200  24371651.04200                   -948850.44300  24371655.58100
 -14990990.58200  21101090.15900                 -11552176.73240  21101094.23740
  -1692075.53700  24104557.46400                  -1116469.21540  24104561.39040
 96  9  4  4 41 59.9990000  0  9  3 14 18 19 22 27 28 29 31
  -6086794.11900  23531208.60500                  -4613681.76740  23531212.99940
   8634088.80100  23148585.87800                   6772015.82640  23148591.80840
  -2335244.75700  19981396.27600                  -1776380.86540  19981400.70640
 -18600356.80700  21358778.13600                 -14298434.67240  21358783.44440
 -10564896.35500  22390907.38600                   5154264.43640  22390912.63640
  -2879446.82200  24258008.73700                   -902118.05340  24258012.61640
  -1220590.55700  24371099.51100                   -951108.65300  24371103.64400
 -14949138.60100  21109054.35500                 -11519564.80840  21109058.31540
  -1793716.46200  24085214.57300                  -1195669.92940  24085216.74140
 96  9  4  4 42 29.9990000  0  9  3 14 18 19 22 27 28 29 31
  -6151726.66200  23518852.13600                  -4664278.52940  23518857.25740
   8734606.61900  23167714.52600                   6850341.39240  23167720.14040
  -2371210.57900  19974552.35500                  -1804406.17340  19974556.80840
 -18661577.25000  21347128.32300                 -14346138.88440  21347133.45640
 -10485241.86300  22406065.24500                   5216332.87040  22406070.16740
  -2969998.48700  24240776.65100                   -972677.69140  24240783.93340
  -1222908.47400  24370658.19000                   -952914.81300  24370662.34700
 -14906868.61200  21117098.19000                 -11486627.15940  21117102.16340
  -1895265.07700  24065893.81500                  -1274798.75440  24065899.04240
 96  9  4  4 42 59.9990000  0  9  3 14 18 19 22 27 28 29 31
  -6216298.37100  23506564.16700                  -4714594.13440  23506569.35840
   8835280.13300  23186871.46400                   6928788.29940  23186876.96040
  -2406718.11600  19967795.44800                  -1832074.38040  19967799.90140
 -18722542.28800  21335527.07300                 -14393644.09040  21335532.41740
 -10405220.37400  22421292.74500                   5278687.27940  22421297.60840
  -3060411.19600  24223571.91700                  -1043129.08940  24223579.15140
  -1224657.30500  24370325.53400                   -954277.53900  24370329.58500
 -14864180.56400  21125221.38600                 -11453363.74940  21125225.45240
  -1996739.29600  24046581.37000                  -1353869.53840  24046586.69040
 96  9  4  4 43 29.9990000  0  9  3 14 18 19 22 27 28 29 31
  -6280494.88300  23494348.26100                  -4764617.37440  23494354.91740
   8936126.59300  23206062.25300                   7007369.98040  23206067.86640
  -2441754.97900  19961127.87000                  -1859375.82640  19961132.38240
 -18783242.37500  21323976.04200                 -14440942.83140  21323981.48040
 -10324836.44400  22436588.79200                   5341324.10940  22436593.12840
  -3150678.86900  24206394.94800                  -1113467.42940  24206400.25740
  -1225826.70600  24370102.48000                   -955188.75200  24370106.49500
 -14821044.29000  21133429.98700                 -11419751.07140  21133434.06540
  -2098124.06500  24027288.57300                  -1432870.68840  24027292.37040
 96  9  4  4 43 59.9990000  0  9  3 14 18 19 22 27 28 29 31
  -6344327.96700  23482200.48700                  -4814357.41440  23482205.14040
   9037152.10200  23225287.30800                   7086091.14740  23225292.23040
  -2476332.08800  19954548.23700                  -1886319.02340  19954552.65540
 -18843684.46200  21312474.24500                 -14488040.53640  21312479.36640
 -10244107.09300  22451951.74500                   5404230.09540  22451956.81940
  -3240834.10300  24189238.40900                  -1183718.17240  24189243.53040
  -1226426.23400  24369988.50300                   -955655.90300  24369992.59700
 -14777479.69700  21141720.19800                 -11385804.64240  21141724.30040
  -2199441.27000  24008008.57300                  -1511819.12340  24008014.59740
 96  9  4  4 44 29.9990000  0  9  3 14 18 19 22 27 28 29 31
  -6407756.84300  23470131.13600                  -4863782.48040  23470135.53040
   9138366.03800  23244548.35500                   7164959.15040  23244553.85140
  -2510464.80700  19948053.08900                  -1912915.93940  19948057.55440
 -18903859.71300  21301023.28400                 -14534930.32040  21301028.45240
 -10163022.90000  22467381.19000                   5467412.57940  22467386.60540
  -3330884.50800  24172101.96400                  -1253887.26440  24172106.38240
  -1226451.84500  24369983.47200                   -955675.85100  24369988.23300
 -14733509.79900  21150087.16700                 -11351542.39140  21150091.26940
  -2300678.14200  23988743.23700                  -1590705.01240  23988749.88240
 96  9  4  4 44 59.9990000  0  9  3 14 18 19 22 27 28 29 31
  -6470774.68100  23458138.56500                  -4912887.27840  23458142.96040
   9239773.62000  23263844.64400                   7243978.03340  23263850.26940
  -2544168.60400  19941639.42500                  -1939178.62840  19941643.87840
 -18963773.17000  21289622.23700                 -14581616.10540  21289627.31240
 -10081589.55700  22482877.37000                   5530867.13440  22482882.31540
  -3420855.85600  24154981.55000                  -1323994.71440  24154988.17140
  -1225910.98200  24370086.99500                   -955254.39400  24370091.29200
 -14689158.04900  21158527.11200                 -11316982.58940  21158531.15540
  -2401830.52600  23969497.98000                  -1669525.02940  23969502.45640
 96  9  4  4 45 29.9990000  0  9  3 14 18 19 22 27 28 29 31
  -6533371.22100  23446227.94800                  -4961663.78440  23446232.09740
   9341387.69800  23283180.94800                   7323157.86840  23283186.77240
  -2577431.78400  19935309.48700                  -1965097.98640  19935313.90540
 -19023417.65700  21278272.04200                 -14628092.30140  21278277.40940
  -9999802.37100  22498441.12000                   5594597.40340  22498446.14740
  -3510737.56500  24137877.30000                  -1394032.32540  24137881.75340
  -1224796.34100  24370298.96400                   -954385.82800  24370302.73300
 -14644429.30600  21167038.76100                 -11282129.02840  21167042.89740
  -2502879.80200  23950264.90100                  -1748264.74340  23950270.36240
 96  9  4  4 45 59.9990000  0  9  3 14 18 19 22 27 28 29 31
  -6595524.15200  23434400.06500                  -5010094.62340  23434405.18740
   9443209.12300  23302556.86200                   7402499.22640  23302563.26140
  -2610258.77000  19929062.73700                  -1990677.45140  19929067.15540
 -19082781.65800  21266975.54200                 -14674349.95240  21266981.05040
  -9917653.63600  22514073.51100                   5658609.40840  22514078.81940
  -3600510.32800  24120794.18300                  -1463985.02640  24120800.65140
  -1223102.45800  24370621.32300                   -953065.90000  24370625.70200
 -14599333.42700  21175620.37000                 -11246989.38640  21175624.40140
  -2603813.99200  23931056.10500                  -1826914.74940  23931060.64040
 96  9  4  4 46 29.9990000  0  9  3 14 18 19 22 27 28 29 31
  -6657233.53800  23422656.77600                  -5058179.81640  23422662.27240
   9545212.39100  23321968.44000                   7481982.30440  23321973.48040
  -2642659.82000  19922897.12800                  -2015925.01940  19922901.51140
 -19141880.82600  21255729.33900                 -14720401.23140  21255734.68340
  -9835163.99400  22529770.84700                   5722887.03840  22529775.92140
  -3690158.16000  24103735.35500                  -1533840.39340  24103739.69040
  -1220840.88300  24371051.30800                   -951303.60300  24371056.15100
 -14553882.39800  21184269.33100                 -11211573.01040  21184273.46840
  -2704632.72200  23911873.04200                  -1905474.78640  23911877.69440
 96  9  4  4 46 59.9990000  0  9  3 14 18 19 22 27 28 29 31
  -6718520.74400  23410994.94000                  -5105936.06640  23410999.75740
   9647386.49900  23341410.48700                   7561598.49340  23341416.28840
  -2674614.98200  19916816.21400                  -2040825.14040  19916820.67940
 -19200713.20900  21244533.72200                 -14766244.62440  21244539.12440
  -9752341.18700  22545531.17500                   5787424.29340  22545536.02640
  -3779662.00300  24086702.27600                  -1603583.55640  24086706.76540
  -1218002.59600  24371591.58900                   -949091.93400  24371596.21400
 -14508048.59700  21192991.11200                 -11175858.36040  21192995.16740
  -2805333.24100  23892710.80800                  -1983942.71240  23892716.30440
 96  9  4  4 47 29.9990000  0  9  3 14 18 19 22 27 28 29 31
  -6779402.52100  23399409.31500                  -5153376.39140  23399413.18340
   9749701.61500  23360881.23000                   7641324.55740  23360885.88240
  -2706130.29600  19910819.08900                  -2065382.52640  19910823.51940
 -19259282.76400  21233388.48700                 -14811883.21940  21233393.83140
  -9669194.65600  22561354.33100                   5852213.79340  22561359.21840
  -3869015.16600  24069699.41700                  -1673209.35540  24069706.09740
  -1214596.91000  24372239.80000                   -946438.14500  24372244.32300
 -14461834.24500  21201785.58100                 -11139847.18840  21201789.57740
  -2905929.08000  23873567.40900                  -2062329.03740  23873572.57740
 96  9  4  4 47 59.9990000  0  9  3 14 18 19 22 27 28 29 31
  -6839888.98300  23387899.24500                  -5200508.68440  23387902.70240
   9852124.49400  23380371.08900                   7721134.60540  23380376.28040
  -2737216.16600  19904903.69800                  -2089605.27640  19904908.09340
 -19317604.87100  21222290.26900                 -14857328.98640  21222295.50740
  -9585737.83100  22577235.62000                   5917245.07440  22577239.83940
  -3958242.11000  24052720.21400                  -1742736.76040  24052726.42540
  -1210640.36600  24372992.64400                   -943355.10900  24372996.65500
 -14415251.92900  21210649.82300                 -11103549.28740  21210653.93740
  -3006437.28200  23854441.05800                  -2140647.11240  23854446.75340
 96  9  4  4 48 29.9990000  0  9  3 14 18 19 22 27 28 29 31
  -6899954.33600  23376469.01100                  -5247312.84540  23376473.73340
   9954679.31200  23399886.68300                   7801047.46840  23399891.23040
  -2767817.71200  19899080.40100                  -2113450.62940  19899084.78440
 -19375638.05000  21211246.86200                 -14902549.62440  21211252.04240
  -9501939.99600  22593181.02600                   5982542.07740  22593185.93740
  -4047310.63700  24035770.07300                  -1812140.69840  24035776.71840
  -1206095.32700  24373857.26100                   -939813.49300  24373861.41700
 -14368249.07800  21219594.12800                 -11066923.69740  21219598.11240
  -3106823.54400  23835339.17500                  -2218870.10040  23835345.62040
 96  9  4  4 48 59.9990000  0  9  3 14 18 19 22 27 28 29 31
  -6959612.83300  23365116.28400                  -5293799.96440  23365121.69840
  10057345.96300  23419424.15900                   7881047.44640  23419429.85540
  -2797955.18500  19893345.23000                  -2136934.36940  19893349.55440
 -19433388.64300  21200257.10500                 -14947550.07440  21200262.14440
  -9417820.32500  22609188.95600                   6048089.87140  22609193.81940
  -4136245.04900  24018847.23000                  -1881440.14140  24018853.66340
  -1200980.05700  24374830.73700                   -935827.56600  24374834.72600
 -14320829.97500  21228617.60500                 -11029973.75440  21228621.84740
  -3207105.60000  23816255.37000                  -2297011.99140  23816259.03840
 96  9  4  4 49 29.9990000  0  9  3 14 18 19 22 27 28 29 31
  -7018818.75300  23353849.62800                  -5339934.43540  23353855.03040
  10160143.18000  23438984.77600                   7961149.17240  23438989.93340
  -2827609.98500  19887702.16700                  -2160041.99840  19887706.52640
 -19490850.31900  21189322.61200                 -14992325.39040  21189327.69840
  -9333369.86400  22625259.36200                   6113895.41940  22625264.19040
  -4225044.23100  24001948.12800                  -1950634.28040  24001952.86240
  -1195287.74400  24375913.87800                   -931391.99000  24375918.26100
 -14273001.65000  21237719.08100                 -10992704.93640  21237723.12440
  -3307256.71800  23797197.59700                  -2375051.81140  23797202.26140
 96  9  4  4 49 59.9990000  0  9  3 14 18 19 22 27 28 29 31
  -7077569.80300  23342669.69000                  -5385714.45240  23342675.12840
  10263071.30800  23458572.58900                   8041352.93140  23458577.39440
  -2856773.95000  19882152.46400                  -2182767.15840  19882156.88240
 -19548046.56700  21178438.32300                 -15036893.88140  21178443.60840
  -9248612.55600  22641388.09700                   6179940.07340  22641393.21840
  -4313729.01300  23985072.57300                  -2019739.20740  23985076.88640
  -1189024.39000  24377105.57300                   -926511.44700  24377109.88600
 -14224769.27200  21246897.56500                 -10955121.26840  21246901.72640
  -3407283.48500  23778162.05000                  -2452994.71340  23778168.05040
 96  9  4  4 50 29.9990000  0  9  3 14 18 19 22 27 28 29 31
  -7135876.61900  23331574.90900                  -5431148.32240  23331579.14040
  10366140.78300  23478184.35500                   8121666.80540  23478189.26540
  -2885453.31600  19876694.98700                  -2205114.71140  19876699.40540
 -19604989.42200  21167602.61200                 -15081264.91840  21167607.81540
  -9163553.02000  22657574.05000                   6246220.22340  22657578.29240
  -4402291.50300  23968219.70600                  -2088748.85040  23968224.81540
  -1182190.16400  24378406.23700                   -921186.06600  24378410.42900
 -14176135.29900  21256152.19800                 -10917224.67240  21256156.40540
  -3507176.72000  23759154.07300                  -2530833.59340  23759159.32340
 96  9  4  4 50 59.9990000  0  9  3 14 18 19 22 27 28 29 31
  -7193736.47400  23320563.95600                  -5476233.89740  23320569.53440
  10469341.92000  23497822.80800                   8202083.27440  23497829.52240
  -2913661.52600  19871327.05800                  -2227095.12640  19871331.46440
 -19661697.81600  21156811.42500                 -15125453.26440  21156816.60540
  -9078187.01500  22673818.33900                   6312739.20240  22673822.87440
  -4490742.56000  23951388.15900                  -2157671.63540  23951394.10140
  -1174789.49900  24379814.18300                   -915419.29900  24379818.53400
 -14127123.98500  21265478.72200                 -10879034.04140  21265482.87040
  -3606928.94800  23740170.92500                  -2608562.57640  23740175.94040
 96  9  4  4 51 29.9990000  0  9  3 14 18 19 22 27 28 29 31
  -7251139.49500  23309640.59700                  -5520963.49940  23309646.79640
  10572698.54400  23517492.83100                   8282620.92440  23517498.38640
  -2941371.72200  19866054.07300                  -2248687.48140  19866058.50340
 -19718158.12300  21146067.38600                 -15169448.29240  21146072.36640
  -8992495.64400  22690125.02600                   6379511.69340  22690130.15940
  -4579072.41000  23934579.51100                  -2226500.01040  23934584.28040
  -1166803.09800  24381334.35500                   -909196.15600  24381337.96000
 -14077730.41000  21274878.02600                 -10840545.54440  21274882.16340
  -3706521.30100  23721221.33900                  -2686166.98040  23721226.42540
 96  9  4  4 51 59.9990000  0  9  3 14 18 19 22 27 28 29 31
  -7308128.93600  23298795.43300                  -5565370.85740  23298800.50740
  10676188.05500  23537186.50300                   8363262.09740  23537191.75340
  -2968617.03400  19860869.33100                  -2269917.58940  19860873.78440
 -19774381.41600  21135368.51100                 -15213258.63840  21135373.56240
  -8906498.45200  22706490.15900                   6446522.47340  22706495.06940
  -4667282.05300  23917792.31500                  -2295234.69040  23917797.21440
  -1158246.57500  24382962.98000                   -902528.70700  24382966.30000
 -14027961.01700  21284348.87800                 -10801764.20640  21284352.86240
  -3805979.43100  23702293.92500                  -2763666.84140  23702299.10540
 96  9  4  4 52 29.9990000  0  9  3 14 18 19 22 27 28 29 31
  -7364691.21100  23288032.89400                  -5609445.32340  23288037.21840
  10779811.19000  23556904.04200                   8444007.43840  23556910.90140
  -2995400.00800  19855772.62000                  -2290787.43240  19855777.03840
 -19830331.74700  21124721.12800                 -15256856.29540  21124726.17940
  -8820188.59200  22722914.52600                   6513776.92340  22722919.29640
  -4755354.13000  23901034.11200                  -2363862.17340  23901040.81540
  -1149113.76800  24384700.48000                   -895412.20400  24384704.30800
 -13977808.41300  21293892.64400                 -10762684.25540  21293896.73340
  -3905282.46300  23683397.80800                  -2841045.79140  23683403.92540
 96  9  4  4 52 59.9990000  0  9  3 14 18 19 22 27 28 29 31
  -7420812.82300  23277352.80000                  -5653176.45640  23277358.14440
  10883554.25600  23576645.65100                   8524846.17740  23576652.15540
  -3021721.93500  19850763.88600                  -2311298.01740  19850768.39740
 -19886003.17700  21114127.54200                 -15300236.61840  21114132.68740
  -8733574.26200  22739396.74500                   6581268.58740  22739400.98740
  -4843313.56300  23884295.35500                  -2432401.95240  23884301.61240
  -1139411.76000  24386547.31500                   -887852.17500  24386551.21000
 -13927272.18700  21303509.15100                 -10723305.38740  21303513.52240
  -4004441.96500  23664526.30000                  -2918312.92440  23664533.23040
 96  9  4  4 53 29.9990000  0  9  3 14 18 19 22 27 28 29 31
  -7476490.97800  23266757.69800                  -5696562.01140  23266762.83140
  10987420.87600  23596411.49500                   8605781.22640  23596416.42940
  -3047571.60900  19845844.87800                  -2331440.61040  19845849.22640
 -19941395.85400  21103586.53400                 -15343399.73140  21103591.70240
  -8646661.48500  22755935.33100                   6648992.82440  22755940.25340
  -4931160.71400  23867579.01900                  -2500854.16440  23867584.30440
  -1129137.38600  24388502.08100                   -879846.14300  24388506.55800
 -13876340.36300  21313201.25300                 -10683618.25540  21313205.13240
  -4103456.03600  23645686.26900                  -2995466.74740  23645691.60140
 96  9  4  4 53 59.9990000  0  9  3 14 18 19 22 27 28 29 31
  -7531725.10000  23256247.19000
  11091392.32900  23616195.90900                   8686797.96440  23616200.03440
  -3072955.74700  19841014.39400                  -2351220.45340  19841018.77640
 -19996515.48400  21093097.55000                 -15386350.08340  21093102.89440
  -8559446.63900  22772531.86200                   6716952.44140  22772536.98340
  -5018899.23100  23850882.48000                  -2569221.76740  23850888.96040
  -1118293.91400  24390565.12000                   -871396.68700  24390569.81500
 -13825006.78300  21322969.62800                 -10643618.07140  21322973.88240
  -4202319.86500  23626872.05000                  -3072503.46240  23626877.76940
 96  9  4  4 54 29.9990000  0  9  3 14 18 19 22 27 28 29 31
  -7586496.69600  23245824.45600
  11195475.74000  23636002.15900                   8767901.92040  23636007.49140
  -3097857.67100  19836275.60500                  -2370624.54540  19836280.11640
 -20051353.02200  21082662.49500                 -15429080.62940  21082667.68740
  -8471916.20000  22789188.65900                   6785157.97140  22789193.78040
  -5106538.39800  23834205.42500                  -2637511.89240  23834209.52640
  -1106873.63700  24392738.22200                   -862497.77700  24392743.10500
 -13773263.81800  21332816.05800                 -10603298.88840  21332820.31240
  -4301021.39100  23608090.75300                  -3149413.75040  23608095.17140
 96  9  4  4 54 59.9990000  0  9  3 14 18 19 22 27 28 29 31
  -7640826.40400  23235484.44800
  11299662.34200  23655830.73700                   8849086.28840  23655835.22640
  -3122280.76100  19831628.15100                  -2389655.52240  19831632.65140
 -20105929.35300  21072276.87000                 -15471607.62440  21072282.12040
  -8384069.92300  22805905.31500                   6853609.62340  22805909.79240
  -5194075.67600  23817547.60500                  -2705722.68740  23817553.25340
  -1094877.71100  24395021.29200                   -853150.30300  24395025.66300
 -13721122.78700  21342738.28400                 -10562669.52240  21342742.36240
  -4399567.82700  23589337.29200                  -3226203.18940  23589342.58940
 96  9  4  4 55 29.9990000  0  9  3 14 18 19 22 27 28 29 31
  -7694739.20100  23225225.90100                    -40603.47450  23225230.62440
  11403945.66400  23675672.36200                   8930346.05740  23675679.49140
  -3146235.60100  19827069.58900                  -2408321.62540  19827074.05440
 -20160252.17800  21061939.48700                 -15513937.08240  21061944.55040
  -8295932.04200  22822677.26100                   6922288.47940  22822682.48740
  -5281490.20100  23800912.87800                  -2773837.79840  23800918.90140
  -1082312.92800  24397412.17500                   -843359.55600  24397416.61600
 -13668591.63200  21352734.56500                 -10521736.16540  21352738.80840
  -4497957.18300  23570615.49500                  -3302870.19840  23570619.46840
 96  9  4  4 55 59.9990000  0  9  3 14 18 19 22 27 28 29 31
  -7748234.11400  23215046.72200                    -82287.80440  23215052.37040
  11508340.96200  23695538.80800                   9011693.03140  23695544.28040
  -3169727.03000  19822599.26100                  -2426626.63040  19822603.79640
 -20214306.48200  21051653.40900                 -15556057.31140  21051658.47240
  -8207511.19100  22839503.06500                   6991187.83040  22839507.39040
  -5368766.75000  23784304.95600                  -2841845.46040  23784311.01540
  -1069181.19600  24399911.25300                   -833127.03500  24399915.28000
 -13615663.09300  21362806.50300                 -10480493.15340  21362810.73340
  -4596181.93400  23551923.02600                  -3379408.95540  23551926.83540
 96  9  4  4 56 29.9990000  0  9  3 14 18 19 22 27 28 29 31
  -7801295.89900  23204948.62800                   -123634.63240  23204954.28840
  11612852.18300  23715426.01100                   9093130.37240  23715429.62040
  -3192752.46000  19818217.76900                  -2444568.52440  19818222.21040
 -20268094.33500  21041417.69800                 -15597969.90640  21041422.94840
  -8118825.60000  22856379.55800                   7060293.48040  22856384.97240
  -5455892.53400  23767724.78400                  -2909735.61340  23767730.84340
  -1055481.42800  24402518.23000                   -822451.86300  24402522.18300
 -13562338.98200  21372953.63600                 -10438941.91540  21372957.92540
  -4694234.31800  23533264.75300                  -3455813.39540  23533270.23740
 96  9  4  4 56 59.9990000  0  8  3 14 18 19 22 27 29 31
  -7853905.36300  23194938.33900                   -164628.99640  23194942.73340
  11717482.34800  23735336.69800                   9174660.36140  23735342.60540
  -3215291.21100  19813928.93300                  -2462131.18940  19813933.39740
 -20321612.44200  21031233.44000                 -15639672.30940  21031238.46840
  -8029870.77900  22873306.55800                   7129608.90940  22873311.24540
  -5542845.36700  23751178.75300                  -2977490.97440  23751183.92140
 -13508605.54600  21383178.80000                 -10397071.71240  21383182.84340
  -4792102.12000  23514641.57300                  -3532074.04040  23514646.96440
 96  9  4  4 57 29.9990000  0  8  3 14 18 19 22 27 29 31
  -7906053.12300  23185014.28400                   -205263.59740  23185019.24140
  11822219.29100  23755268.26900                   9256273.59840  23755274.11640
  -3237345.16600  19809732.17500                  -2479316.08740  19809736.54640
 -20374870.16700  21021098.96400                 -15681171.81940  21021104.13240
  -7940660.54700  22890282.38600                   7199123.38140  22890287.50740
  -5629649.82900  23734659.57300                  -3045130.76540  23734665.52640
 -13454468.65700  21393480.48000                 -10354887.13340  21393484.76940
  -4889794.21000  23496051.07300                  -3608197.73640  23496057.98040
 96  9  4  4 57 59.9990000  0  8  3 14 18 19 22 27 29 31
  -7957717.31500  23175183.31500                   -245521.40940  23175187.68740
  11927050.96800  23775216.96400                   9337960.61040  23775223.64440
  -3258910.03300  19805628.56500                  -2496119.87640  19805632.86640
 -20427861.73100  21011015.01900                 -15722463.93640  21011020.11640
  -7851174.01500  22907311.73700                   7268853.13340  22907316.65940
  -5716320.59800  23718167.17500                  -3112666.38140  23718172.62440
 -13399927.43700  21403859.71400                 -10312387.48540  21403863.64040
  -4987311.45900  23477493.85500                  -3684185.18340  23477498.82340
 96  9  4  4 58 29.9990000  0  8  3 14 18 19 22 27 29 31
  -8008898.64600  23165443.67500                   -285402.93540  23165449.00740
  12031938.40900  23795175.89400                   9419691.11940  23795182.29240
  -3279998.82500  19801615.55800                  -2512552.70040  19801619.88240
 -20480602.41400  21000978.85500                 -15763560.56340  21000984.06940
  -7761427.01800  22924389.80000                   7338785.86140  22924394.41740
  -5802884.50200  23701694.76900                  -3180118.71540  23701701.53040
 -13345011.38300  21414309.67500                 -10269595.75940  21414313.88240
  -5084681.90300  23458965.12800                  -3760058.26840  23458968.64440
 96  9  4  4 58 59.9990000  0  8  3 14 18 19 22 27 29 31
  -8059599.52300  23155795.91700                   -324910.09840  23155801.74140
  12136883.04800  23815146.48700                   9501466.15240  23815152.20640
  -3300612.01300  19797692.78400                  -2528614.92940  19797697.15540
 -20533075.17300  20990993.52600                 -15804448.39640  20990998.46040
  -7671411.49700  22941519.15100                   7408927.81540  22941524.49540
  -5889344.04300  23685241.76100                  -3247489.72640  23685247.56240
 -13289725.49400  21424830.37800                 -10226515.85340  21424834.67940
  -5181894.47900  23440466.53400                  -3835808.28940  23440472.12440
 96  9  4  4 59 29.9990000  0  8  3 14 18 19 22 27 29 31
  -8109815.98600  23146240.06500                   -364039.78040  23146245.12840
  12241888.13800  23835127.83900                   9583288.32840  23835133.92140
  -3320761.71300  19793858.58900                  -2544315.99340  19793862.92540
 -20585274.59600  20981060.25300                 -15845123.24940  20981065.33940
  -7581128.73100  22958699.98000                   7479278.01340  22958704.42140
  -5975710.97300  23668807.15900                  -3314788.58340  23668812.66740
 -13234091.58900  21435417.24500                 -10183164.76440  21435421.56940
  -5278933.79800  23421999.25300                  -3911423.34140  23422004.99540
 96  9  4  4 59 59.9980000  0  8  3 14 18 19 22 27 29 31
  -8159545.13400  23136776.91200                   -402789.73640  23136781.78740
  12346937.55700  23855117.87300                   9665145.02140  23855123.00640
  -3340468.34000  19790108.41200                  -2559671.80540  19790112.79540
 -20637216.91700  20971175.98200                 -15885597.76640  20971181.04540
  -7490598.57900  22975926.95900                   7549820.97240  22975931.85740
  -6061990.11500  23652388.62300                  -3382019.05840  23652394.77540
 -13178130.94000  21446066.02200                 -10139559.06640  21446070.36940
  -5375799.41400  23403567.14700                  -3986903.03740  23403572.78340
 96  9  4  5  0 29.9980000  0  8  3 14 18 19 22 27 29 31
  -8208791.91300  23127404.87300                   -441163.85240  23127409.58440
  12452051.20500  23875121.60700                   9747051.78340  23875127.04540
  -3359718.28000  19786445.42000                  -2574671.75940  19786449.79140
 -20688911.87300  20961338.82600                 -15925879.53240  20961344.01840
  -7399822.24200  22993201.40400                   7620555.79140  22993206.32640
  -6148175.98400  23635987.59200                  -3449176.81140  23635993.04140
 -13121838.82100  21456778.20900                 -10095695.08940  21456782.35740
  -5472480.13000  23385169.14700                  -4062238.63240  23385174.71340
 96  9  4  5  0 59.9980000  0  8  3 14 18 19 22 27 29 31
  -8257558.26000  23118125.33400                   -479163.59740  23118130.72540
  12557231.76700  23895135.49000                   9829010.70740  23895140.45940
  -3378508.81200  19782869.69300                  -2589313.72740  19782874.04140
 -20740376.28200  20951545.44300                 -15965981.64040  20951550.58840
  -7308792.19800  23010523.42800                   7691488.30640  23010528.72540
  -6234259.67500  23619605.83400                  -3516254.95740  23619611.21340
 -13065213.61700  21467553.56100                 -10051571.55740  21467557.72140
  -5568960.69100  23366809.33400                  -4137418.26240  23366815.74440
 96  9  4  5  1 29.9980000  0  8  3 14 18 19 22 27 29 31
  -8305859.38900  23108933.20100                   -516800.82040  23108938.65040
  12662455.09600  23915159.38900                   9911002.88040  23915165.15440
  -3396846.13600  19779380.13100                  -2603602.55040  19779384.51440
 -20791638.54200  20941790.58400                 -16005926.23840  20941795.78740
  -7217518.96900  23027892.74000                   7762610.29140  23027897.31140
  -6320251.82300  23603242.23200                  -3583261.81240  23603247.81140
 -13008264.92400  21478390.46700                 -10007195.96740  21478394.54540
  -5665272.38200  23348482.21700                  -4212466.30640  23348487.31440
 96  9  4  5  1 59.9980000  0  8  3 14 18 19 22 27 29 31
  -8353708.58600  23099828.51400                   -554085.87940  23099833.55340
  12767709.26500  23935188.18600                   9993019.13740  23935193.36540
  -3414727.53400  19775977.31800                  -2617536.10540  19775981.74840
 -20842706.56600  20932072.56800                 -16045719.47740  20932077.59640
  -7126018.14300  23045304.51400                   7833909.65140  23045309.75240
  -6406147.08300  23586897.03700                  -3650193.13940  23586902.95540
 -12950975.33300  21489292.20100                  -9962554.72840  21489296.39740
  -5761432.97500  23330183.86500                  -4287396.63540  23330189.52540
 96  9  4  5  2 29.9980000  0  8  3 14 18 19 22 27 29 31
  -8401130.65600  23090804.68600                   -591038.13640  23090809.35040
  12872995.07200  23955225.17800                  10075060.04640  23955229.12740
  -3432138.52200  19772664.19300                  -2631103.10540  19772668.60040
 -20893570.25600  20922393.54500                 -16085353.50240  20922398.56140
  -7034291.69900  23062759.18600                   7905384.76040  23062763.95540
  -6491943.04300  23570570.56100                  -3717047.09240  23570576.26840
 -12893343.76200  21500259.27200                  -9917647.01640  21500263.33840
  -5857454.79600  23311911.85700                  -4362218.82340  23311917.24840
 96  9  4  5  2 59.9980000  0  8  3 14 18 19 22 27 29 31
  -8448109.13700  23081864.41200                   -627644.72340  23081869.12340
  12978317.82200  23975262.68600                  10157129.78740  23975267.25640
  -3449067.70100  19769442.84200                  -2644294.67240  19769447.20140
 -20944203.71900  20912758.14700                 -16124808.12540  20912763.18640
  -6942332.90700  23080258.90400                   7977040.99140  23080263.96740
  -6577628.75800  23554265.40400                  -3783815.14640  23554270.67840
 -12835348.97000  21511295.37300                  -9872456.27640  21511299.69740
  -5953328.46600  23293666.49000                  -4436925.55740  23293672.09240
 96  9  4  5  3 29.9980000  0  8  3 14 18 19 22 27 29 31
  -8494675.15000  23073003.12300                   -663929.91140  23073007.07240
  13083660.96700  23995309.21700                  10239215.32140  23995314.03340
  -3465527.37900  19766310.38900                  -2657120.39040  19766314.73640
 -20994607.72300  20903166.70900                 -16164083.95840  20903171.90040
  -6850181.79600  23097794.13900                   8048847.04440  23097799.11940
  -6663228.33200  23537975.91200                  -3850516.06740  23537981.92440
 -12777008.65600  21522397.19300                  -9826996.30140  21522401.75240
  -6049063.51000  23275449.89700                  -4511524.29240  23275454.74840
 96  9  4  5  3 59.9980000  0  8  3 14 18 19 22 27 29 31
  -8540822.33600  23064221.63900                   -699888.74740  23064225.70540
  13189051.46600  24015366.64700                  10321337.81140  24015372.89340
  -3481512.31300  19763268.39700                  -2669576.17440  19763272.87340
 -21044773.88000  20893620.49000                 -16203174.44640  20893625.43640
  -6757842.95900  23115366.13900                   8120799.39140  23115371.67040
  -6748745.14200  23521702.53700                  -3917152.49940  23521708.51440
 -12718310.08900  21533567.02200                  -9781257.16740  21533571.51040
  -6144641.22800  23257260.91200                  -4586000.42240  23257265.30740
 96  9  4  5  4 29.9980000  0  8  3 14 18 19 22 27 29 31
  -8586527.11600  23055524.58400                   -735502.83440  23055529.98640
  13294505.34800  24035434.99800                  10403509.69740  24035441.93940
  -3497000.77200  19760321.35700                  -2681645.09540  19760325.74040
 -21094693.27100  20884121.18600                 -16242072.66040  20884126.21340
  -6665295.46800  23132976.95100                   8192914.32340  23132982.11940
  -6834171.51000  23505447.17800                  -3983718.47640  23505452.83840
 -12659248.40500  21544806.25600                  -9735235.08440  21544810.65040
  -6240028.21300  23239109.45900                  -4660327.91840  23239114.74440
 96  9  4  5  4 59.9980000  0  8  3 14 18 19 22 27 29 31
  -8631785.13700  23046911.63100                   -770768.80840  23046916.57640
  13400000.23600  24055505.53700                  10485713.55640  24055512.14740
  -3512014.46700  19757464.27900                  -2693344.07840  19757468.67440
 -21144386.28200  20874664.54500                 -16280794.46540  20874669.70140
  -6572557.68500  23150623.89700                   8265177.51540  23150628.49040
  -6919519.24600  23489205.70900                  -4050223.17540  23489211.28740
 -12599836.30800  21556111.80300                  -9688939.95340  21556116.09240
  -6335210.39600  23220997.24000                  -4734495.82440  23221003.29940
 96  9  4  5  5 29.9980000  0  8  3 14 18 19 22 27 29 31
  -8676598.63100  23038384.49800                   -805688.39540  23038389.53740
  13505533.40800  24075592.01400                  10567947.17040  24075596.08040
  -3526559.26600  19754696.36500                  -2704677.68640  19754700.70140
 -21193865.04100  20865249.06800                 -16319349.33040  20865254.14340
  -6479626.04600  23168308.68600                   8337591.78740  23168314.05340
  -7004801.39300  23472976.85700                  -4116676.75640  23472982.76440
 -12540083.57500  21567482.62300                  -9642379.39040  21567487.10040
  -6430184.22000  23202924.02900                  -4808501.37340  23202929.16240
 96  9  4  5  5 59.9980000  0  8  3 14 18 19 22 27 29 31
  -8720952.89300  23029944.47500                   -840250.13540  23029948.93940
  13611079.03800  24095677.98200                  10650190.49440  24095683.04540
  -3540644.58700  19752016.17800                  -2715653.25240  19752020.47940
 -21243146.12500  20855871.31800                 -16357750.16740  20855876.26440
  -6386503.36100  23186029.04500                   8410154.91940  23186034.03740
  -7090023.31600  23456760.08400                  -4183083.41540  23456765.36940
 -12479995.82000  21578916.85000                  -9595557.76640  21578921.29140
  -6524959.60800  23184889.10000                  -4882352.31040  23184893.96340
 96  9  4  5  6 29.9980000  0  8  3 14 18 19 22 27 29 31
  -8764853.31400  23021590.02200                   -874458.24140  23021594.31140
  13716588.61400  24115756.49800                  10732405.72440  24115760.90440
  -3554289.42100  19749419.53700                  -2726285.58540  19749423.92040
 -21292233.97000  20846530.12300                 -16396000.41940  20846535.08040
  -6293217.46000  23203780.83400                   8482845.24740  23203784.91240
  -7175185.91000  23440553.86500                  -4249443.83140  23440559.63140
 -12419594.91900  21590410.84200                  -9548492.13440  21590415.21340
  -6619541.91400  23166890.68600                  -4956052.78940  23166895.80740
 96  9  4  5  6 59.9980000  0  8  3 14 18 19 22 27 29 31
  -8808286.84200  23013324.53700                   -908302.52940  23013329.27240
  13822056.97800  24135825.10000                  10814588.93640  24135829.04940
  -3567501.36300  19746905.37300                  -2736580.59840  19746909.79140
 -21341102.58900  20837230.73200                 -16434079.84940  20837235.84240
  -6199765.47700  23221564.77900                   8555664.98040  23221569.37340
  -7260268.70000  23424363.77200                  -4315742.06040  23424368.92840
 -12358868.57400  21601966.75600                  -9501172.92240  21601971.15040
  -6713928.28500  23148929.81800                  -5029600.59040  23148935.44340
 96  9  4  5  7 29.9980000  0  8  3 14 18 19 22 27 29 31
  -8851258.59800  23005147.46700                   -941786.98840  23005152.26040
  13927478.16600  24155886.34200                  10896735.35940  24155893.85740
  -3580281.31400  19744473.67800                  -2746538.99240  19744478.07240
 -21389751.64100  20827973.22500                 -16471988.18840  20827978.25240
  -6106142.76600  23239380.38100                   8628617.73240  23239384.88140
  -7345268.14300  23408187.95100                  -4381975.36340  23408193.70540
 -12297816.07300  21613584.61500                  -9453599.55140  21613588.89340
  -6808131.57700  23131003.48200                  -5103005.74540  23131008.53340
 96  9  4  5  7 59.9980000  0  8  3 14 18 19 22 27 29 31
  -8893744.36700  22997062.32600                   -974892.77340  22997067.54140
  14032855.68500  24175935.15400                  10978847.73340  24175940.06440
  -3592608.03400  19742127.58400                  -2756144.22740  19742131.99040
 -21438159.88200  20818761.33400                 -16509708.88440  20818766.51440
  -6012353.28400  23257227.77200                   8701700.47140  23257232.88140
  -7430153.07300  23392034.59200                  -4448119.42140  23392040.38140
 -12236415.16300  21625268.66200                  -9405754.69640  21625272.62340
  -6902134.30800  23113114.50600                  -5176254.61840  23113118.95940
 96  9  4  5  8 29.9980000  0  8  3 14 18 19 22 27 29 31
  -8935777.74600  22989064.13100                  -1007646.03440  22989069.41640
  14138161.73400  24195975.34200                  11060904.44340  24195978.54140
  -3604512.12000  19739862.48200                  -2765420.13540  19739866.91240
 -21486352.05600  20809590.67800                 -16547261.21440  20809595.85740
  -5918422.02900  23275102.40400                   8774893.65040  23275106.14340
  -7514947.36800  23375899.27900                  -4514192.84540  23375904.82240
 -12174698.16600  21637012.99800                  -9357663.54440  21637017.49840
  -6995966.72700  23095258.99800                  -5249370.77240  23095264.17840
 96  9  4  5  8 59.9980000  0  8  3 14 18 19 22 27 29 31
  -8977346.97100  22981153.74800                  -1040037.61940  22981158.47140
  14243431.43000  24216008.20100                  11142932.72640  24216012.12740
  -3615968.83900  19737682.33400                  -2774347.44440  19737686.64740
 -21534329.34800  20800460.96700                 -16584646.10540  20800466.01840
  -5824320.91900  23293009.49000                   8848219.18340  23293014.77540
  -7599648.40900  23359781.05300                  -4580193.62540  23359786.54940
 -12112648.63800  21648820.81100                  -9309313.26840  21648825.21740
  -7089616.97600  23077438.67000                  -5322344.96840  23077443.72140
 96  9  4  5  9 29.9980000  0  8  3 14 18 19 22 27 29 31
  -9018449.89800  22973332.15400                  -1072065.84940  22973336.25640
  14348675.89100  24236038.06800                  11224941.40540  24236040.43640
  -3626960.13800  19735590.70900                  -2782912.08840  19735594.97540
 -21582103.43100  20791369.76400                 -16621872.65140  20791374.74440
  -5730057.30700  23310946.67800                   8921671.36840  23310951.83440
  -7684266.47700  23343679.10700                  -4646129.73940  23343684.66240
 -12050265.20500  21660692.11500                  -9260702.81240  21660696.66240
  -7183088.60700  23059650.24000                  -5395179.97440  23059655.42040
 96  9  4  5  9 59.9980000  0  8  3 14 18 19 22 27 29 31
  -9059071.41000  22965601.67000                  -1103718.96040  22965606.43940
  14453901.44200  24256060.87300                  11306935.40540  24256062.31440
  -3637489.67100  19733587.24000                  -2791116.91840  19733591.61140
 -21629678.97900  20782316.56800                 -16658944.48840  20782321.71340
  -5635640.61600  23328914.09200                   8995242.83640  23328918.28740
  -7768813.23900  23327590.27200                  -4712010.29140  23327595.67440
 -11987550.89400  21672626.29500                  -9211834.52640  21672630.31440
  -7276380.52900  23041898.04500                  -5467874.98440  23041902.95540
 96  9  4  5 10 29.9980000  0  8  3 14 18 19 22 27 29 31
  -9099208.13100  22957964.51400                  -1134994.30440  22957969.82240
  14559131.86900  24276084.29500                  11388933.07240  24276091.16640
  -3647555.19500  19731671.81100                  -2798960.18440  19731676.21740
 -21677060.64300  20773300.13900                 -16695865.26140  20773305.14340
  -5541045.83800  23346915.24000                   9068953.03940  23346920.45540
  -7853283.74800  23311515.57600                  -4777831.42640  23311520.89740
 -11924511.25000  21684622.49000                  -9162712.73840  21684626.69740
  -7369465.57600  23024185.35700                  -5540408.78540  23024190.15040
 96  9  4  5 10 59.9980000  0  8  3 14 18 19 22 27 29 31
  -9138867.54900  22950417.67000                  -1165897.71040  22950422.62740
  14664369.05400  24296111.63900                  11470936.07640  24296118.56840
  -3657159.00400  19729844.20900                  -2806443.67440  19729848.60440
 -21724264.09900  20764317.52900                 -16732647.16340  20764322.75640
  -5446285.48300  23364946.93600                   9142792.28040  23364952.52540
  -7937699.68800  23295452.01400                  -4843610.04140  23295457.74440
 -11861160.50800  21696677.50600                  -9113348.53440  21696681.74840
  -7462337.32800  23006511.95100                  -5612776.36840  23006517.14340
 96  9  4  5 11 29.9980000  0  8  3 14 18 19 22 27 29 31
  -9178026.81000  22942965.97500                  -1196411.40940  22942970.53340
  14769616.84800  24316138.02200                  11552947.45440  24316139.67440
  -3666284.32800  19728107.71700                  -2813554.31640  19728111.98240
 -21771259.83800  20755374.48200                 -16769267.20340  20755379.60440
  -5351347.15200  23383013.23200                   9216770.22340  23383017.19340
  -8022044.54100  23279401.94300                  -4909333.26640  23279407.73240
 -11797490.49700  21708793.75600                  -9063735.55140  21708797.98640
  -7554970.39900  22988884.13900                  -5684957.97640  22988889.51840
 96  9  4  5 11 59.9980000  0  8  3 14 18 19 22 27 29 31
  -9216705.96400  22935605.28700                  -1226550.98540  22935609.70540
  14874849.49800  24336164.56100                  11634946.94640  24336169.98640
  -3674945.87200  19726459.51400                  -2820303.56740  19726463.92040
 -21818060.29400  20746468.62300                 -16805735.07740  20746473.72140
  -5256237.91300  23401111.97500                   9290881.33640  23401116.48640
  -8106327.92200  23263362.93600                  -4975008.58540  23263368.32640
 -11733523.01900  21720966.16200                  -9013890.77640  21720970.36940
  -7647360.98100  22971302.83400                  -5756950.61840  22971308.43640
 96  9  4  5 12 29.9980000  0  7  3 18 19 22 27 29 31
  -9254914.94100  22928334.49000                  -1256324.18840  22928340.01040
  -3683125.85600  19724902.79500                  -2826677.57640  19724907.15440
 -21864651.45700  20737602.52200                 -16842039.86340  20737607.51440
  -5160955.84100  23419243.35000                   9365127.08440  23419248.38940
  -8190531.48400  23247339.20900                  -5040621.71340  23247344.03740
 -11669257.70500  21733195.03700                  -8963813.91740  21733198.93940
  -7739498.58600  22953769.60000                  -5828746.13540  22953774.74440
 96  9  4  5 12 59.9980000  0  7  3 18 19 22 27 29 31
  -9292654.53300  22921152.86500                  -1285731.64840  22921157.86940
  -3690821.24000  19723438.53700                  -2832673.97640  19723442.90840
 -21911009.27000  20728781.00600                 -16878162.81940  20728786.12740
  -5065519.40300  23437404.30300                   9439493.19440  23437409.04940
  -8274652.12400  23231331.77900                  -5106170.23540  23231337.10040
 -11604681.00500  21745484.02200                  -8913494.42640  21745488.31140
  -7831403.97400  22936280.78700                  -5900360.72540  22936285.59240
 96  9  4  5 13 29.9980000  0  7  3 18 19 22 27 29 31
  -9329928.90400  22914059.81800                  -1314776.58740  22914064.70540
  -3698048.84700  19722063.10000                  -2838305.88240  19722067.52940
 -21957124.21300  20720005.60700                 -16914096.52540  20720010.68240
  -4969945.96800  23455591.17800                   9513965.99640  23455594.54140
  -8358669.97600  23215343.88900                  -5171638.65540  23215350.01840
 -11539792.49700  21757831.58400                  -8862931.96140  21757835.81440
  -7923077.28600  22918835.89700                  -5971794.44840  22918841.10040
 96  9  4  5 13 59.9980000  0  7  3 18 19 22 27 29 31
  -9366737.73700  22907054.99800                  -1343458.75640  22907059.60440
  -3704810.10900  19720776.37300                  -2843574.39640  19720780.87340
 -22002994.98200  20711276.71700                 -16949839.96340  20711281.79140
  -4874236.40400  23473803.83400                   9588544.88740  23473808.97940
  -8442571.46600  23199378.21700                  -5237016.40140  23199383.44340
 -11474584.85000  21770240.26400                  -8812120.81140  21770244.26040
  -8014505.18800  22901437.60700                  -6043036.96040  22901442.50640
